<?xml version="1.0" encoding="UTF-8" standalone="no" ?>
<gpx xmlns="http://www.topografix.com/GPX/1/1" creator="CompeGPS" version="1.1" xmlns:xsi="http://www.w3.org/2001/XMLSchema-instance" xsi:schemaLocation="http://www.topografix.com/GPX/1/1 http://www.topografix.com/GPX/1/1/gpx.xsd http://www.garmin.com/xmlschemas/GpxExtensions/v3 http://www.garmin.com/xmlschemas/GpxExtensionsv3.xsd http://www.garmin.com/xmlschemas/TrackPointExtension/v1 http://www.garmin.com/xmlschemas/TrackPointExtensionv1.xsd" xmlns:gpxtpx="http://www.garmin.com/xmlschemas/TrackPointExtension/v1">
  <metadata>
    <link href="http://www.compegps.com">
      <text>CompeGPS TEAM, SL</text>
    </link>
    <time>2013-09-28T10:14:10Z</time>
    <bounds maxlat="42.733840" maxlon="0.201648" minlat="42.698799" minlon="0.149662"/>
  </metadata>
<wpt lat="42.720597" lon="0.198628">
<ele>1650</ele>
<name>Parking Tunnel Bielsa</name>
</wpt>
<wpt lat="42.729445" lon="0.181773">
<ele>2155</ele>
<name>Bif. Port de Bielsa</name>
</wpt>
<wpt lat="42.733801" lon="0.173520">
<ele>2381</ele>
<name>Col de Port Vieux</name>
</wpt>
<wpt lat="42.727949" lon="0.162166">
<ele>2723</ele>
<name>Pic de Port Vieux</name>
</wpt>
<wpt lat="42.717684" lon="0.170443">
<ele>2762</ele>
<name>Pic de Barroude</name>
</wpt>
<wpt lat="42.724006" lon="0.151623">
<ele>2534</ele>
<name>Port de Barroude</name>
</wpt>
<wpt lat="42.704414" lon="0.157060">
<ele>1750</ele>
<name>Refugio de Barrosa</name>
</wpt>
<wpt lat="42.700408" lon="0.201580">
<ele>1400</ele>
<name>Route A-138</name>
</wpt>
<trk>
    <name>pic de Barroude</name>
    <trkseg>
      <trkpt lat="42.720597" lon="0.198628">
        <ele>1669.9</ele>
        <time>2013-09-22T07:15:10Z</time>
        <name>Parking Tunnel Bielsa</name>
      </trkpt>
      <trkpt lat="42.720617" lon="0.198755">
        <ele>1672.8</ele>
        <time>2013-09-22T07:15:21Z</time>
      </trkpt>
      <trkpt lat="42.720612" lon="0.198898">
        <ele>1674.3</ele>
        <time>2013-09-22T07:15:30Z</time>
      </trkpt>
      <trkpt lat="42.720639" lon="0.199012">
        <ele>1676.7</ele>
        <time>2013-09-22T07:15:40Z</time>
      </trkpt>
      <trkpt lat="42.720670" lon="0.199140">
        <ele>1680.0</ele>
        <time>2013-09-22T07:20:02Z</time>
      </trkpt>
      <trkpt lat="42.720653" lon="0.199009">
        <ele>1680.0</ele>
        <time>2013-09-22T07:20:19Z</time>
      </trkpt>
      <trkpt lat="42.720642" lon="0.198883">
        <ele>1679.6</ele>
        <time>2013-09-22T07:20:27Z</time>
      </trkpt>
      <trkpt lat="42.720688" lon="0.198762">
        <ele>1680.0</ele>
        <time>2013-09-22T07:20:35Z</time>
      </trkpt>
      <trkpt lat="42.720778" lon="0.198683">
        <ele>1680.5</ele>
        <time>2013-09-22T07:20:59Z</time>
      </trkpt>
      <trkpt lat="42.720839" lon="0.198589">
        <ele>1681.0</ele>
        <time>2013-09-22T07:21:06Z</time>
      </trkpt>
      <trkpt lat="42.720877" lon="0.198477">
        <ele>1682.0</ele>
        <time>2013-09-22T07:21:15Z</time>
      </trkpt>
      <trkpt lat="42.720909" lon="0.198380">
        <ele>1683.9</ele>
        <time>2013-09-22T07:21:25Z</time>
      </trkpt>
      <trkpt lat="42.720935" lon="0.198254">
        <ele>1685.3</ele>
        <time>2013-09-22T07:22:03Z</time>
      </trkpt>
      <trkpt lat="42.720952" lon="0.198117">
        <ele>1686.8</ele>
        <time>2013-09-22T07:22:25Z</time>
      </trkpt>
      <trkpt lat="42.720997" lon="0.198009">
        <ele>1688.7</ele>
        <time>2013-09-22T07:22:36Z</time>
      </trkpt>
      <trkpt lat="42.721020" lon="0.197887">
        <ele>1690.6</ele>
        <time>2013-09-22T07:22:46Z</time>
      </trkpt>
      <trkpt lat="42.721073" lon="0.197779">
        <ele>1692.1</ele>
        <time>2013-09-22T07:22:55Z</time>
      </trkpt>
      <trkpt lat="42.721089" lon="0.197893">
        <ele>1694.0</ele>
        <time>2013-09-22T07:23:04Z</time>
      </trkpt>
      <trkpt lat="42.721093" lon="0.198033">
        <ele>1694.9</ele>
        <time>2013-09-22T07:23:14Z</time>
      </trkpt>
      <trkpt lat="42.721110" lon="0.198169">
        <ele>1697.3</ele>
        <time>2013-09-22T07:23:24Z</time>
      </trkpt>
      <trkpt lat="42.721135" lon="0.198304">
        <ele>1699.8</ele>
        <time>2013-09-22T07:23:34Z</time>
      </trkpt>
      <trkpt lat="42.721162" lon="0.198440">
        <ele>1701.2</ele>
        <time>2013-09-22T07:23:42Z</time>
      </trkpt>
      <trkpt lat="42.721173" lon="0.198576">
        <ele>1702.2</ele>
        <time>2013-09-22T07:23:50Z</time>
      </trkpt>
      <trkpt lat="42.721154" lon="0.198676">
        <ele>1703.6</ele>
        <time>2013-09-22T07:24:35Z</time>
      </trkpt>
      <trkpt lat="42.721169" lon="0.198795">
        <ele>1706.0</ele>
        <time>2013-09-22T07:24:44Z</time>
      </trkpt>
      <trkpt lat="42.721174" lon="0.198924">
        <ele>1708.9</ele>
        <time>2013-09-22T07:24:53Z</time>
      </trkpt>
      <trkpt lat="42.721212" lon="0.198943">
        <ele>1711.3</ele>
        <time>2013-09-22T07:25:02Z</time>
      </trkpt>
      <trkpt lat="42.721245" lon="0.198832">
        <ele>1713.2</ele>
        <time>2013-09-22T07:25:09Z</time>
      </trkpt>
      <trkpt lat="42.721316" lon="0.198701">
        <ele>1714.7</ele>
        <time>2013-09-22T07:25:17Z</time>
      </trkpt>
      <trkpt lat="42.721383" lon="0.198601">
        <ele>1716.1</ele>
        <time>2013-09-22T07:25:24Z</time>
      </trkpt>
      <trkpt lat="42.721440" lon="0.198484">
        <ele>1719.0</ele>
        <time>2013-09-22T07:25:32Z</time>
      </trkpt>
      <trkpt lat="42.721482" lon="0.198372">
        <ele>1720.9</ele>
        <time>2013-09-22T07:25:41Z</time>
      </trkpt>
      <trkpt lat="42.721532" lon="0.198266">
        <ele>1722.8</ele>
        <time>2013-09-22T07:25:50Z</time>
      </trkpt>
      <trkpt lat="42.721590" lon="0.198155">
        <ele>1724.3</ele>
        <time>2013-09-22T07:25:59Z</time>
      </trkpt>
      <trkpt lat="42.721651" lon="0.198040">
        <ele>1726.7</ele>
        <time>2013-09-22T07:26:09Z</time>
      </trkpt>
      <trkpt lat="42.721717" lon="0.197955">
        <ele>1728.1</ele>
        <time>2013-09-22T07:26:18Z</time>
      </trkpt>
      <trkpt lat="42.721800" lon="0.197888">
        <ele>1730.5</ele>
        <time>2013-09-22T07:26:27Z</time>
      </trkpt>
      <trkpt lat="42.721887" lon="0.197798">
        <ele>1732.9</ele>
        <time>2013-09-22T07:26:36Z</time>
      </trkpt>
      <trkpt lat="42.721967" lon="0.197706">
        <ele>1734.4</ele>
        <time>2013-09-22T07:26:44Z</time>
      </trkpt>
      <trkpt lat="42.721980" lon="0.197575">
        <ele>1735.3</ele>
        <time>2013-09-22T07:26:51Z</time>
      </trkpt>
      <trkpt lat="42.721962" lon="0.197457">
        <ele>1738.2</ele>
        <time>2013-09-22T07:27:00Z</time>
      </trkpt>
      <trkpt lat="42.721946" lon="0.197312">
        <ele>1739.6</ele>
        <time>2013-09-22T07:27:07Z</time>
      </trkpt>
      <trkpt lat="42.721961" lon="0.197170">
        <ele>1742.1</ele>
        <time>2013-09-22T07:27:15Z</time>
      </trkpt>
      <trkpt lat="42.721987" lon="0.197023">
        <ele>1743.5</ele>
        <time>2013-09-22T07:27:22Z</time>
      </trkpt>
      <trkpt lat="42.722035" lon="0.196900">
        <ele>1745.9</ele>
        <time>2013-09-22T07:27:29Z</time>
      </trkpt>
      <trkpt lat="42.722062" lon="0.196768">
        <ele>1748.3</ele>
        <time>2013-09-22T07:27:38Z</time>
      </trkpt>
      <trkpt lat="42.722104" lon="0.196634">
        <ele>1751.2</ele>
        <time>2013-09-22T07:27:48Z</time>
      </trkpt>
      <trkpt lat="42.722147" lon="0.196740">
        <ele>1754.1</ele>
        <time>2013-09-22T07:27:58Z</time>
      </trkpt>
      <trkpt lat="42.722191" lon="0.196855">
        <ele>1756.0</ele>
        <time>2013-09-22T07:28:06Z</time>
      </trkpt>
      <trkpt lat="42.722231" lon="0.196972">
        <ele>1757.4</ele>
        <time>2013-09-22T07:28:15Z</time>
      </trkpt>
      <trkpt lat="42.722290" lon="0.197086">
        <ele>1759.3</ele>
        <time>2013-09-22T07:28:25Z</time>
      </trkpt>
      <trkpt lat="42.722342" lon="0.197193">
        <ele>1761.8</ele>
        <time>2013-09-22T07:28:35Z</time>
      </trkpt>
      <trkpt lat="42.722386" lon="0.197240">
        <ele>1764.2</ele>
        <time>2013-09-22T07:28:45Z</time>
      </trkpt>
      <trkpt lat="42.722406" lon="0.197124">
        <ele>1766.6</ele>
        <time>2013-09-22T07:28:54Z</time>
      </trkpt>
      <trkpt lat="42.722427" lon="0.196998">
        <ele>1769.9</ele>
        <time>2013-09-22T07:29:04Z</time>
      </trkpt>
      <trkpt lat="42.722453" lon="0.196865">
        <ele>1772.3</ele>
        <time>2013-09-22T07:29:15Z</time>
      </trkpt>
      <trkpt lat="42.722499" lon="0.196752">
        <ele>1774.7</ele>
        <time>2013-09-22T07:29:26Z</time>
      </trkpt>
      <trkpt lat="42.722581" lon="0.196651">
        <ele>1778.1</ele>
        <time>2013-09-22T07:29:37Z</time>
      </trkpt>
      <trkpt lat="42.722663" lon="0.196596">
        <ele>1780.5</ele>
        <time>2013-09-22T07:29:48Z</time>
      </trkpt>
      <trkpt lat="42.722738" lon="0.196500">
        <ele>1782.4</ele>
        <time>2013-09-22T07:29:57Z</time>
      </trkpt>
      <trkpt lat="42.722742" lon="0.196393">
        <ele>1784.3</ele>
        <time>2013-09-22T07:30:08Z</time>
      </trkpt>
      <trkpt lat="42.722718" lon="0.196259">
        <ele>1786.8</ele>
        <time>2013-09-22T07:30:18Z</time>
      </trkpt>
      <trkpt lat="42.722707" lon="0.196117">
        <ele>1789.2</ele>
        <time>2013-09-22T07:30:27Z</time>
      </trkpt>
      <trkpt lat="42.722720" lon="0.195971">
        <ele>1792.0</ele>
        <time>2013-09-22T07:30:40Z</time>
      </trkpt>
      <trkpt lat="42.722716" lon="0.195799">
        <ele>1795.4</ele>
        <time>2013-09-22T07:30:52Z</time>
      </trkpt>
      <trkpt lat="42.722752" lon="0.195649">
        <ele>1798.3</ele>
        <time>2013-09-22T07:31:03Z</time>
      </trkpt>
      <trkpt lat="42.722764" lon="0.195484">
        <ele>1801.7</ele>
        <time>2013-09-22T07:31:16Z</time>
      </trkpt>
      <trkpt lat="42.722789" lon="0.195301">
        <ele>1803.1</ele>
        <time>2013-09-22T07:31:26Z</time>
      </trkpt>
      <trkpt lat="42.722773" lon="0.195178">
        <ele>1806.0</ele>
        <time>2013-09-22T07:31:38Z</time>
      </trkpt>
      <trkpt lat="42.722793" lon="0.194794">
        <ele>1820.9</ele>
        <time>2013-09-22T07:35:59Z</time>
      </trkpt>
      <trkpt lat="42.722804" lon="0.194716">
        <ele>1823.8</ele>
        <time>2013-09-22T07:36:14Z</time>
      </trkpt>
      <trkpt lat="42.722777" lon="0.194609">
        <ele>1827.1</ele>
        <time>2013-09-22T07:36:31Z</time>
      </trkpt>
      <trkpt lat="42.722739" lon="0.194503">
        <ele>1829.5</ele>
        <time>2013-09-22T07:36:46Z</time>
      </trkpt>
      <trkpt lat="42.722677" lon="0.194402">
        <ele>1831.4</ele>
        <time>2013-09-22T07:37:00Z</time>
      </trkpt>
      <trkpt lat="42.722610" lon="0.194290">
        <ele>1833.8</ele>
        <time>2013-09-22T07:37:13Z</time>
      </trkpt>
      <trkpt lat="42.722563" lon="0.194193">
        <ele>1836.3</ele>
        <time>2013-09-22T07:37:28Z</time>
      </trkpt>
      <trkpt lat="42.722556" lon="0.194046">
        <ele>1838.2</ele>
        <time>2013-09-22T07:37:41Z</time>
      </trkpt>
      <trkpt lat="42.722565" lon="0.193898">
        <ele>1839.1</ele>
        <time>2013-09-22T07:37:53Z</time>
      </trkpt>
      <trkpt lat="42.722589" lon="0.193761">
        <ele>1837.7</ele>
        <time>2013-09-22T07:38:04Z</time>
      </trkpt>
      <trkpt lat="42.722615" lon="0.193645">
        <ele>1838.2</ele>
        <time>2013-09-22T07:38:13Z</time>
      </trkpt>
      <trkpt lat="42.722638" lon="0.193503">
        <ele>1839.6</ele>
        <time>2013-09-22T07:38:23Z</time>
      </trkpt>
      <trkpt lat="42.722651" lon="0.193385">
        <ele>1840.6</ele>
        <time>2013-09-22T07:38:32Z</time>
      </trkpt>
      <trkpt lat="42.722683" lon="0.193257">
        <ele>1841.5</ele>
        <time>2013-09-22T07:38:41Z</time>
      </trkpt>
      <trkpt lat="42.722701" lon="0.193132">
        <ele>1843.0</ele>
        <time>2013-09-22T07:38:51Z</time>
      </trkpt>
      <trkpt lat="42.722729" lon="0.193015">
        <ele>1843.9</ele>
        <time>2013-09-22T07:39:01Z</time>
      </trkpt>
      <trkpt lat="42.722748" lon="0.192889">
        <ele>1845.9</ele>
        <time>2013-09-22T07:39:12Z</time>
      </trkpt>
      <trkpt lat="42.722767" lon="0.192748">
        <ele>1845.9</ele>
        <time>2013-09-22T07:39:21Z</time>
      </trkpt>
      <trkpt lat="42.722791" lon="0.192621">
        <ele>1847.3</ele>
        <time>2013-09-22T07:39:31Z</time>
      </trkpt>
      <trkpt lat="42.722848" lon="0.192512">
        <ele>1849.7</ele>
        <time>2013-09-22T07:39:41Z</time>
      </trkpt>
      <trkpt lat="42.722880" lon="0.192384">
        <ele>1851.6</ele>
        <time>2013-09-22T07:39:53Z</time>
      </trkpt>
      <trkpt lat="42.722950" lon="0.192253">
        <ele>1854.0</ele>
        <time>2013-09-22T07:40:07Z</time>
      </trkpt>
      <trkpt lat="42.722995" lon="0.192140">
        <ele>1856.9</ele>
        <time>2013-09-22T07:40:20Z</time>
      </trkpt>
      <trkpt lat="42.723098" lon="0.191988">
        <ele>1861.7</ele>
        <time>2013-09-22T07:40:45Z</time>
      </trkpt>
      <trkpt lat="42.723144" lon="0.191883">
        <ele>1864.6</ele>
        <time>2013-09-22T07:40:56Z</time>
      </trkpt>
      <trkpt lat="42.723184" lon="0.191771">
        <ele>1867.0</ele>
        <time>2013-09-22T07:41:07Z</time>
      </trkpt>
      <trkpt lat="42.723243" lon="0.191673">
        <ele>1868.9</ele>
        <time>2013-09-22T07:41:18Z</time>
      </trkpt>
      <trkpt lat="42.723309" lon="0.191610">
        <ele>1870.4</ele>
        <time>2013-09-22T07:41:30Z</time>
      </trkpt>
      <trkpt lat="42.723364" lon="0.191731">
        <ele>1872.8</ele>
        <time>2013-09-22T07:41:43Z</time>
      </trkpt>
      <trkpt lat="42.723386" lon="0.191865">
        <ele>1874.7</ele>
        <time>2013-09-22T07:41:56Z</time>
      </trkpt>
      <trkpt lat="42.723388" lon="0.191999">
        <ele>1877.1</ele>
        <time>2013-09-22T07:42:10Z</time>
      </trkpt>
      <trkpt lat="42.723423" lon="0.192143">
        <ele>1878.1</ele>
        <time>2013-09-22T07:42:23Z</time>
      </trkpt>
      <trkpt lat="42.723456" lon="0.192287">
        <ele>1879.5</ele>
        <time>2013-09-22T07:42:36Z</time>
      </trkpt>
      <trkpt lat="42.723456" lon="0.192403">
        <ele>1880.5</ele>
        <time>2013-09-22T07:42:49Z</time>
      </trkpt>
      <trkpt lat="42.723423" lon="0.192586">
        <ele>1883.4</ele>
        <time>2013-09-22T07:43:08Z</time>
      </trkpt>
      <trkpt lat="42.723448" lon="0.192775">
        <ele>1886.2</ele>
        <time>2013-09-22T07:43:26Z</time>
      </trkpt>
      <trkpt lat="42.723426" lon="0.192962">
        <ele>1888.7</ele>
        <time>2013-09-22T07:43:42Z</time>
      </trkpt>
      <trkpt lat="42.723447" lon="0.193112">
        <ele>1890.6</ele>
        <time>2013-09-22T07:43:56Z</time>
      </trkpt>
      <trkpt lat="42.723437" lon="0.193267">
        <ele>1893.0</ele>
        <time>2013-09-22T07:44:10Z</time>
      </trkpt>
      <trkpt lat="42.723469" lon="0.193392">
        <ele>1895.4</ele>
        <time>2013-09-22T07:44:23Z</time>
      </trkpt>
      <trkpt lat="42.723487" lon="0.193519">
        <ele>1896.8</ele>
        <time>2013-09-22T07:44:35Z</time>
      </trkpt>
      <trkpt lat="42.723533" lon="0.193654">
        <ele>1899.2</ele>
        <time>2013-09-22T07:44:50Z</time>
      </trkpt>
      <trkpt lat="42.723576" lon="0.193749">
        <ele>1901.1</ele>
        <time>2013-09-22T07:45:03Z</time>
      </trkpt>
      <trkpt lat="42.723596" lon="0.193657">
        <ele>1903.6</ele>
        <time>2013-09-22T07:45:18Z</time>
      </trkpt>
      <trkpt lat="42.723598" lon="0.193533">
        <ele>1905.0</ele>
        <time>2013-09-22T07:45:30Z</time>
      </trkpt>
      <trkpt lat="42.723622" lon="0.193380">
        <ele>1906.4</ele>
        <time>2013-09-22T07:45:44Z</time>
      </trkpt>
      <trkpt lat="42.723656" lon="0.193221">
        <ele>1908.3</ele>
        <time>2013-09-22T07:45:56Z</time>
      </trkpt>
      <trkpt lat="42.723678" lon="0.193077">
        <ele>1910.3</ele>
        <time>2013-09-22T07:46:09Z</time>
      </trkpt>
      <trkpt lat="42.723707" lon="0.192956">
        <ele>1912.2</ele>
        <time>2013-09-22T07:46:22Z</time>
      </trkpt>
      <trkpt lat="42.723724" lon="0.192844">
        <ele>1914.1</ele>
        <time>2013-09-22T07:46:34Z</time>
      </trkpt>
      <trkpt lat="42.723747" lon="0.192712">
        <ele>1915.1</ele>
        <time>2013-09-22T07:46:46Z</time>
      </trkpt>
      <trkpt lat="42.723760" lon="0.192579">
        <ele>1917.5</ele>
        <time>2013-09-22T07:47:00Z</time>
      </trkpt>
      <trkpt lat="42.723815" lon="0.192474">
        <ele>1919.9</ele>
        <time>2013-09-22T07:47:14Z</time>
      </trkpt>
      <trkpt lat="42.723860" lon="0.192395">
        <ele>1920.4</ele>
        <time>2013-09-22T07:48:12Z</time>
      </trkpt>
      <trkpt lat="42.723940" lon="0.192286">
        <ele>1920.4</ele>
        <time>2013-09-22T07:48:23Z</time>
      </trkpt>
      <trkpt lat="42.724002" lon="0.192174">
        <ele>1921.3</ele>
        <time>2013-09-22T07:48:33Z</time>
      </trkpt>
      <trkpt lat="42.724019" lon="0.192045">
        <ele>1922.8</ele>
        <time>2013-09-22T07:48:44Z</time>
      </trkpt>
      <trkpt lat="42.724019" lon="0.191928">
        <ele>1924.2</ele>
        <time>2013-09-22T07:48:55Z</time>
      </trkpt>
      <trkpt lat="42.724067" lon="0.191813">
        <ele>1925.7</ele>
        <time>2013-09-22T07:49:05Z</time>
      </trkpt>
      <trkpt lat="42.724114" lon="0.191707">
        <ele>1927.6</ele>
        <time>2013-09-22T07:49:16Z</time>
      </trkpt>
      <trkpt lat="42.724122" lon="0.191582">
        <ele>1929.0</ele>
        <time>2013-09-22T07:49:27Z</time>
      </trkpt>
      <trkpt lat="42.724138" lon="0.191450">
        <ele>1930.0</ele>
        <time>2013-09-22T07:49:36Z</time>
      </trkpt>
      <trkpt lat="42.724215" lon="0.191373">
        <ele>1930.5</ele>
        <time>2013-09-22T07:49:46Z</time>
      </trkpt>
      <trkpt lat="42.724216" lon="0.191265">
        <ele>1931.4</ele>
        <time>2013-09-22T07:49:56Z</time>
      </trkpt>
      <trkpt lat="42.724238" lon="0.191134">
        <ele>1932.9</ele>
        <time>2013-09-22T07:50:08Z</time>
      </trkpt>
      <trkpt lat="42.724286" lon="0.191018">
        <ele>1935.3</ele>
        <time>2013-09-22T07:50:21Z</time>
      </trkpt>
      <trkpt lat="42.724322" lon="0.190929">
        <ele>1936.7</ele>
        <time>2013-09-22T07:50:33Z</time>
      </trkpt>
      <trkpt lat="42.724391" lon="0.190870">
        <ele>1941.0</ele>
        <time>2013-09-22T07:50:59Z</time>
      </trkpt>
      <trkpt lat="42.724376" lon="0.190744">
        <ele>1943.9</ele>
        <time>2013-09-22T07:51:14Z</time>
      </trkpt>
      <trkpt lat="42.724341" lon="0.190635">
        <ele>1945.8</ele>
        <time>2013-09-22T07:51:27Z</time>
      </trkpt>
      <trkpt lat="42.724327" lon="0.190522">
        <ele>1947.3</ele>
        <time>2013-09-22T07:51:39Z</time>
      </trkpt>
      <trkpt lat="42.724346" lon="0.190424">
        <ele>1950.2</ele>
        <time>2013-09-22T07:51:51Z</time>
      </trkpt>
      <trkpt lat="42.724325" lon="0.190300">
        <ele>1951.6</ele>
        <time>2013-09-22T07:52:03Z</time>
      </trkpt>
      <trkpt lat="42.724310" lon="0.190197">
        <ele>1954.0</ele>
        <time>2013-09-22T07:52:19Z</time>
      </trkpt>
      <trkpt lat="42.724260" lon="0.190086">
        <ele>1956.4</ele>
        <time>2013-09-22T07:52:35Z</time>
      </trkpt>
      <trkpt lat="42.724236" lon="0.189980">
        <ele>1958.3</ele>
        <time>2013-09-22T07:53:27Z</time>
      </trkpt>
      <trkpt lat="42.724184" lon="0.189872">
        <ele>1959.3</ele>
        <time>2013-09-22T07:53:38Z</time>
      </trkpt>
      <trkpt lat="42.724174" lon="0.189743">
        <ele>1959.3</ele>
        <time>2013-09-22T07:53:49Z</time>
      </trkpt>
      <trkpt lat="42.724185" lon="0.189613">
        <ele>1961.7</ele>
        <time>2013-09-22T07:54:04Z</time>
      </trkpt>
      <trkpt lat="42.724166" lon="0.189487">
        <ele>1961.7</ele>
        <time>2013-09-22T07:54:16Z</time>
      </trkpt>
      <trkpt lat="42.724177" lon="0.189361">
        <ele>1963.6</ele>
        <time>2013-09-22T07:54:31Z</time>
      </trkpt>
      <trkpt lat="42.724199" lon="0.189214">
        <ele>1965.1</ele>
        <time>2013-09-22T07:54:43Z</time>
      </trkpt>
      <trkpt lat="42.724240" lon="0.189075">
        <ele>1967.0</ele>
        <time>2013-09-22T07:54:56Z</time>
      </trkpt>
      <trkpt lat="42.724279" lon="0.188972">
        <ele>1968.4</ele>
        <time>2013-09-22T07:55:08Z</time>
      </trkpt>
      <trkpt lat="42.724271" lon="0.188867">
        <ele>1970.4</ele>
        <time>2013-09-22T07:55:21Z</time>
      </trkpt>
      <trkpt lat="42.724229" lon="0.188771">
        <ele>1972.8</ele>
        <time>2013-09-22T07:55:38Z</time>
      </trkpt>
      <trkpt lat="42.724261" lon="0.188641">
        <ele>1977.6</ele>
        <time>2013-09-22T07:56:07Z</time>
      </trkpt>
      <trkpt lat="42.724329" lon="0.188613">
        <ele>1980.4</ele>
        <time>2013-09-22T07:56:25Z</time>
      </trkpt>
      <trkpt lat="42.724361" lon="0.188564">
        <ele>1983.8</ele>
        <time>2013-09-22T07:56:40Z</time>
      </trkpt>
      <trkpt lat="42.724383" lon="0.188464">
        <ele>1986.2</ele>
        <time>2013-09-22T07:56:56Z</time>
      </trkpt>
      <trkpt lat="42.724385" lon="0.188345">
        <ele>1987.7</ele>
        <time>2013-09-22T07:57:09Z</time>
      </trkpt>
      <trkpt lat="42.724391" lon="0.188232">
        <ele>1989.1</ele>
        <time>2013-09-22T07:57:22Z</time>
      </trkpt>
      <trkpt lat="42.724413" lon="0.188112">
        <ele>1990.6</ele>
        <time>2013-09-22T07:57:36Z</time>
      </trkpt>
      <trkpt lat="42.724448" lon="0.187979">
        <ele>1992.5</ele>
        <time>2013-09-22T07:57:49Z</time>
      </trkpt>
      <trkpt lat="42.724529" lon="0.187926">
        <ele>1993.4</ele>
        <time>2013-09-22T07:58:03Z</time>
      </trkpt>
      <trkpt lat="42.724574" lon="0.188035">
        <ele>1995.3</ele>
        <time>2013-09-22T07:58:21Z</time>
      </trkpt>
      <trkpt lat="42.724627" lon="0.188138">
        <ele>1997.8</ele>
        <time>2013-09-22T07:58:36Z</time>
      </trkpt>
      <trkpt lat="42.724655" lon="0.188257">
        <ele>2000.2</ele>
        <time>2013-09-22T07:58:52Z</time>
      </trkpt>
      <trkpt lat="42.724711" lon="0.188339">
        <ele>2002.6</ele>
        <time>2013-09-22T07:59:05Z</time>
      </trkpt>
      <trkpt lat="42.724756" lon="0.188453">
        <ele>2002.6</ele>
        <time>2013-09-22T07:59:17Z</time>
      </trkpt>
      <trkpt lat="42.724795" lon="0.188576">
        <ele>2004.0</ele>
        <time>2013-09-22T07:59:30Z</time>
      </trkpt>
      <trkpt lat="42.724775" lon="0.188698">
        <ele>2005.4</ele>
        <time>2013-09-22T07:59:42Z</time>
      </trkpt>
      <trkpt lat="42.724770" lon="0.188840">
        <ele>2007.8</ele>
        <time>2013-09-22T07:59:55Z</time>
      </trkpt>
      <trkpt lat="42.724830" lon="0.188898">
        <ele>2008.8</ele>
        <time>2013-09-22T08:00:08Z</time>
      </trkpt>
      <trkpt lat="42.724868" lon="0.188801">
        <ele>2010.7</ele>
        <time>2013-09-22T08:00:20Z</time>
      </trkpt>
      <trkpt lat="42.724921" lon="0.188697">
        <ele>2012.7</ele>
        <time>2013-09-22T08:00:32Z</time>
      </trkpt>
      <trkpt lat="42.724976" lon="0.188602">
        <ele>2014.6</ele>
        <time>2013-09-22T08:00:56Z</time>
      </trkpt>
      <trkpt lat="42.725039" lon="0.188502">
        <ele>2017.0</ele>
        <time>2013-09-22T08:01:10Z</time>
      </trkpt>
      <trkpt lat="42.725102" lon="0.188407">
        <ele>2018.9</ele>
        <time>2013-09-22T08:01:23Z</time>
      </trkpt>
      <trkpt lat="42.725150" lon="0.188300">
        <ele>2021.3</ele>
        <time>2013-09-22T08:01:38Z</time>
      </trkpt>
      <trkpt lat="42.725206" lon="0.188189">
        <ele>2022.8</ele>
        <time>2013-09-22T08:01:52Z</time>
      </trkpt>
      <trkpt lat="42.725262" lon="0.188103">
        <ele>2024.7</ele>
        <time>2013-09-22T08:02:06Z</time>
      </trkpt>
      <trkpt lat="42.725337" lon="0.188117">
        <ele>2027.6</ele>
        <time>2013-09-22T08:02:19Z</time>
      </trkpt>
      <trkpt lat="42.725380" lon="0.188235">
        <ele>2029.5</ele>
        <time>2013-09-22T08:02:33Z</time>
      </trkpt>
      <trkpt lat="42.725430" lon="0.188259">
        <ele>2031.4</ele>
        <time>2013-09-22T08:03:01Z</time>
      </trkpt>
      <trkpt lat="42.725489" lon="0.188132">
        <ele>2033.3</ele>
        <time>2013-09-22T08:03:15Z</time>
      </trkpt>
      <trkpt lat="42.725575" lon="0.188070">
        <ele>2035.7</ele>
        <time>2013-09-22T08:03:27Z</time>
      </trkpt>
      <trkpt lat="42.725598" lon="0.188019">
        <ele>2035.7</ele>
        <time>2013-09-22T08:07:13Z</time>
      </trkpt>
      <trkpt lat="42.725642" lon="0.187982">
        <ele>2038.6</ele>
        <time>2013-09-22T08:08:46Z</time>
      </trkpt>
      <trkpt lat="42.725711" lon="0.187908">
        <ele>2041.0</ele>
        <time>2013-09-22T08:09:00Z</time>
      </trkpt>
      <trkpt lat="42.725762" lon="0.187803">
        <ele>2042.9</ele>
        <time>2013-09-22T08:10:04Z</time>
      </trkpt>
      <trkpt lat="42.725835" lon="0.187722">
        <ele>2045.3</ele>
        <time>2013-09-22T08:10:14Z</time>
      </trkpt>
      <trkpt lat="42.725906" lon="0.187630">
        <ele>2047.3</ele>
        <time>2013-09-22T08:10:26Z</time>
      </trkpt>
      <trkpt lat="42.725987" lon="0.187569">
        <ele>2049.7</ele>
        <time>2013-09-22T08:10:39Z</time>
      </trkpt>
      <trkpt lat="42.726048" lon="0.187489">
        <ele>2051.6</ele>
        <time>2013-09-22T08:10:51Z</time>
      </trkpt>
      <trkpt lat="42.726104" lon="0.187396">
        <ele>2052.1</ele>
        <time>2013-09-22T08:11:01Z</time>
      </trkpt>
      <trkpt lat="42.726151" lon="0.187275">
        <ele>2054.0</ele>
        <time>2013-09-22T08:11:11Z</time>
      </trkpt>
      <trkpt lat="42.726184" lon="0.187152">
        <ele>2055.0</ele>
        <time>2013-09-22T08:11:21Z</time>
      </trkpt>
      <trkpt lat="42.726225" lon="0.187043">
        <ele>2056.9</ele>
        <time>2013-09-22T08:11:31Z</time>
      </trkpt>
      <trkpt lat="42.726264" lon="0.186941">
        <ele>2058.8</ele>
        <time>2013-09-22T08:11:43Z</time>
      </trkpt>
      <trkpt lat="42.726304" lon="0.186815">
        <ele>2060.2</ele>
        <time>2013-09-22T08:11:55Z</time>
      </trkpt>
      <trkpt lat="42.726379" lon="0.186749">
        <ele>2061.7</ele>
        <time>2013-09-22T08:12:27Z</time>
      </trkpt>
      <trkpt lat="42.726435" lon="0.186649">
        <ele>2063.6</ele>
        <time>2013-09-22T08:12:37Z</time>
      </trkpt>
      <trkpt lat="42.726489" lon="0.186562">
        <ele>2064.1</ele>
        <time>2013-09-22T08:12:47Z</time>
      </trkpt>
      <trkpt lat="42.726554" lon="0.186477">
        <ele>2065.1</ele>
        <time>2013-09-22T08:12:57Z</time>
      </trkpt>
      <trkpt lat="42.726624" lon="0.186395">
        <ele>2066.0</ele>
        <time>2013-09-22T08:13:07Z</time>
      </trkpt>
      <trkpt lat="42.726697" lon="0.186308">
        <ele>2067.4</ele>
        <time>2013-09-22T08:13:17Z</time>
      </trkpt>
      <trkpt lat="42.726776" lon="0.186242">
        <ele>2067.9</ele>
        <time>2013-09-22T08:13:27Z</time>
      </trkpt>
      <trkpt lat="42.726846" lon="0.186148">
        <ele>2069.4</ele>
        <time>2013-09-22T08:13:37Z</time>
      </trkpt>
      <trkpt lat="42.726881" lon="0.186030">
        <ele>2070.3</ele>
        <time>2013-09-22T08:13:47Z</time>
      </trkpt>
      <trkpt lat="42.726909" lon="0.185907">
        <ele>2071.3</ele>
        <time>2013-09-22T08:13:57Z</time>
      </trkpt>
      <trkpt lat="42.726933" lon="0.185783">
        <ele>2072.7</ele>
        <time>2013-09-22T08:14:07Z</time>
      </trkpt>
      <trkpt lat="42.726959" lon="0.185652">
        <ele>2074.2</ele>
        <time>2013-09-22T08:14:18Z</time>
      </trkpt>
      <trkpt lat="42.726998" lon="0.185514">
        <ele>2075.6</ele>
        <time>2013-09-22T08:14:29Z</time>
      </trkpt>
      <trkpt lat="42.727035" lon="0.185389">
        <ele>2076.1</ele>
        <time>2013-09-22T08:14:39Z</time>
      </trkpt>
      <trkpt lat="42.727084" lon="0.185298">
        <ele>2078.0</ele>
        <time>2013-09-22T08:14:49Z</time>
      </trkpt>
      <trkpt lat="42.727138" lon="0.185207">
        <ele>2079.5</ele>
        <time>2013-09-22T08:14:59Z</time>
      </trkpt>
      <trkpt lat="42.727187" lon="0.185100">
        <ele>2080.4</ele>
        <time>2013-09-22T08:15:10Z</time>
      </trkpt>
      <trkpt lat="42.727233" lon="0.185002">
        <ele>2080.9</ele>
        <time>2013-09-22T08:15:19Z</time>
      </trkpt>
      <trkpt lat="42.727287" lon="0.184888">
        <ele>2081.9</ele>
        <time>2013-09-22T08:15:29Z</time>
      </trkpt>
      <trkpt lat="42.727337" lon="0.184764">
        <ele>2083.3</ele>
        <time>2013-09-22T08:15:40Z</time>
      </trkpt>
      <trkpt lat="42.727379" lon="0.184658">
        <ele>2085.7</ele>
        <time>2013-09-22T08:15:52Z</time>
      </trkpt>
      <trkpt lat="42.727432" lon="0.184535">
        <ele>2087.2</ele>
        <time>2013-09-22T08:16:04Z</time>
      </trkpt>
      <trkpt lat="42.727491" lon="0.184446">
        <ele>2089.1</ele>
        <time>2013-09-22T08:16:15Z</time>
      </trkpt>
      <trkpt lat="42.727556" lon="0.184363">
        <ele>2090.0</ele>
        <time>2013-09-22T08:16:26Z</time>
      </trkpt>
      <trkpt lat="42.727629" lon="0.184280">
        <ele>2091.5</ele>
        <time>2013-09-22T08:16:37Z</time>
      </trkpt>
      <trkpt lat="42.727689" lon="0.184177">
        <ele>2092.4</ele>
        <time>2013-09-22T08:16:47Z</time>
      </trkpt>
      <trkpt lat="42.727731" lon="0.184074">
        <ele>2093.9</ele>
        <time>2013-09-22T08:16:57Z</time>
      </trkpt>
      <trkpt lat="42.727762" lon="0.183955">
        <ele>2094.9</ele>
        <time>2013-09-22T08:17:08Z</time>
      </trkpt>
      <trkpt lat="42.727786" lon="0.183825">
        <ele>2095.8</ele>
        <time>2013-09-22T08:17:18Z</time>
      </trkpt>
      <trkpt lat="42.727811" lon="0.183704">
        <ele>2097.2</ele>
        <time>2013-09-22T08:17:28Z</time>
      </trkpt>
      <trkpt lat="42.727836" lon="0.183589">
        <ele>2098.7</ele>
        <time>2013-09-22T08:17:39Z</time>
      </trkpt>
      <trkpt lat="42.727854" lon="0.183470">
        <ele>2101.1</ele>
        <time>2013-09-22T08:17:50Z</time>
      </trkpt>
      <trkpt lat="42.727886" lon="0.183360">
        <ele>2102.5</ele>
        <time>2013-09-22T08:18:01Z</time>
      </trkpt>
      <trkpt lat="42.727932" lon="0.183246">
        <ele>2104.5</ele>
        <time>2013-09-22T08:18:12Z</time>
      </trkpt>
      <trkpt lat="42.727979" lon="0.183143">
        <ele>2105.9</ele>
        <time>2013-09-22T08:18:24Z</time>
      </trkpt>
      <trkpt lat="42.728024" lon="0.183036">
        <ele>2106.9</ele>
        <time>2013-09-22T08:18:35Z</time>
      </trkpt>
      <trkpt lat="42.728071" lon="0.182943">
        <ele>2108.8</ele>
        <time>2013-09-22T08:18:46Z</time>
      </trkpt>
      <trkpt lat="42.728133" lon="0.182860">
        <ele>2110.2</ele>
        <time>2013-09-22T08:18:57Z</time>
      </trkpt>
      <trkpt lat="42.728214" lon="0.182803">
        <ele>2112.1</ele>
        <time>2013-09-22T08:19:09Z</time>
      </trkpt>
      <trkpt lat="42.728309" lon="0.182770">
        <ele>2113.6</ele>
        <time>2013-09-22T08:19:20Z</time>
      </trkpt>
      <trkpt lat="42.728409" lon="0.182742">
        <ele>2115.5</ele>
        <time>2013-09-22T08:19:32Z</time>
      </trkpt>
      <trkpt lat="42.728498" lon="0.182719">
        <ele>2117.4</ele>
        <time>2013-09-22T08:19:43Z</time>
      </trkpt>
      <trkpt lat="42.728592" lon="0.182690">
        <ele>2118.9</ele>
        <time>2013-09-22T08:19:55Z</time>
      </trkpt>
      <trkpt lat="42.728697" lon="0.182675">
        <ele>2121.3</ele>
        <time>2013-09-22T08:20:10Z</time>
      </trkpt>
      <trkpt lat="42.728772" lon="0.182622">
        <ele>2122.7</ele>
        <time>2013-09-22T08:20:24Z</time>
      </trkpt>
      <trkpt lat="42.728825" lon="0.182510">
        <ele>2124.6</ele>
        <time>2013-09-22T08:20:37Z</time>
      </trkpt>
      <trkpt lat="42.728883" lon="0.182410">
        <ele>2126.6</ele>
        <time>2013-09-22T08:20:49Z</time>
      </trkpt>
      <trkpt lat="42.728912" lon="0.182283">
        <ele>2128.0</ele>
        <time>2013-09-22T08:21:02Z</time>
      </trkpt>
      <trkpt lat="42.728932" lon="0.182163">
        <ele>2129.5</ele>
        <time>2013-09-22T08:21:12Z</time>
      </trkpt>
      <trkpt lat="42.728935" lon="0.182048">
        <ele>2130.4</ele>
        <time>2013-09-22T08:21:23Z</time>
      </trkpt>
      <trkpt lat="42.728965" lon="0.181951">
        <ele>2132.3</ele>
        <time>2013-09-22T08:21:35Z</time>
      </trkpt>
      <trkpt lat="42.728971" lon="0.181841">
        <ele>2133.8</ele>
        <time>2013-09-22T08:21:48Z</time>
      </trkpt>
      <trkpt lat="42.728977" lon="0.181715">
        <ele>2136.2</ele>
        <time>2013-09-22T08:22:01Z</time>
      </trkpt>
      <trkpt lat="42.728986" lon="0.181590">
        <ele>2137.6</ele>
        <time>2013-09-22T08:22:14Z</time>
      </trkpt>
      <trkpt lat="42.728990" lon="0.181482">
        <ele>2139.1</ele>
        <time>2013-09-22T08:22:26Z</time>
      </trkpt>
      <trkpt lat="42.728997" lon="0.181364">
        <ele>2140.5</ele>
        <time>2013-09-22T08:22:39Z</time>
      </trkpt>
      <trkpt lat="42.729053" lon="0.181321">
        <ele>2142.9</ele>
        <time>2013-09-22T08:22:52Z</time>
      </trkpt>
      <trkpt lat="42.729110" lon="0.181403">
        <ele>2143.9</ele>
        <time>2013-09-22T08:23:05Z</time>
      </trkpt>
      <trkpt lat="42.729186" lon="0.181492">
        <ele>2145.8</ele>
        <time>2013-09-22T08:23:20Z</time>
      </trkpt>
      <trkpt lat="42.729234" lon="0.181596">
        <ele>2147.2</ele>
        <time>2013-09-22T08:23:32Z</time>
      </trkpt>
      <trkpt lat="42.729304" lon="0.181693">
        <ele>2148.7</ele>
        <time>2013-09-22T08:23:44Z</time>
      </trkpt>
      <trkpt lat="42.729357" lon="0.181793">
        <ele>2149.6</ele>
        <time>2013-09-22T08:23:55Z</time>
      </trkpt>
      <trkpt lat="42.729445" lon="0.181773">
        <ele>2152.1</ele>
        <time>2013-09-22T08:24:11Z</time>
        <name>Bif. Port de Bielsa</name>
      </trkpt>
      <trkpt lat="42.729486" lon="0.181674">
        <ele>2154.9</ele>
        <time>2013-09-22T08:24:26Z</time>
      </trkpt>
      <trkpt lat="42.729553" lon="0.181595">
        <ele>2156.9</ele>
        <time>2013-09-22T08:25:04Z</time>
      </trkpt>
      <trkpt lat="42.729582" lon="0.181482">
        <ele>2158.8</ele>
        <time>2013-09-22T08:25:17Z</time>
      </trkpt>
      <trkpt lat="42.729620" lon="0.181370">
        <ele>2160.2</ele>
        <time>2013-09-22T08:25:29Z</time>
      </trkpt>
      <trkpt lat="42.729676" lon="0.181272">
        <ele>2161.7</ele>
        <time>2013-09-22T08:25:40Z</time>
      </trkpt>
      <trkpt lat="42.729720" lon="0.181159">
        <ele>2163.1</ele>
        <time>2013-09-22T08:25:51Z</time>
      </trkpt>
      <trkpt lat="42.729742" lon="0.181049">
        <ele>2164.1</ele>
        <time>2013-09-22T08:26:01Z</time>
      </trkpt>
      <trkpt lat="42.729743" lon="0.180928">
        <ele>2165.0</ele>
        <time>2013-09-22T08:26:11Z</time>
      </trkpt>
      <trkpt lat="42.729749" lon="0.180803">
        <ele>2166.9</ele>
        <time>2013-09-22T08:26:22Z</time>
      </trkpt>
      <trkpt lat="42.729789" lon="0.180693">
        <ele>2168.4</ele>
        <time>2013-09-22T08:26:34Z</time>
      </trkpt>
      <trkpt lat="42.729827" lon="0.180571">
        <ele>2170.8</ele>
        <time>2013-09-22T08:26:45Z</time>
      </trkpt>
      <trkpt lat="42.729886" lon="0.180481">
        <ele>2170.8</ele>
        <time>2013-09-22T08:26:55Z</time>
      </trkpt>
      <trkpt lat="42.729914" lon="0.180393">
        <ele>2173.2</ele>
        <time>2013-09-22T08:27:07Z</time>
      </trkpt>
      <trkpt lat="42.729888" lon="0.180284">
        <ele>2175.1</ele>
        <time>2013-09-22T08:27:20Z</time>
      </trkpt>
      <trkpt lat="42.729945" lon="0.180183">
        <ele>2176.1</ele>
        <time>2013-09-22T08:27:30Z</time>
      </trkpt>
      <trkpt lat="42.730002" lon="0.180094">
        <ele>2177.0</ele>
        <time>2013-09-22T08:27:39Z</time>
      </trkpt>
      <trkpt lat="42.730059" lon="0.179988">
        <ele>2178.0</ele>
        <time>2013-09-22T08:27:49Z</time>
      </trkpt>
      <trkpt lat="42.730097" lon="0.179879">
        <ele>2179.0</ele>
        <time>2013-09-22T08:28:00Z</time>
      </trkpt>
      <trkpt lat="42.730110" lon="0.179751">
        <ele>2179.9</ele>
        <time>2013-09-22T08:28:10Z</time>
      </trkpt>
      <trkpt lat="42.730142" lon="0.179624">
        <ele>2181.9</ele>
        <time>2013-09-22T08:28:20Z</time>
      </trkpt>
      <trkpt lat="42.730190" lon="0.179518">
        <ele>2182.8</ele>
        <time>2013-09-22T08:28:32Z</time>
      </trkpt>
      <trkpt lat="42.730235" lon="0.179404">
        <ele>2184.2</ele>
        <time>2013-09-22T08:28:42Z</time>
      </trkpt>
      <trkpt lat="42.730282" lon="0.179308">
        <ele>2185.7</ele>
        <time>2013-09-22T08:28:53Z</time>
      </trkpt>
      <trkpt lat="42.730352" lon="0.179239">
        <ele>2186.7</ele>
        <time>2013-09-22T08:29:03Z</time>
      </trkpt>
      <trkpt lat="42.730426" lon="0.179166">
        <ele>2187.1</ele>
        <time>2013-09-22T08:29:14Z</time>
      </trkpt>
      <trkpt lat="42.730495" lon="0.179062">
        <ele>2189.1</ele>
        <time>2013-09-22T08:29:25Z</time>
      </trkpt>
      <trkpt lat="42.730552" lon="0.178947">
        <ele>2191.0</ele>
        <time>2013-09-22T08:29:37Z</time>
      </trkpt>
      <trkpt lat="42.730605" lon="0.178852">
        <ele>2192.4</ele>
        <time>2013-09-22T08:29:49Z</time>
      </trkpt>
      <trkpt lat="42.730662" lon="0.178743">
        <ele>2194.8</ele>
        <time>2013-09-22T08:30:03Z</time>
      </trkpt>
      <trkpt lat="42.730717" lon="0.178632">
        <ele>2196.8</ele>
        <time>2013-09-22T08:30:14Z</time>
      </trkpt>
      <trkpt lat="42.730769" lon="0.178529">
        <ele>2198.7</ele>
        <time>2013-09-22T08:30:25Z</time>
      </trkpt>
      <trkpt lat="42.730816" lon="0.178423">
        <ele>2200.6</ele>
        <time>2013-09-22T08:30:37Z</time>
      </trkpt>
      <trkpt lat="42.730873" lon="0.178342">
        <ele>2202.5</ele>
        <time>2013-09-22T08:30:51Z</time>
      </trkpt>
      <trkpt lat="42.730923" lon="0.178228">
        <ele>2204.0</ele>
        <time>2013-09-22T08:31:02Z</time>
      </trkpt>
      <trkpt lat="42.730975" lon="0.178126">
        <ele>2205.4</ele>
        <time>2013-09-22T08:31:13Z</time>
      </trkpt>
      <trkpt lat="42.731037" lon="0.178051">
        <ele>2206.8</ele>
        <time>2013-09-22T08:31:24Z</time>
      </trkpt>
      <trkpt lat="42.731101" lon="0.177979">
        <ele>2208.3</ele>
        <time>2013-09-22T08:31:36Z</time>
      </trkpt>
      <trkpt lat="42.731152" lon="0.177861">
        <ele>2209.7</ele>
        <time>2013-09-22T08:31:48Z</time>
      </trkpt>
      <trkpt lat="42.731209" lon="0.177781">
        <ele>2212.1</ele>
        <time>2013-09-22T08:32:01Z</time>
      </trkpt>
      <trkpt lat="42.731271" lon="0.177708">
        <ele>2213.6</ele>
        <time>2013-09-22T08:32:13Z</time>
      </trkpt>
      <trkpt lat="42.731328" lon="0.177608">
        <ele>2215.0</ele>
        <time>2013-09-22T08:32:25Z</time>
      </trkpt>
      <trkpt lat="42.731399" lon="0.177519">
        <ele>2217.4</ele>
        <time>2013-09-22T08:32:40Z</time>
      </trkpt>
      <trkpt lat="42.731454" lon="0.177477">
        <ele>2218.9</ele>
        <time>2013-09-22T08:33:05Z</time>
      </trkpt>
      <trkpt lat="42.731495" lon="0.177461">
        <ele>2220.3</ele>
        <time>2013-09-22T08:33:46Z</time>
      </trkpt>
      <trkpt lat="42.731586" lon="0.177451">
        <ele>2221.7</ele>
        <time>2013-09-22T08:33:56Z</time>
      </trkpt>
      <trkpt lat="42.731691" lon="0.177470">
        <ele>2223.2</ele>
        <time>2013-09-22T08:34:07Z</time>
      </trkpt>
      <trkpt lat="42.731773" lon="0.177428">
        <ele>2226.1</ele>
        <time>2013-09-22T08:34:19Z</time>
      </trkpt>
      <trkpt lat="42.731810" lon="0.177322">
        <ele>2227.5</ele>
        <time>2013-09-22T08:34:30Z</time>
      </trkpt>
      <trkpt lat="42.731831" lon="0.177199">
        <ele>2229.9</ele>
        <time>2013-09-22T08:34:41Z</time>
      </trkpt>
      <trkpt lat="42.731872" lon="0.177077">
        <ele>2231.8</ele>
        <time>2013-09-22T08:34:52Z</time>
      </trkpt>
      <trkpt lat="42.731864" lon="0.176954">
        <ele>2234.2</ele>
        <time>2013-09-22T08:35:02Z</time>
      </trkpt>
      <trkpt lat="42.731874" lon="0.176830">
        <ele>2235.7</ele>
        <time>2013-09-22T08:35:13Z</time>
      </trkpt>
      <trkpt lat="42.731887" lon="0.176710">
        <ele>2238.6</ele>
        <time>2013-09-22T08:35:25Z</time>
      </trkpt>
      <trkpt lat="42.731936" lon="0.176606">
        <ele>2240.0</ele>
        <time>2013-09-22T08:35:36Z</time>
      </trkpt>
      <trkpt lat="42.731975" lon="0.176501">
        <ele>2242.4</ele>
        <time>2013-09-22T08:35:47Z</time>
      </trkpt>
      <trkpt lat="42.731985" lon="0.176376">
        <ele>2245.3</ele>
        <time>2013-09-22T08:35:59Z</time>
      </trkpt>
      <trkpt lat="42.732018" lon="0.176261">
        <ele>2247.7</ele>
        <time>2013-09-22T08:36:12Z</time>
      </trkpt>
      <trkpt lat="42.732051" lon="0.176144">
        <ele>2250.1</ele>
        <time>2013-09-22T08:36:24Z</time>
      </trkpt>
      <trkpt lat="42.732117" lon="0.176080">
        <ele>2252.5</ele>
        <time>2013-09-22T08:36:37Z</time>
      </trkpt>
      <trkpt lat="42.732152" lon="0.175972">
        <ele>2254.4</ele>
        <time>2013-09-22T08:36:49Z</time>
      </trkpt>
      <trkpt lat="42.732178" lon="0.175850">
        <ele>2256.4</ele>
        <time>2013-09-22T08:37:02Z</time>
      </trkpt>
      <trkpt lat="42.732198" lon="0.175731">
        <ele>2258.3</ele>
        <time>2013-09-22T08:37:15Z</time>
      </trkpt>
      <trkpt lat="42.732244" lon="0.175625">
        <ele>2260.2</ele>
        <time>2013-09-22T08:37:26Z</time>
      </trkpt>
      <trkpt lat="42.732309" lon="0.175543">
        <ele>2262.1</ele>
        <time>2013-09-22T08:37:37Z</time>
      </trkpt>
      <trkpt lat="42.732347" lon="0.175430">
        <ele>2264.0</ele>
        <time>2013-09-22T08:37:48Z</time>
      </trkpt>
      <trkpt lat="42.732380" lon="0.175311">
        <ele>2266.4</ele>
        <time>2013-09-22T08:38:00Z</time>
      </trkpt>
      <trkpt lat="42.732410" lon="0.175179">
        <ele>2267.4</ele>
        <time>2013-09-22T08:38:11Z</time>
      </trkpt>
      <trkpt lat="42.732414" lon="0.175060">
        <ele>2268.9</ele>
        <time>2013-09-22T08:38:20Z</time>
      </trkpt>
      <trkpt lat="42.732410" lon="0.174944">
        <ele>2270.8</ele>
        <time>2013-09-22T08:38:30Z</time>
      </trkpt>
      <trkpt lat="42.732394" lon="0.174817">
        <ele>2272.7</ele>
        <time>2013-09-22T08:38:42Z</time>
      </trkpt>
      <trkpt lat="42.732377" lon="0.174697">
        <ele>2275.6</ele>
        <time>2013-09-22T08:38:54Z</time>
      </trkpt>
      <trkpt lat="42.732466" lon="0.174716">
        <ele>2277.5</ele>
        <time>2013-09-22T08:39:07Z</time>
      </trkpt>
      <trkpt lat="42.732552" lon="0.174751">
        <ele>2278.0</ele>
        <time>2013-09-22T08:39:18Z</time>
      </trkpt>
      <trkpt lat="42.732627" lon="0.174808">
        <ele>2279.9</ele>
        <time>2013-09-22T08:39:30Z</time>
      </trkpt>
      <trkpt lat="42.732682" lon="0.174909">
        <ele>2280.9</ele>
        <time>2013-09-22T08:39:42Z</time>
      </trkpt>
      <trkpt lat="42.732744" lon="0.175018">
        <ele>2282.3</ele>
        <time>2013-09-22T08:39:54Z</time>
      </trkpt>
      <trkpt lat="42.732796" lon="0.175127">
        <ele>2283.3</ele>
        <time>2013-09-22T08:40:06Z</time>
      </trkpt>
      <trkpt lat="42.732831" lon="0.175248">
        <ele>2285.2</ele>
        <time>2013-09-22T08:40:17Z</time>
      </trkpt>
      <trkpt lat="42.732867" lon="0.175359">
        <ele>2286.1</ele>
        <time>2013-09-22T08:40:28Z</time>
      </trkpt>
      <trkpt lat="42.732891" lon="0.175477">
        <ele>2288.1</ele>
        <time>2013-09-22T08:40:38Z</time>
      </trkpt>
      <trkpt lat="42.732901" lon="0.175609">
        <ele>2289.0</ele>
        <time>2013-09-22T08:40:47Z</time>
      </trkpt>
      <trkpt lat="42.732932" lon="0.175730">
        <ele>2291.4</ele>
        <time>2013-09-22T08:40:55Z</time>
      </trkpt>
      <trkpt lat="42.732983" lon="0.175823">
        <ele>2293.4</ele>
        <time>2013-09-22T08:41:03Z</time>
      </trkpt>
      <trkpt lat="42.733011" lon="0.175728">
        <ele>2295.3</ele>
        <time>2013-09-22T08:41:12Z</time>
      </trkpt>
      <trkpt lat="42.733045" lon="0.175607">
        <ele>2298.2</ele>
        <time>2013-09-22T08:41:22Z</time>
      </trkpt>
      <trkpt lat="42.733072" lon="0.175495">
        <ele>2299.6</ele>
        <time>2013-09-22T08:41:32Z</time>
      </trkpt>
      <trkpt lat="42.733106" lon="0.175376">
        <ele>2301.1</ele>
        <time>2013-09-22T08:41:42Z</time>
      </trkpt>
      <trkpt lat="42.733122" lon="0.175248">
        <ele>2303.0</ele>
        <time>2013-09-22T08:41:52Z</time>
      </trkpt>
      <trkpt lat="42.733132" lon="0.175120">
        <ele>2305.9</ele>
        <time>2013-09-22T08:42:03Z</time>
      </trkpt>
      <trkpt lat="42.733157" lon="0.175001">
        <ele>2307.8</ele>
        <time>2013-09-22T08:42:13Z</time>
      </trkpt>
      <trkpt lat="42.733193" lon="0.174881">
        <ele>2310.2</ele>
        <time>2013-09-22T08:42:24Z</time>
      </trkpt>
      <trkpt lat="42.733203" lon="0.174761">
        <ele>2312.1</ele>
        <time>2013-09-22T08:42:35Z</time>
      </trkpt>
      <trkpt lat="42.733196" lon="0.174636">
        <ele>2314.0</ele>
        <time>2013-09-22T08:42:46Z</time>
      </trkpt>
      <trkpt lat="42.733192" lon="0.174502">
        <ele>2316.9</ele>
        <time>2013-09-22T08:42:57Z</time>
      </trkpt>
      <trkpt lat="42.733227" lon="0.174454">
        <ele>2319.3</ele>
        <time>2013-09-22T08:43:08Z</time>
      </trkpt>
      <trkpt lat="42.733283" lon="0.174548">
        <ele>2320.8</ele>
        <time>2013-09-22T08:43:18Z</time>
      </trkpt>
      <trkpt lat="42.733346" lon="0.174637">
        <ele>2322.7</ele>
        <time>2013-09-22T08:43:27Z</time>
      </trkpt>
      <trkpt lat="42.733408" lon="0.174733">
        <ele>2325.1</ele>
        <time>2013-09-22T08:43:36Z</time>
      </trkpt>
      <trkpt lat="42.733449" lon="0.174859">
        <ele>2327.0</ele>
        <time>2013-09-22T08:43:45Z</time>
      </trkpt>
      <trkpt lat="42.733491" lon="0.174970">
        <ele>2329.4</ele>
        <time>2013-09-22T08:43:55Z</time>
      </trkpt>
      <trkpt lat="42.733533" lon="0.175015">
        <ele>2331.3</ele>
        <time>2013-09-22T08:44:07Z</time>
      </trkpt>
      <trkpt lat="42.733565" lon="0.174908">
        <ele>2334.2</ele>
        <time>2013-09-22T08:44:19Z</time>
      </trkpt>
      <trkpt lat="42.733628" lon="0.174842">
        <ele>2338.1</ele>
        <time>2013-09-22T08:44:34Z</time>
      </trkpt>
      <trkpt lat="42.733622" lon="0.174713">
        <ele>2339.5</ele>
        <time>2013-09-22T08:44:44Z</time>
      </trkpt>
      <trkpt lat="42.733613" lon="0.174595">
        <ele>2341.4</ele>
        <time>2013-09-22T08:44:53Z</time>
      </trkpt>
      <trkpt lat="42.733603" lon="0.174467">
        <ele>2342.9</ele>
        <time>2013-09-22T08:45:03Z</time>
      </trkpt>
      <trkpt lat="42.733582" lon="0.174344">
        <ele>2343.8</ele>
        <time>2013-09-22T08:45:11Z</time>
      </trkpt>
      <trkpt lat="42.733568" lon="0.174212">
        <ele>2344.8</ele>
        <time>2013-09-22T08:45:20Z</time>
      </trkpt>
      <trkpt lat="42.733545" lon="0.174086">
        <ele>2345.8</ele>
        <time>2013-09-22T08:45:28Z</time>
      </trkpt>
      <trkpt lat="42.733518" lon="0.173962">
        <ele>2348.2</ele>
        <time>2013-09-22T08:45:37Z</time>
      </trkpt>
      <trkpt lat="42.733486" lon="0.173835">
        <ele>2348.6</ele>
        <time>2013-09-22T08:45:46Z</time>
      </trkpt>
      <trkpt lat="42.733455" lon="0.173703">
        <ele>2351.0</ele>
        <time>2013-09-22T08:45:57Z</time>
      </trkpt>
      <trkpt lat="42.733424" lon="0.173597">
        <ele>2352.5</ele>
        <time>2013-09-22T08:46:06Z</time>
      </trkpt>
      <trkpt lat="42.733394" lon="0.173478">
        <ele>2353.9</ele>
        <time>2013-09-22T08:46:15Z</time>
      </trkpt>
      <trkpt lat="42.733371" lon="0.173356">
        <ele>2355.9</ele>
        <time>2013-09-22T08:46:24Z</time>
      </trkpt>
      <trkpt lat="42.733335" lon="0.173226">
        <ele>2357.8</ele>
        <time>2013-09-22T08:46:33Z</time>
      </trkpt>
      <trkpt lat="42.733298" lon="0.173111">
        <ele>2359.7</ele>
        <time>2013-09-22T08:46:43Z</time>
      </trkpt>
      <trkpt lat="42.733265" lon="0.172987">
        <ele>2362.6</ele>
        <time>2013-09-22T08:46:53Z</time>
      </trkpt>
      <trkpt lat="42.733219" lon="0.172895">
        <ele>2365.0</ele>
        <time>2013-09-22T08:47:02Z</time>
      </trkpt>
      <trkpt lat="42.733259" lon="0.172878">
        <ele>2367.4</ele>
        <time>2013-09-22T08:47:12Z</time>
      </trkpt>
      <trkpt lat="42.733329" lon="0.172954">
        <ele>2368.4</ele>
        <time>2013-09-22T08:47:21Z</time>
      </trkpt>
      <trkpt lat="42.733398" lon="0.173028">
        <ele>2369.3</ele>
        <time>2013-09-22T08:47:31Z</time>
      </trkpt>
      <trkpt lat="42.733473" lon="0.173096">
        <ele>2371.2</ele>
        <time>2013-09-22T08:47:41Z</time>
      </trkpt>
      <trkpt lat="42.733533" lon="0.173128">
        <ele>2353.4</ele>
        <time>2013-09-22T08:47:55Z</time>
      </trkpt>
      <trkpt lat="42.733596" lon="0.173203">
        <ele>2350.8</ele>
        <time>2013-09-22T08:48:09Z</time>
      </trkpt>
      <trkpt lat="42.733663" lon="0.173286">
        <ele>2348.1</ele>
        <time>2013-09-22T08:48:38Z</time>
      </trkpt>
      <trkpt lat="42.733715" lon="0.173364">
        <ele>2347.0</ele>
        <time>2013-09-22T08:48:50Z</time>
      </trkpt>
      <trkpt lat="42.733768" lon="0.173459">
        <ele>2347.0</ele>
        <time>2013-09-22T08:48:59Z</time>
      </trkpt>
      <trkpt lat="42.733801" lon="0.173520">
        <ele>2347.6</ele>
        <time>2013-09-22T08:49:10Z</time>
        <name>Col de Port Vieux</name>
      </trkpt>
      <trkpt lat="42.733840" lon="0.173558">
        <ele>2378.0</ele>
        <time>2013-09-22T09:04:31Z</time>
      </trkpt>
      <trkpt lat="42.733832" lon="0.173454">
        <ele>2380.4</ele>
        <time>2013-09-22T09:04:49Z</time>
      </trkpt>
      <trkpt lat="42.733811" lon="0.173339">
        <ele>2382.3</ele>
        <time>2013-09-22T09:05:05Z</time>
      </trkpt>
      <trkpt lat="42.733771" lon="0.173241">
        <ele>2384.2</ele>
        <time>2013-09-22T09:05:18Z</time>
      </trkpt>
      <trkpt lat="42.733726" lon="0.173143">
        <ele>2385.2</ele>
        <time>2013-09-22T09:05:30Z</time>
      </trkpt>
      <trkpt lat="42.733680" lon="0.173040">
        <ele>2386.6</ele>
        <time>2013-09-22T09:05:42Z</time>
      </trkpt>
      <trkpt lat="42.733628" lon="0.172932">
        <ele>2388.5</ele>
        <time>2013-09-22T09:05:55Z</time>
      </trkpt>
      <trkpt lat="42.733573" lon="0.172828">
        <ele>2390.0</ele>
        <time>2013-09-22T09:06:07Z</time>
      </trkpt>
      <trkpt lat="42.733514" lon="0.172727">
        <ele>2391.4</ele>
        <time>2013-09-22T09:06:17Z</time>
      </trkpt>
      <trkpt lat="42.733456" lon="0.172621">
        <ele>2391.4</ele>
        <time>2013-09-22T09:06:27Z</time>
      </trkpt>
      <trkpt lat="42.733397" lon="0.172530">
        <ele>2392.9</ele>
        <time>2013-09-22T09:06:38Z</time>
      </trkpt>
      <trkpt lat="42.733337" lon="0.172425">
        <ele>2394.8</ele>
        <time>2013-09-22T09:06:51Z</time>
      </trkpt>
      <trkpt lat="42.733293" lon="0.172325">
        <ele>2397.7</ele>
        <time>2013-09-22T09:07:04Z</time>
      </trkpt>
      <trkpt lat="42.733266" lon="0.172203">
        <ele>2399.6</ele>
        <time>2013-09-22T09:07:17Z</time>
      </trkpt>
      <trkpt lat="42.733210" lon="0.172107">
        <ele>2401.0</ele>
        <time>2013-09-22T09:07:28Z</time>
      </trkpt>
      <trkpt lat="42.733160" lon="0.171968">
        <ele>2402.5</ele>
        <time>2013-09-22T09:07:39Z</time>
      </trkpt>
      <trkpt lat="42.733110" lon="0.171890">
        <ele>2404.4</ele>
        <time>2013-09-22T09:07:50Z</time>
      </trkpt>
      <trkpt lat="42.733070" lon="0.171761">
        <ele>2406.3</ele>
        <time>2013-09-22T09:08:01Z</time>
      </trkpt>
      <trkpt lat="42.733029" lon="0.171637">
        <ele>2407.3</ele>
        <time>2013-09-22T09:08:12Z</time>
      </trkpt>
      <trkpt lat="42.732967" lon="0.171571">
        <ele>2408.2</ele>
        <time>2013-09-22T09:08:27Z</time>
      </trkpt>
      <trkpt lat="42.732908" lon="0.171468">
        <ele>2410.2</ele>
        <time>2013-09-22T09:08:38Z</time>
      </trkpt>
      <trkpt lat="42.732849" lon="0.171358">
        <ele>2411.6</ele>
        <time>2013-09-22T09:08:49Z</time>
      </trkpt>
      <trkpt lat="42.732800" lon="0.171251">
        <ele>2412.6</ele>
        <time>2013-09-22T09:08:59Z</time>
      </trkpt>
      <trkpt lat="42.732739" lon="0.171155">
        <ele>2414.0</ele>
        <time>2013-09-22T09:09:09Z</time>
      </trkpt>
      <trkpt lat="42.732675" lon="0.171061">
        <ele>2414.5</ele>
        <time>2013-09-22T09:09:19Z</time>
      </trkpt>
      <trkpt lat="42.732614" lon="0.170967">
        <ele>2415.0</ele>
        <time>2013-09-22T09:09:29Z</time>
      </trkpt>
      <trkpt lat="42.732554" lon="0.170877">
        <ele>2416.4</ele>
        <time>2013-09-22T09:09:40Z</time>
      </trkpt>
      <trkpt lat="42.732499" lon="0.170756">
        <ele>2419.8</ele>
        <time>2013-09-22T09:09:54Z</time>
      </trkpt>
      <trkpt lat="42.732431" lon="0.170683">
        <ele>2422.7</ele>
        <time>2013-09-22T09:10:09Z</time>
      </trkpt>
      <trkpt lat="42.732368" lon="0.170605">
        <ele>2425.5</ele>
        <time>2013-09-22T09:10:24Z</time>
      </trkpt>
      <trkpt lat="42.732316" lon="0.170506">
        <ele>2428.4</ele>
        <time>2013-09-22T09:10:40Z</time>
      </trkpt>
      <trkpt lat="42.732274" lon="0.170412">
        <ele>2432.3</ele>
        <time>2013-09-22T09:10:57Z</time>
      </trkpt>
      <trkpt lat="42.732243" lon="0.170284">
        <ele>2435.6</ele>
        <time>2013-09-22T09:11:14Z</time>
      </trkpt>
      <trkpt lat="42.732203" lon="0.170197">
        <ele>2439.5</ele>
        <time>2013-09-22T09:11:33Z</time>
      </trkpt>
      <trkpt lat="42.732158" lon="0.170091">
        <ele>2443.8</ele>
        <time>2013-09-22T09:11:52Z</time>
      </trkpt>
      <trkpt lat="42.732097" lon="0.169987">
        <ele>2447.2</ele>
        <time>2013-09-22T09:12:10Z</time>
      </trkpt>
      <trkpt lat="42.732049" lon="0.169884">
        <ele>2450.1</ele>
        <time>2013-09-22T09:12:25Z</time>
      </trkpt>
      <trkpt lat="42.732010" lon="0.169769">
        <ele>2452.0</ele>
        <time>2013-09-22T09:12:40Z</time>
      </trkpt>
      <trkpt lat="42.731945" lon="0.169685">
        <ele>2454.4</ele>
        <time>2013-09-22T09:12:53Z</time>
      </trkpt>
      <trkpt lat="42.731878" lon="0.169601">
        <ele>2456.8</ele>
        <time>2013-09-22T09:13:07Z</time>
      </trkpt>
      <trkpt lat="42.731811" lon="0.169535">
        <ele>2458.7</ele>
        <time>2013-09-22T09:13:19Z</time>
      </trkpt>
      <trkpt lat="42.731741" lon="0.169444">
        <ele>2460.1</ele>
        <time>2013-09-22T09:13:31Z</time>
      </trkpt>
      <trkpt lat="42.731681" lon="0.169348">
        <ele>2461.1</ele>
        <time>2013-09-22T09:13:43Z</time>
      </trkpt>
      <trkpt lat="42.731622" lon="0.169254">
        <ele>2462.6</ele>
        <time>2013-09-22T09:13:56Z</time>
      </trkpt>
      <trkpt lat="42.731550" lon="0.169186">
        <ele>2464.0</ele>
        <time>2013-09-22T09:14:10Z</time>
      </trkpt>
      <trkpt lat="42.731494" lon="0.169083">
        <ele>2465.0</ele>
        <time>2013-09-22T09:14:18Z</time>
      </trkpt>
      <trkpt lat="42.731435" lon="0.168992">
        <ele>2466.9</ele>
        <time>2013-09-22T09:14:27Z</time>
      </trkpt>
      <trkpt lat="42.731388" lon="0.168890">
        <ele>2469.3</ele>
        <time>2013-09-22T09:14:37Z</time>
      </trkpt>
      <trkpt lat="42.731325" lon="0.168799">
        <ele>2471.7</ele>
        <time>2013-09-22T09:14:59Z</time>
      </trkpt>
      <trkpt lat="42.731265" lon="0.168706">
        <ele>2473.1</ele>
        <time>2013-09-22T09:15:09Z</time>
      </trkpt>
      <trkpt lat="42.731203" lon="0.168616">
        <ele>2474.6</ele>
        <time>2013-09-22T09:15:19Z</time>
      </trkpt>
      <trkpt lat="42.731161" lon="0.168514">
        <ele>2476.5</ele>
        <time>2013-09-22T09:15:30Z</time>
      </trkpt>
      <trkpt lat="42.731115" lon="0.168423">
        <ele>2477.9</ele>
        <time>2013-09-22T09:15:40Z</time>
      </trkpt>
      <trkpt lat="42.731078" lon="0.168315">
        <ele>2478.4</ele>
        <time>2013-09-22T09:15:50Z</time>
      </trkpt>
      <trkpt lat="42.731027" lon="0.168207">
        <ele>2478.4</ele>
        <time>2013-09-22T09:16:06Z</time>
      </trkpt>
      <trkpt lat="42.730962" lon="0.168143">
        <ele>2476.0</ele>
        <time>2013-09-22T09:16:23Z</time>
      </trkpt>
      <trkpt lat="42.730904" lon="0.168040">
        <ele>2473.1</ele>
        <time>2013-09-22T09:16:42Z</time>
      </trkpt>
      <trkpt lat="42.730863" lon="0.167940">
        <ele>2473.1</ele>
        <time>2013-09-22T09:16:52Z</time>
      </trkpt>
      <trkpt lat="42.730828" lon="0.167830">
        <ele>2474.1</ele>
        <time>2013-09-22T09:17:01Z</time>
      </trkpt>
      <trkpt lat="42.730789" lon="0.167708">
        <ele>2476.0</ele>
        <time>2013-09-22T09:17:12Z</time>
      </trkpt>
      <trkpt lat="42.730730" lon="0.167616">
        <ele>2479.4</ele>
        <time>2013-09-22T09:17:23Z</time>
      </trkpt>
      <trkpt lat="42.730655" lon="0.167565">
        <ele>2480.3</ele>
        <time>2013-09-22T09:17:31Z</time>
      </trkpt>
      <trkpt lat="42.730574" lon="0.167492">
        <ele>2480.8</ele>
        <time>2013-09-22T09:17:39Z</time>
      </trkpt>
      <trkpt lat="42.730493" lon="0.167442">
        <ele>2481.3</ele>
        <time>2013-09-22T09:17:46Z</time>
      </trkpt>
      <trkpt lat="42.730411" lon="0.167383">
        <ele>2483.7</ele>
        <time>2013-09-22T09:17:55Z</time>
      </trkpt>
      <trkpt lat="42.730314" lon="0.167381">
        <ele>2484.7</ele>
        <time>2013-09-22T09:18:06Z</time>
      </trkpt>
      <trkpt lat="42.730229" lon="0.167345">
        <ele>2486.1</ele>
        <time>2013-09-22T09:18:16Z</time>
      </trkpt>
      <trkpt lat="42.730141" lon="0.167283">
        <ele>2487.6</ele>
        <time>2013-09-22T09:18:26Z</time>
      </trkpt>
      <trkpt lat="42.730050" lon="0.167232">
        <ele>2489.0</ele>
        <time>2013-09-22T09:18:35Z</time>
      </trkpt>
      <trkpt lat="42.729964" lon="0.167185">
        <ele>2488.0</ele>
        <time>2013-09-22T09:18:44Z</time>
      </trkpt>
      <trkpt lat="42.729893" lon="0.167116">
        <ele>2488.0</ele>
        <time>2013-09-22T09:19:14Z</time>
      </trkpt>
      <trkpt lat="42.729814" lon="0.167026">
        <ele>2488.0</ele>
        <time>2013-09-22T09:19:20Z</time>
      </trkpt>
      <trkpt lat="42.729745" lon="0.166921">
        <ele>2488.5</ele>
        <time>2013-09-22T09:19:26Z</time>
      </trkpt>
      <trkpt lat="42.729680" lon="0.166820">
        <ele>2488.0</ele>
        <time>2013-09-22T09:19:33Z</time>
      </trkpt>
      <trkpt lat="42.729625" lon="0.166706">
        <ele>2488.5</ele>
        <time>2013-09-22T09:19:40Z</time>
      </trkpt>
      <trkpt lat="42.729557" lon="0.166611">
        <ele>2489.9</ele>
        <time>2013-09-22T09:19:47Z</time>
      </trkpt>
      <trkpt lat="42.729486" lon="0.166540">
        <ele>2490.4</ele>
        <time>2013-09-22T09:19:54Z</time>
      </trkpt>
      <trkpt lat="42.729424" lon="0.166430">
        <ele>2490.9</ele>
        <time>2013-09-22T09:20:01Z</time>
      </trkpt>
      <trkpt lat="42.729345" lon="0.166371">
        <ele>2492.8</ele>
        <time>2013-09-22T09:20:08Z</time>
      </trkpt>
      <trkpt lat="42.729257" lon="0.166331">
        <ele>2493.8</ele>
        <time>2013-09-22T09:20:17Z</time>
      </trkpt>
      <trkpt lat="42.729161" lon="0.166330">
        <ele>2495.7</ele>
        <time>2013-09-22T09:20:27Z</time>
      </trkpt>
      <trkpt lat="42.729059" lon="0.166310">
        <ele>2497.6</ele>
        <time>2013-09-22T09:20:36Z</time>
      </trkpt>
      <trkpt lat="42.729034" lon="0.166311">
        <ele>2499.6</ele>
        <time>2013-09-22T09:26:33Z</time>
      </trkpt>
      <trkpt lat="42.728935" lon="0.166317">
        <ele>2502.4</ele>
        <time>2013-09-22T09:26:52Z</time>
      </trkpt>
      <trkpt lat="42.728764" lon="0.166245">
        <ele>2512.1</ele>
        <time>2013-09-22T09:27:59Z</time>
      </trkpt>
      <trkpt lat="42.728704" lon="0.166224">
        <ele>2515.4</ele>
        <time>2013-09-22T09:28:13Z</time>
      </trkpt>
      <trkpt lat="42.728637" lon="0.166173">
        <ele>2518.3</ele>
        <time>2013-09-22T09:28:27Z</time>
      </trkpt>
      <trkpt lat="42.728557" lon="0.166119">
        <ele>2519.8</ele>
        <time>2013-09-22T09:28:37Z</time>
      </trkpt>
      <trkpt lat="42.728478" lon="0.166068">
        <ele>2522.2</ele>
        <time>2013-09-22T09:28:51Z</time>
      </trkpt>
      <trkpt lat="42.728388" lon="0.166014">
        <ele>2524.6</ele>
        <time>2013-09-22T09:29:06Z</time>
      </trkpt>
      <trkpt lat="42.728317" lon="0.165968">
        <ele>2528.4</ele>
        <time>2013-09-22T09:29:25Z</time>
      </trkpt>
      <trkpt lat="42.728247" lon="0.165909">
        <ele>2532.2</ele>
        <time>2013-09-22T09:29:45Z</time>
      </trkpt>
      <trkpt lat="42.728273" lon="0.165793">
        <ele>2535.6</ele>
        <time>2013-09-22T09:30:02Z</time>
      </trkpt>
      <trkpt lat="42.728280" lon="0.165695">
        <ele>2539.0</ele>
        <time>2013-09-22T09:30:22Z</time>
      </trkpt>
      <trkpt lat="42.728302" lon="0.165624">
        <ele>2543.3</ele>
        <time>2013-09-22T09:30:48Z</time>
      </trkpt>
      <trkpt lat="42.728309" lon="0.165558">
        <ele>2544.8</ele>
        <time>2013-09-22T09:34:07Z</time>
      </trkpt>
      <trkpt lat="42.728374" lon="0.165488">
        <ele>2548.1</ele>
        <time>2013-09-22T09:34:29Z</time>
      </trkpt>
      <trkpt lat="42.728428" lon="0.165409">
        <ele>2550.5</ele>
        <time>2013-09-22T09:34:48Z</time>
      </trkpt>
      <trkpt lat="42.728488" lon="0.165342">
        <ele>2553.4</ele>
        <time>2013-09-22T09:35:09Z</time>
      </trkpt>
      <trkpt lat="42.728561" lon="0.165252">
        <ele>2557.2</ele>
        <time>2013-09-22T09:35:32Z</time>
      </trkpt>
      <trkpt lat="42.728530" lon="0.165180">
        <ele>2562.1</ele>
        <time>2013-09-22T09:36:17Z</time>
      </trkpt>
      <trkpt lat="42.728475" lon="0.165103">
        <ele>2566.9</ele>
        <time>2013-09-22T09:36:39Z</time>
      </trkpt>
      <trkpt lat="42.728515" lon="0.164990">
        <ele>2570.2</ele>
        <time>2013-09-22T09:37:01Z</time>
      </trkpt>
      <trkpt lat="42.728580" lon="0.164919">
        <ele>2572.1</ele>
        <time>2013-09-22T09:37:13Z</time>
      </trkpt>
      <trkpt lat="42.728598" lon="0.164822">
        <ele>2577.4</ele>
        <time>2013-09-22T09:37:33Z</time>
      </trkpt>
      <trkpt lat="42.728569" lon="0.164754">
        <ele>2580.8</ele>
        <time>2013-09-22T09:37:50Z</time>
      </trkpt>
      <trkpt lat="42.728491" lon="0.164756">
        <ele>2584.6</ele>
        <time>2013-09-22T09:38:12Z</time>
      </trkpt>
      <trkpt lat="42.728439" lon="0.164679">
        <ele>2589.4</ele>
        <time>2013-09-22T09:38:39Z</time>
      </trkpt>
      <trkpt lat="42.728399" lon="0.164606">
        <ele>2594.7</ele>
        <time>2013-09-22T09:39:04Z</time>
      </trkpt>
      <trkpt lat="42.728350" lon="0.164535">
        <ele>2598.1</ele>
        <time>2013-09-22T09:39:23Z</time>
      </trkpt>
      <trkpt lat="42.728293" lon="0.164466">
        <ele>2601.5</ele>
        <time>2013-09-22T09:39:40Z</time>
      </trkpt>
      <trkpt lat="42.728241" lon="0.164373">
        <ele>2605.3</ele>
        <time>2013-09-22T09:39:57Z</time>
      </trkpt>
      <trkpt lat="42.728240" lon="0.164305">
        <ele>2609.2</ele>
        <time>2013-09-22T09:40:16Z</time>
      </trkpt>
      <trkpt lat="42.728295" lon="0.164267">
        <ele>2612.0</ele>
        <time>2013-09-22T09:40:30Z</time>
      </trkpt>
      <trkpt lat="42.728354" lon="0.164208">
        <ele>2616.4</ele>
        <time>2013-09-22T09:40:54Z</time>
      </trkpt>
      <trkpt lat="42.728429" lon="0.164156">
        <ele>2619.7</ele>
        <time>2013-09-22T09:41:14Z</time>
      </trkpt>
      <trkpt lat="42.728519" lon="0.164126">
        <ele>2620.7</ele>
        <time>2013-09-22T09:41:25Z</time>
      </trkpt>
      <trkpt lat="42.728595" lon="0.164084">
        <ele>2623.6</ele>
        <time>2013-09-22T09:41:38Z</time>
      </trkpt>
      <trkpt lat="42.728680" lon="0.164046">
        <ele>2625.0</ele>
        <time>2013-09-22T09:41:51Z</time>
      </trkpt>
      <trkpt lat="42.728758" lon="0.163999">
        <ele>2627.9</ele>
        <time>2013-09-22T09:42:05Z</time>
      </trkpt>
      <trkpt lat="42.728720" lon="0.163932">
        <ele>2632.2</ele>
        <time>2013-09-22T09:42:21Z</time>
      </trkpt>
      <trkpt lat="42.728724" lon="0.163838">
        <ele>2637.5</ele>
        <time>2013-09-22T09:42:48Z</time>
      </trkpt>
      <trkpt lat="42.728681" lon="0.163787">
        <ele>2640.9</ele>
        <time>2013-09-22T09:43:07Z</time>
      </trkpt>
      <trkpt lat="42.728605" lon="0.163743">
        <ele>2643.8</ele>
        <time>2013-09-22T09:43:22Z</time>
      </trkpt>
      <trkpt lat="42.728528" lon="0.163669">
        <ele>2647.1</ele>
        <time>2013-09-22T09:43:53Z</time>
      </trkpt>
      <trkpt lat="42.728578" lon="0.163607">
        <ele>2651.0</ele>
        <time>2013-09-22T09:44:08Z</time>
      </trkpt>
      <trkpt lat="42.728672" lon="0.163594">
        <ele>2652.4</ele>
        <time>2013-09-22T09:44:21Z</time>
      </trkpt>
      <trkpt lat="42.728767" lon="0.163571">
        <ele>2656.3</ele>
        <time>2013-09-22T09:44:37Z</time>
      </trkpt>
      <trkpt lat="42.728859" lon="0.163532">
        <ele>2659.6</ele>
        <time>2013-09-22T09:44:54Z</time>
      </trkpt>
      <trkpt lat="42.728949" lon="0.163509">
        <ele>2662.0</ele>
        <time>2013-09-22T09:45:10Z</time>
      </trkpt>
      <trkpt lat="42.729046" lon="0.163508">
        <ele>2664.9</ele>
        <time>2013-09-22T09:45:23Z</time>
      </trkpt>
      <trkpt lat="42.729062" lon="0.163451">
        <ele>2667.3</ele>
        <time>2013-09-22T09:45:37Z</time>
      </trkpt>
      <trkpt lat="42.729006" lon="0.163356">
        <ele>2670.2</ele>
        <time>2013-09-22T09:45:51Z</time>
      </trkpt>
      <trkpt lat="42.728950" lon="0.163272">
        <ele>2673.6</ele>
        <time>2013-09-22T09:46:04Z</time>
      </trkpt>
      <trkpt lat="42.728876" lon="0.163215">
        <ele>2676.0</ele>
        <time>2013-09-22T09:46:19Z</time>
      </trkpt>
      <trkpt lat="42.728811" lon="0.163153">
        <ele>2678.9</ele>
        <time>2013-09-22T09:46:57Z</time>
      </trkpt>
      <trkpt lat="42.728750" lon="0.163091">
        <ele>2680.8</ele>
        <time>2013-09-22T09:47:32Z</time>
      </trkpt>
      <trkpt lat="42.728691" lon="0.163007">
        <ele>2683.2</ele>
        <time>2013-09-22T09:47:46Z</time>
      </trkpt>
      <trkpt lat="42.728676" lon="0.162913">
        <ele>2688.5</ele>
        <time>2013-09-22T09:48:10Z</time>
      </trkpt>
      <trkpt lat="42.728595" lon="0.162848">
        <ele>2692.3</ele>
        <time>2013-09-22T09:48:35Z</time>
      </trkpt>
      <trkpt lat="42.728573" lon="0.162774">
        <ele>2697.1</ele>
        <time>2013-09-22T09:48:56Z</time>
      </trkpt>
      <trkpt lat="42.728572" lon="0.162715">
        <ele>2700.0</ele>
        <time>2013-09-22T09:49:26Z</time>
      </trkpt>
      <trkpt lat="42.728491" lon="0.162670">
        <ele>2704.8</ele>
        <time>2013-09-22T09:49:47Z</time>
      </trkpt>
      <trkpt lat="42.728413" lon="0.162605">
        <ele>2708.6</ele>
        <time>2013-09-22T09:50:00Z</time>
      </trkpt>
      <trkpt lat="42.728334" lon="0.162542">
        <ele>2710.1</ele>
        <time>2013-09-22T09:50:11Z</time>
      </trkpt>
      <trkpt lat="42.728261" lon="0.162485">
        <ele>2712.0</ele>
        <time>2013-09-22T09:50:22Z</time>
      </trkpt>
      <trkpt lat="42.728181" lon="0.162420">
        <ele>2713.9</ele>
        <time>2013-09-22T09:50:35Z</time>
      </trkpt>
      <trkpt lat="42.728101" lon="0.162365">
        <ele>2716.3</ele>
        <time>2013-09-22T09:50:46Z</time>
      </trkpt>
      <trkpt lat="42.728023" lon="0.162305">
        <ele>2717.8</ele>
        <time>2013-09-22T09:50:59Z</time>
      </trkpt>
      <trkpt lat="42.728011" lon="0.162311">
        <ele>2717.3</ele>
        <time>2013-09-22T09:52:37Z</time>
      </trkpt>
      <trkpt lat="42.728023" lon="0.162285">
        <ele>2719.7</ele>
        <time>2013-09-22T10:02:34Z</time>
      </trkpt>
      <trkpt lat="42.728011" lon="0.162314">
        <ele>2720.2</ele>
        <time>2013-09-22T10:02:56Z</time>
      </trkpt>
      <trkpt lat="42.727978" lon="0.162258">
        <ele>2720.2</ele>
        <time>2013-09-22T10:03:30Z</time>
      </trkpt>
      <trkpt lat="42.727949" lon="0.162166">
        <ele>2716.3</ele>
        <time>2013-09-22T10:03:47Z</time>
        <name>Pic de Port Vieux</name>
      </trkpt>
      <trkpt lat="42.727850" lon="0.162164">
        <ele>2713.9</ele>
        <time>2013-09-22T10:04:11Z</time>
      </trkpt>
      <trkpt lat="42.727758" lon="0.162161">
        <ele>2711.5</ele>
        <time>2013-09-22T10:04:24Z</time>
      </trkpt>
      <trkpt lat="42.727670" lon="0.162141">
        <ele>2709.6</ele>
        <time>2013-09-22T10:04:35Z</time>
      </trkpt>
      <trkpt lat="42.727585" lon="0.162106">
        <ele>2706.7</ele>
        <time>2013-09-22T10:04:48Z</time>
      </trkpt>
      <trkpt lat="42.727488" lon="0.162110">
        <ele>2705.3</ele>
        <time>2013-09-22T10:04:58Z</time>
      </trkpt>
      <trkpt lat="42.727396" lon="0.162111">
        <ele>2704.8</ele>
        <time>2013-09-22T10:05:08Z</time>
      </trkpt>
      <trkpt lat="42.727298" lon="0.162100">
        <ele>2703.4</ele>
        <time>2013-09-22T10:05:18Z</time>
      </trkpt>
      <trkpt lat="42.727206" lon="0.162097">
        <ele>2702.4</ele>
        <time>2013-09-22T10:05:28Z</time>
      </trkpt>
      <trkpt lat="42.727114" lon="0.162083">
        <ele>2701.0</ele>
        <time>2013-09-22T10:05:38Z</time>
      </trkpt>
      <trkpt lat="42.727016" lon="0.162056">
        <ele>2700.0</ele>
        <time>2013-09-22T10:05:48Z</time>
      </trkpt>
      <trkpt lat="42.726933" lon="0.162079">
        <ele>2698.1</ele>
        <time>2013-09-22T10:05:58Z</time>
      </trkpt>
      <trkpt lat="42.726881" lon="0.162062">
        <ele>2697.6</ele>
        <time>2013-09-22T10:06:57Z</time>
      </trkpt>
      <trkpt lat="42.726863" lon="0.162102">
        <ele>2697.6</ele>
        <time>2013-09-22T10:08:06Z</time>
      </trkpt>
      <trkpt lat="42.726805" lon="0.162149">
        <ele>2696.6</ele>
        <time>2013-09-22T10:08:29Z</time>
      </trkpt>
      <trkpt lat="42.726728" lon="0.162122">
        <ele>2693.3</ele>
        <time>2013-09-22T10:08:49Z</time>
      </trkpt>
      <trkpt lat="42.726677" lon="0.162057">
        <ele>2690.9</ele>
        <time>2013-09-22T10:09:37Z</time>
      </trkpt>
      <trkpt lat="42.726601" lon="0.162090">
        <ele>2687.5</ele>
        <time>2013-09-22T10:09:50Z</time>
      </trkpt>
      <trkpt lat="42.726524" lon="0.162113">
        <ele>2684.1</ele>
        <time>2013-09-22T10:10:01Z</time>
      </trkpt>
      <trkpt lat="42.726436" lon="0.162067">
        <ele>2682.2</ele>
        <time>2013-09-22T10:10:11Z</time>
      </trkpt>
      <trkpt lat="42.726340" lon="0.162068">
        <ele>2679.3</ele>
        <time>2013-09-22T10:10:20Z</time>
      </trkpt>
      <trkpt lat="42.726246" lon="0.162103">
        <ele>2678.4</ele>
        <time>2013-09-22T10:10:31Z</time>
      </trkpt>
      <trkpt lat="42.726152" lon="0.162130">
        <ele>2676.4</ele>
        <time>2013-09-22T10:10:42Z</time>
      </trkpt>
      <trkpt lat="42.726062" lon="0.162166">
        <ele>2675.0</ele>
        <time>2013-09-22T10:10:52Z</time>
      </trkpt>
      <trkpt lat="42.726008" lon="0.162270">
        <ele>2673.1</ele>
        <time>2013-09-22T10:11:02Z</time>
      </trkpt>
      <trkpt lat="42.725935" lon="0.162310">
        <ele>2670.7</ele>
        <time>2013-09-22T10:11:11Z</time>
      </trkpt>
      <trkpt lat="42.725856" lon="0.162324">
        <ele>2668.8</ele>
        <time>2013-09-22T10:11:19Z</time>
      </trkpt>
      <trkpt lat="42.725823" lon="0.162255">
        <ele>2666.8</ele>
        <time>2013-09-22T10:11:30Z</time>
      </trkpt>
      <trkpt lat="42.725746" lon="0.162264">
        <ele>2663.0</ele>
        <time>2013-09-22T10:11:40Z</time>
      </trkpt>
      <trkpt lat="42.725647" lon="0.162281">
        <ele>2660.6</ele>
        <time>2013-09-22T10:11:50Z</time>
      </trkpt>
      <trkpt lat="42.725549" lon="0.162321">
        <ele>2658.2</ele>
        <time>2013-09-22T10:11:59Z</time>
      </trkpt>
      <trkpt lat="42.725459" lon="0.162334">
        <ele>2656.3</ele>
        <time>2013-09-22T10:12:08Z</time>
      </trkpt>
      <trkpt lat="42.725361" lon="0.162347">
        <ele>2653.9</ele>
        <time>2013-09-22T10:12:17Z</time>
      </trkpt>
      <trkpt lat="42.725271" lon="0.162345">
        <ele>2651.9</ele>
        <time>2013-09-22T10:12:25Z</time>
      </trkpt>
      <trkpt lat="42.725176" lon="0.162379">
        <ele>2651.4</ele>
        <time>2013-09-22T10:12:34Z</time>
      </trkpt>
      <trkpt lat="42.725085" lon="0.162405">
        <ele>2650.5</ele>
        <time>2013-09-22T10:12:43Z</time>
      </trkpt>
      <trkpt lat="42.724995" lon="0.162412">
        <ele>2650.0</ele>
        <time>2013-09-22T10:12:52Z</time>
      </trkpt>
      <trkpt lat="42.724897" lon="0.162432">
        <ele>2650.5</ele>
        <time>2013-09-22T10:13:02Z</time>
      </trkpt>
      <trkpt lat="42.724810" lon="0.162486">
        <ele>2651.9</ele>
        <time>2013-09-22T10:13:12Z</time>
      </trkpt>
      <trkpt lat="42.724721" lon="0.162537">
        <ele>2653.4</ele>
        <time>2013-09-22T10:13:24Z</time>
      </trkpt>
      <trkpt lat="42.724623" lon="0.162564">
        <ele>2654.3</ele>
        <time>2013-09-22T10:13:34Z</time>
      </trkpt>
      <trkpt lat="42.724537" lon="0.162602">
        <ele>2655.8</ele>
        <time>2013-09-22T10:13:46Z</time>
      </trkpt>
      <trkpt lat="42.724452" lon="0.162622">
        <ele>2656.7</ele>
        <time>2013-09-22T10:13:58Z</time>
      </trkpt>
      <trkpt lat="42.724366" lon="0.162624">
        <ele>2658.2</ele>
        <time>2013-09-22T10:14:09Z</time>
      </trkpt>
      <trkpt lat="42.724268" lon="0.162626">
        <ele>2660.1</ele>
        <time>2013-09-22T10:14:21Z</time>
      </trkpt>
      <trkpt lat="42.724174" lon="0.162623">
        <ele>2661.1</ele>
        <time>2013-09-22T10:14:32Z</time>
      </trkpt>
      <trkpt lat="42.724085" lon="0.162594">
        <ele>2663.5</ele>
        <time>2013-09-22T10:14:46Z</time>
      </trkpt>
      <trkpt lat="42.723987" lon="0.162605">
        <ele>2664.9</ele>
        <time>2013-09-22T10:14:57Z</time>
      </trkpt>
      <trkpt lat="42.723900" lon="0.162605">
        <ele>2665.9</ele>
        <time>2013-09-22T10:15:09Z</time>
      </trkpt>
      <trkpt lat="42.723805" lon="0.162590">
        <ele>2667.3</ele>
        <time>2013-09-22T10:15:19Z</time>
      </trkpt>
      <trkpt lat="42.723718" lon="0.162576">
        <ele>2667.8</ele>
        <time>2013-09-22T10:15:30Z</time>
      </trkpt>
      <trkpt lat="42.723630" lon="0.162582">
        <ele>2668.3</ele>
        <time>2013-09-22T10:15:40Z</time>
      </trkpt>
      <trkpt lat="42.723534" lon="0.162582">
        <ele>2668.8</ele>
        <time>2013-09-22T10:15:50Z</time>
      </trkpt>
      <trkpt lat="42.723439" lon="0.162572">
        <ele>2669.2</ele>
        <time>2013-09-22T10:16:00Z</time>
      </trkpt>
      <trkpt lat="42.723346" lon="0.162527">
        <ele>2669.7</ele>
        <time>2013-09-22T10:16:09Z</time>
      </trkpt>
      <trkpt lat="42.723251" lon="0.162496">
        <ele>2669.2</ele>
        <time>2013-09-22T10:16:18Z</time>
      </trkpt>
      <trkpt lat="42.723164" lon="0.162488">
        <ele>2668.3</ele>
        <time>2013-09-22T10:16:26Z</time>
      </trkpt>
      <trkpt lat="42.723068" lon="0.162502">
        <ele>2668.8</ele>
        <time>2013-09-22T10:16:34Z</time>
      </trkpt>
      <trkpt lat="42.722984" lon="0.162508">
        <ele>2668.8</ele>
        <time>2013-09-22T10:16:42Z</time>
      </trkpt>
      <trkpt lat="42.722889" lon="0.162512">
        <ele>2668.8</ele>
        <time>2013-09-22T10:16:50Z</time>
      </trkpt>
      <trkpt lat="42.722790" lon="0.162524">
        <ele>2667.8</ele>
        <time>2013-09-22T10:16:58Z</time>
      </trkpt>
      <trkpt lat="42.722697" lon="0.162528">
        <ele>2667.8</ele>
        <time>2013-09-22T10:17:06Z</time>
      </trkpt>
      <trkpt lat="42.722605" lon="0.162534">
        <ele>2667.3</ele>
        <time>2013-09-22T10:17:13Z</time>
      </trkpt>
      <trkpt lat="42.722511" lon="0.162569">
        <ele>2667.3</ele>
        <time>2013-09-22T10:17:21Z</time>
      </trkpt>
      <trkpt lat="42.722417" lon="0.162611">
        <ele>2667.3</ele>
        <time>2013-09-22T10:17:29Z</time>
      </trkpt>
      <trkpt lat="42.722318" lon="0.162644">
        <ele>2667.8</ele>
        <time>2013-09-22T10:17:37Z</time>
      </trkpt>
      <trkpt lat="42.722234" lon="0.162685">
        <ele>2668.8</ele>
        <time>2013-09-22T10:17:45Z</time>
      </trkpt>
      <trkpt lat="42.722156" lon="0.162743">
        <ele>2669.2</ele>
        <time>2013-09-22T10:17:53Z</time>
      </trkpt>
      <trkpt lat="42.722080" lon="0.162806">
        <ele>2668.8</ele>
        <time>2013-09-22T10:18:01Z</time>
      </trkpt>
      <trkpt lat="42.721988" lon="0.162871">
        <ele>2669.7</ele>
        <time>2013-09-22T10:18:10Z</time>
      </trkpt>
      <trkpt lat="42.721906" lon="0.162928">
        <ele>2670.2</ele>
        <time>2013-09-22T10:18:19Z</time>
      </trkpt>
      <trkpt lat="42.721832" lon="0.162995">
        <ele>2670.7</ele>
        <time>2013-09-22T10:18:28Z</time>
      </trkpt>
      <trkpt lat="42.721757" lon="0.163082">
        <ele>2671.2</ele>
        <time>2013-09-22T10:18:37Z</time>
      </trkpt>
      <trkpt lat="42.721688" lon="0.163165">
        <ele>2669.7</ele>
        <time>2013-09-22T10:18:45Z</time>
      </trkpt>
      <trkpt lat="42.721606" lon="0.163231">
        <ele>2669.7</ele>
        <time>2013-09-22T10:18:53Z</time>
      </trkpt>
      <trkpt lat="42.721533" lon="0.163310">
        <ele>2669.7</ele>
        <time>2013-09-22T10:19:01Z</time>
      </trkpt>
      <trkpt lat="42.721461" lon="0.163380">
        <ele>2670.2</ele>
        <time>2013-09-22T10:19:09Z</time>
      </trkpt>
      <trkpt lat="42.721381" lon="0.163437">
        <ele>2671.2</ele>
        <time>2013-09-22T10:19:18Z</time>
      </trkpt>
      <trkpt lat="42.721297" lon="0.163495">
        <ele>2671.6</ele>
        <time>2013-09-22T10:19:27Z</time>
      </trkpt>
      <trkpt lat="42.721212" lon="0.163554">
        <ele>2672.1</ele>
        <time>2013-09-22T10:19:36Z</time>
      </trkpt>
      <trkpt lat="42.721134" lon="0.163630">
        <ele>2673.1</ele>
        <time>2013-09-22T10:19:45Z</time>
      </trkpt>
      <trkpt lat="42.721079" lon="0.163716">
        <ele>2674.5</ele>
        <time>2013-09-22T10:19:54Z</time>
      </trkpt>
      <trkpt lat="42.721005" lon="0.163792">
        <ele>2674.0</ele>
        <time>2013-09-22T10:20:02Z</time>
      </trkpt>
      <trkpt lat="42.720920" lon="0.163848">
        <ele>2674.5</ele>
        <time>2013-09-22T10:20:11Z</time>
      </trkpt>
      <trkpt lat="42.720841" lon="0.163909">
        <ele>2675.5</ele>
        <time>2013-09-22T10:20:20Z</time>
      </trkpt>
      <trkpt lat="42.720762" lon="0.163969">
        <ele>2676.0</ele>
        <time>2013-09-22T10:20:29Z</time>
      </trkpt>
      <trkpt lat="42.720676" lon="0.164031">
        <ele>2676.4</ele>
        <time>2013-09-22T10:20:38Z</time>
      </trkpt>
      <trkpt lat="42.720596" lon="0.164094">
        <ele>2676.4</ele>
        <time>2013-09-22T10:20:48Z</time>
      </trkpt>
      <trkpt lat="42.720516" lon="0.164179">
        <ele>2677.9</ele>
        <time>2013-09-22T10:20:59Z</time>
      </trkpt>
      <trkpt lat="42.720440" lon="0.164238">
        <ele>2679.3</ele>
        <time>2013-09-22T10:21:10Z</time>
      </trkpt>
      <trkpt lat="42.720377" lon="0.164305">
        <ele>2680.8</ele>
        <time>2013-09-22T10:21:21Z</time>
      </trkpt>
      <trkpt lat="42.720302" lon="0.164381">
        <ele>2681.2</ele>
        <time>2013-09-22T10:21:32Z</time>
      </trkpt>
      <trkpt lat="42.720229" lon="0.164460">
        <ele>2682.2</ele>
        <time>2013-09-22T10:21:43Z</time>
      </trkpt>
      <trkpt lat="42.720168" lon="0.164542">
        <ele>2683.7</ele>
        <time>2013-09-22T10:21:55Z</time>
      </trkpt>
      <trkpt lat="42.720106" lon="0.164637">
        <ele>2685.1</ele>
        <time>2013-09-22T10:22:07Z</time>
      </trkpt>
      <trkpt lat="42.720053" lon="0.164731">
        <ele>2687.0</ele>
        <time>2013-09-22T10:22:18Z</time>
      </trkpt>
      <trkpt lat="42.720024" lon="0.164836">
        <ele>2688.5</ele>
        <time>2013-09-22T10:22:31Z</time>
      </trkpt>
      <trkpt lat="42.719987" lon="0.164944">
        <ele>2689.9</ele>
        <time>2013-09-22T10:22:44Z</time>
      </trkpt>
      <trkpt lat="42.719941" lon="0.165059">
        <ele>2691.4</ele>
        <time>2013-09-22T10:22:54Z</time>
      </trkpt>
      <trkpt lat="42.719888" lon="0.165156">
        <ele>2692.8</ele>
        <time>2013-09-22T10:23:04Z</time>
      </trkpt>
      <trkpt lat="42.719830" lon="0.165265">
        <ele>2693.8</ele>
        <time>2013-09-22T10:23:16Z</time>
      </trkpt>
      <trkpt lat="42.719763" lon="0.165342">
        <ele>2694.2</ele>
        <time>2013-09-22T10:23:24Z</time>
      </trkpt>
      <trkpt lat="42.719707" lon="0.165450">
        <ele>2695.2</ele>
        <time>2013-09-22T10:23:33Z</time>
      </trkpt>
      <trkpt lat="42.719669" lon="0.165559">
        <ele>2696.1</ele>
        <time>2013-09-22T10:23:43Z</time>
      </trkpt>
      <trkpt lat="42.719617" lon="0.165665">
        <ele>2697.1</ele>
        <time>2013-09-22T10:23:54Z</time>
      </trkpt>
      <trkpt lat="42.719561" lon="0.165758">
        <ele>2698.1</ele>
        <time>2013-09-22T10:24:03Z</time>
      </trkpt>
      <trkpt lat="42.719508" lon="0.165856">
        <ele>2698.6</ele>
        <time>2013-09-22T10:24:12Z</time>
      </trkpt>
      <trkpt lat="42.719449" lon="0.165962">
        <ele>2700.0</ele>
        <time>2013-09-22T10:24:21Z</time>
      </trkpt>
      <trkpt lat="42.719407" lon="0.166078">
        <ele>2700.5</ele>
        <time>2013-09-22T10:24:30Z</time>
      </trkpt>
      <trkpt lat="42.719384" lon="0.166187">
        <ele>2701.4</ele>
        <time>2013-09-22T10:24:39Z</time>
      </trkpt>
      <trkpt lat="42.719354" lon="0.166314">
        <ele>2702.9</ele>
        <time>2013-09-22T10:24:49Z</time>
      </trkpt>
      <trkpt lat="42.719326" lon="0.166438">
        <ele>2703.4</ele>
        <time>2013-09-22T10:24:58Z</time>
      </trkpt>
      <trkpt lat="42.719290" lon="0.166560">
        <ele>2703.9</ele>
        <time>2013-09-22T10:25:08Z</time>
      </trkpt>
      <trkpt lat="42.719271" lon="0.166689">
        <ele>2704.8</ele>
        <time>2013-09-22T10:25:19Z</time>
      </trkpt>
      <trkpt lat="42.719249" lon="0.166805">
        <ele>2705.3</ele>
        <time>2013-09-22T10:25:29Z</time>
      </trkpt>
      <trkpt lat="42.719247" lon="0.166923">
        <ele>2705.8</ele>
        <time>2013-09-22T10:25:39Z</time>
      </trkpt>
      <trkpt lat="42.719248" lon="0.167051">
        <ele>2707.7</ele>
        <time>2013-09-22T10:25:50Z</time>
      </trkpt>
      <trkpt lat="42.719248" lon="0.167175">
        <ele>2708.2</ele>
        <time>2013-09-22T10:26:01Z</time>
      </trkpt>
      <trkpt lat="42.719212" lon="0.167295">
        <ele>2709.6</ele>
        <time>2013-09-22T10:26:10Z</time>
      </trkpt>
      <trkpt lat="42.719179" lon="0.167417">
        <ele>2710.1</ele>
        <time>2013-09-22T10:26:20Z</time>
      </trkpt>
      <trkpt lat="42.719134" lon="0.167525">
        <ele>2710.6</ele>
        <time>2013-09-22T10:26:29Z</time>
      </trkpt>
      <trkpt lat="42.719089" lon="0.167629">
        <ele>2710.6</ele>
        <time>2013-09-22T10:26:38Z</time>
      </trkpt>
      <trkpt lat="42.719050" lon="0.167745">
        <ele>2711.1</ele>
        <time>2013-09-22T10:26:47Z</time>
      </trkpt>
      <trkpt lat="42.719002" lon="0.167860">
        <ele>2711.5</ele>
        <time>2013-09-22T10:26:56Z</time>
      </trkpt>
      <trkpt lat="42.718960" lon="0.167979">
        <ele>2712.0</ele>
        <time>2013-09-22T10:27:05Z</time>
      </trkpt>
      <trkpt lat="42.718932" lon="0.168103">
        <ele>2713.0</ele>
        <time>2013-09-22T10:27:14Z</time>
      </trkpt>
      <trkpt lat="42.718887" lon="0.168220">
        <ele>2713.9</ele>
        <time>2013-09-22T10:27:23Z</time>
      </trkpt>
      <trkpt lat="42.718843" lon="0.168333">
        <ele>2715.4</ele>
        <time>2013-09-22T10:27:33Z</time>
      </trkpt>
      <trkpt lat="42.718793" lon="0.168435">
        <ele>2717.3</ele>
        <time>2013-09-22T10:27:43Z</time>
      </trkpt>
      <trkpt lat="42.718737" lon="0.168544">
        <ele>2718.3</ele>
        <time>2013-09-22T10:27:53Z</time>
      </trkpt>
      <trkpt lat="42.718668" lon="0.168639">
        <ele>2719.7</ele>
        <time>2013-09-22T10:28:04Z</time>
      </trkpt>
      <trkpt lat="42.718611" lon="0.168730">
        <ele>2720.7</ele>
        <time>2013-09-22T10:28:13Z</time>
      </trkpt>
      <trkpt lat="42.718551" lon="0.168816">
        <ele>2722.1</ele>
        <time>2013-09-22T10:28:23Z</time>
      </trkpt>
      <trkpt lat="42.718487" lon="0.168909">
        <ele>2724.0</ele>
        <time>2013-09-22T10:28:33Z</time>
      </trkpt>
      <trkpt lat="42.718419" lon="0.168988">
        <ele>2726.0</ele>
        <time>2013-09-22T10:28:44Z</time>
      </trkpt>
      <trkpt lat="42.718339" lon="0.169063">
        <ele>2727.9</ele>
        <time>2013-09-22T10:28:55Z</time>
      </trkpt>
      <trkpt lat="42.718261" lon="0.169140">
        <ele>2729.8</ele>
        <time>2013-09-22T10:29:05Z</time>
      </trkpt>
      <trkpt lat="42.718191" lon="0.169229">
        <ele>2731.7</ele>
        <time>2013-09-22T10:29:16Z</time>
      </trkpt>
      <trkpt lat="42.718117" lon="0.169285">
        <ele>2733.2</ele>
        <time>2013-09-22T10:29:25Z</time>
      </trkpt>
      <trkpt lat="42.718042" lon="0.169364">
        <ele>2734.6</ele>
        <time>2013-09-22T10:29:34Z</time>
      </trkpt>
      <trkpt lat="42.717963" lon="0.169435">
        <ele>2736.5</ele>
        <time>2013-09-22T10:29:43Z</time>
      </trkpt>
      <trkpt lat="42.717888" lon="0.169494">
        <ele>2738.0</ele>
        <time>2013-09-22T10:29:52Z</time>
      </trkpt>
      <trkpt lat="42.717817" lon="0.169571">
        <ele>2740.4</ele>
        <time>2013-09-22T10:30:02Z</time>
      </trkpt>
      <trkpt lat="42.717749" lon="0.169653">
        <ele>2742.3</ele>
        <time>2013-09-22T10:30:12Z</time>
      </trkpt>
      <trkpt lat="42.717693" lon="0.169734">
        <ele>2743.3</ele>
        <time>2013-09-22T10:30:23Z</time>
      </trkpt>
      <trkpt lat="42.717654" lon="0.169846">
        <ele>2746.1</ele>
        <time>2013-09-22T10:30:36Z</time>
      </trkpt>
      <trkpt lat="42.717623" lon="0.169966">
        <ele>2749.5</ele>
        <time>2013-09-22T10:30:51Z</time>
      </trkpt>
      <trkpt lat="42.717634" lon="0.170080">
        <ele>2752.4</ele>
        <time>2013-09-22T10:31:08Z</time>
      </trkpt>
      <trkpt lat="42.717676" lon="0.170192">
        <ele>2755.8</ele>
        <time>2013-09-22T10:31:22Z</time>
      </trkpt>
      <trkpt lat="42.717691" lon="0.170326">
        <ele>2758.2</ele>
        <time>2013-09-22T10:31:34Z</time>
      </trkpt>
      <trkpt lat="42.717684" lon="0.170443">
        <ele>2759.1</ele>
        <time>2013-09-22T10:31:51Z</time>
        <name>Pic de Barroude</name>
      </trkpt>
      <trkpt lat="42.717777" lon="0.170370">
        <ele>2767.9</ele>
        <time>2013-09-22T11:55:40Z</time>
      </trkpt>
      <trkpt lat="42.717789" lon="0.170377">
        <ele>2767.5</ele>
        <time>2013-09-22T12:02:05Z</time>
      </trkpt>
      <trkpt lat="42.717800" lon="0.170355">
        <ele>2767.6</ele>
        <time>2013-09-22T12:03:33Z</time>
      </trkpt>
      <trkpt lat="42.717849" lon="0.170257">
        <ele>2767.1</ele>
        <time>2013-09-22T12:03:48Z</time>
      </trkpt>
      <trkpt lat="42.717910" lon="0.170154">
        <ele>2766.2</ele>
        <time>2013-09-22T12:04:04Z</time>
      </trkpt>
      <trkpt lat="42.717952" lon="0.170035">
        <ele>2764.5</ele>
        <time>2013-09-22T12:04:18Z</time>
      </trkpt>
      <trkpt lat="42.717996" lon="0.169913">
        <ele>2762.5</ele>
        <time>2013-09-22T12:04:31Z</time>
      </trkpt>
      <trkpt lat="42.718059" lon="0.169826">
        <ele>2761.2</ele>
        <time>2013-09-22T12:04:43Z</time>
      </trkpt>
      <trkpt lat="42.718136" lon="0.169745">
        <ele>2759.5</ele>
        <time>2013-09-22T12:04:56Z</time>
      </trkpt>
      <trkpt lat="42.718221" lon="0.169672">
        <ele>2757.8</ele>
        <time>2013-09-22T12:05:08Z</time>
      </trkpt>
      <trkpt lat="42.718311" lon="0.169591">
        <ele>2756.4</ele>
        <time>2013-09-22T12:05:19Z</time>
      </trkpt>
      <trkpt lat="42.718387" lon="0.169507">
        <ele>2755.1</ele>
        <time>2013-09-22T12:05:30Z</time>
      </trkpt>
      <trkpt lat="42.718465" lon="0.169436">
        <ele>2753.9</ele>
        <time>2013-09-22T12:05:55Z</time>
      </trkpt>
      <trkpt lat="42.718533" lon="0.169353">
        <ele>2752.6</ele>
        <time>2013-09-22T12:06:04Z</time>
      </trkpt>
      <trkpt lat="42.718603" lon="0.169272">
        <ele>2749.8</ele>
        <time>2013-09-22T12:06:14Z</time>
      </trkpt>
      <trkpt lat="42.718672" lon="0.169191">
        <ele>2747.8</ele>
        <time>2013-09-22T12:06:26Z</time>
      </trkpt>
      <trkpt lat="42.718734" lon="0.169091">
        <ele>2745.4</ele>
        <time>2013-09-22T12:06:39Z</time>
      </trkpt>
      <trkpt lat="42.718754" lon="0.168965">
        <ele>2742.2</ele>
        <time>2013-09-22T12:06:54Z</time>
      </trkpt>
      <trkpt lat="42.718757" lon="0.168851">
        <ele>2738.9</ele>
        <time>2013-09-22T12:07:08Z</time>
      </trkpt>
      <trkpt lat="42.718794" lon="0.168741">
        <ele>2736.3</ele>
        <time>2013-09-22T12:07:19Z</time>
      </trkpt>
      <trkpt lat="42.718837" lon="0.168627">
        <ele>2732.9</ele>
        <time>2013-09-22T12:07:31Z</time>
      </trkpt>
      <trkpt lat="42.718885" lon="0.168517">
        <ele>2730.8</ele>
        <time>2013-09-22T12:07:42Z</time>
      </trkpt>
      <trkpt lat="42.718920" lon="0.168410">
        <ele>2728.7</ele>
        <time>2013-09-22T12:07:52Z</time>
      </trkpt>
      <trkpt lat="42.718971" lon="0.168304">
        <ele>2726.7</ele>
        <time>2013-09-22T12:08:02Z</time>
      </trkpt>
      <trkpt lat="42.719014" lon="0.168190">
        <ele>2725.4</ele>
        <time>2013-09-22T12:08:12Z</time>
      </trkpt>
      <trkpt lat="42.719037" lon="0.168059">
        <ele>2724.1</ele>
        <time>2013-09-22T12:08:22Z</time>
      </trkpt>
      <trkpt lat="42.719069" lon="0.167933">
        <ele>2723.1</ele>
        <time>2013-09-22T12:08:30Z</time>
      </trkpt>
      <trkpt lat="42.719117" lon="0.167814">
        <ele>2722.1</ele>
        <time>2013-09-22T12:08:39Z</time>
      </trkpt>
      <trkpt lat="42.719148" lon="0.167680">
        <ele>2721.7</ele>
        <time>2013-09-22T12:08:48Z</time>
      </trkpt>
      <trkpt lat="42.719186" lon="0.167557">
        <ele>2721.1</ele>
        <time>2013-09-22T12:08:58Z</time>
      </trkpt>
      <trkpt lat="42.719214" lon="0.167429">
        <ele>2720.4</ele>
        <time>2013-09-22T12:09:07Z</time>
      </trkpt>
      <trkpt lat="42.719228" lon="0.167305">
        <ele>2719.4</ele>
        <time>2013-09-22T12:09:15Z</time>
      </trkpt>
      <trkpt lat="42.719263" lon="0.167191">
        <ele>2717.9</ele>
        <time>2013-09-22T12:09:24Z</time>
      </trkpt>
      <trkpt lat="42.719284" lon="0.167070">
        <ele>2717.1</ele>
        <time>2013-09-22T12:09:32Z</time>
      </trkpt>
      <trkpt lat="42.719315" lon="0.166944">
        <ele>2716.5</ele>
        <time>2013-09-22T12:09:41Z</time>
      </trkpt>
      <trkpt lat="42.719325" lon="0.166812">
        <ele>2715.8</ele>
        <time>2013-09-22T12:09:50Z</time>
      </trkpt>
      <trkpt lat="42.719341" lon="0.166682">
        <ele>2715.3</ele>
        <time>2013-09-22T12:09:58Z</time>
      </trkpt>
      <trkpt lat="42.719356" lon="0.166544">
        <ele>2714.3</ele>
        <time>2013-09-22T12:10:07Z</time>
      </trkpt>
      <trkpt lat="42.719372" lon="0.166415">
        <ele>2713.2</ele>
        <time>2013-09-22T12:10:15Z</time>
      </trkpt>
      <trkpt lat="42.719387" lon="0.166282">
        <ele>2712.1</ele>
        <time>2013-09-22T12:10:23Z</time>
      </trkpt>
      <trkpt lat="42.719439" lon="0.166172">
        <ele>2711.2</ele>
        <time>2013-09-22T12:10:31Z</time>
      </trkpt>
      <trkpt lat="42.719491" lon="0.166055">
        <ele>2710.7</ele>
        <time>2013-09-22T12:10:40Z</time>
      </trkpt>
      <trkpt lat="42.719545" lon="0.165947">
        <ele>2709.7</ele>
        <time>2013-09-22T12:10:49Z</time>
      </trkpt>
      <trkpt lat="42.719606" lon="0.165851">
        <ele>2708.8</ele>
        <time>2013-09-22T12:10:58Z</time>
      </trkpt>
      <trkpt lat="42.719645" lon="0.165739">
        <ele>2708.3</ele>
        <time>2013-09-22T12:11:07Z</time>
      </trkpt>
      <trkpt lat="42.719700" lon="0.165620">
        <ele>2707.3</ele>
        <time>2013-09-22T12:11:16Z</time>
      </trkpt>
      <trkpt lat="42.719740" lon="0.165501">
        <ele>2705.9</ele>
        <time>2013-09-22T12:11:25Z</time>
      </trkpt>
      <trkpt lat="42.719772" lon="0.165380">
        <ele>2704.4</ele>
        <time>2013-09-22T12:11:34Z</time>
      </trkpt>
      <trkpt lat="42.719827" lon="0.165280">
        <ele>2703.0</ele>
        <time>2013-09-22T12:11:42Z</time>
      </trkpt>
      <trkpt lat="42.719891" lon="0.165196">
        <ele>2702.0</ele>
        <time>2013-09-22T12:11:50Z</time>
      </trkpt>
      <trkpt lat="42.719949" lon="0.165095">
        <ele>2701.4</ele>
        <time>2013-09-22T12:11:58Z</time>
      </trkpt>
      <trkpt lat="42.719988" lon="0.164976">
        <ele>2700.5</ele>
        <time>2013-09-22T12:12:06Z</time>
      </trkpt>
      <trkpt lat="42.720020" lon="0.164855">
        <ele>2700.1</ele>
        <time>2013-09-22T12:12:15Z</time>
      </trkpt>
      <trkpt lat="42.720060" lon="0.164719">
        <ele>2697.4</ele>
        <time>2013-09-22T12:12:24Z</time>
      </trkpt>
      <trkpt lat="42.720129" lon="0.164635">
        <ele>2695.5</ele>
        <time>2013-09-22T12:12:32Z</time>
      </trkpt>
      <trkpt lat="42.720192" lon="0.164545">
        <ele>2694.2</ele>
        <time>2013-09-22T12:12:40Z</time>
      </trkpt>
      <trkpt lat="42.720266" lon="0.164451">
        <ele>2692.5</ele>
        <time>2013-09-22T12:12:49Z</time>
      </trkpt>
      <trkpt lat="42.720335" lon="0.164365">
        <ele>2691.4</ele>
        <time>2013-09-22T12:12:57Z</time>
      </trkpt>
      <trkpt lat="42.720414" lon="0.164299">
        <ele>2690.1</ele>
        <time>2013-09-22T12:13:05Z</time>
      </trkpt>
      <trkpt lat="42.720489" lon="0.164226">
        <ele>2689.1</ele>
        <time>2013-09-22T12:13:13Z</time>
      </trkpt>
      <trkpt lat="42.720565" lon="0.164147">
        <ele>2687.6</ele>
        <time>2013-09-22T12:13:21Z</time>
      </trkpt>
      <trkpt lat="42.720637" lon="0.164065">
        <ele>2685.6</ele>
        <time>2013-09-22T12:13:30Z</time>
      </trkpt>
      <trkpt lat="42.720722" lon="0.163994">
        <ele>2684.3</ele>
        <time>2013-09-22T12:13:39Z</time>
      </trkpt>
      <trkpt lat="42.720808" lon="0.163926">
        <ele>2683.7</ele>
        <time>2013-09-22T12:13:47Z</time>
      </trkpt>
      <trkpt lat="42.720883" lon="0.163831">
        <ele>2683.1</ele>
        <time>2013-09-22T12:13:56Z</time>
      </trkpt>
      <trkpt lat="42.720915" lon="0.163708">
        <ele>2681.6</ele>
        <time>2013-09-22T12:14:05Z</time>
      </trkpt>
      <trkpt lat="42.720959" lon="0.163594">
        <ele>2679.6</ele>
        <time>2013-09-22T12:14:14Z</time>
      </trkpt>
      <trkpt lat="42.721004" lon="0.163484">
        <ele>2678.4</ele>
        <time>2013-09-22T12:14:23Z</time>
      </trkpt>
      <trkpt lat="42.721060" lon="0.163380">
        <ele>2677.1</ele>
        <time>2013-09-22T12:14:32Z</time>
      </trkpt>
      <trkpt lat="42.721096" lon="0.163262">
        <ele>2675.9</ele>
        <time>2013-09-22T12:14:41Z</time>
      </trkpt>
      <trkpt lat="42.721138" lon="0.163143">
        <ele>2674.6</ele>
        <time>2013-09-22T12:14:50Z</time>
      </trkpt>
      <trkpt lat="42.721195" lon="0.163035">
        <ele>2673.4</ele>
        <time>2013-09-22T12:14:59Z</time>
      </trkpt>
      <trkpt lat="42.721243" lon="0.162929">
        <ele>2672.1</ele>
        <time>2013-09-22T12:15:08Z</time>
      </trkpt>
      <trkpt lat="42.721285" lon="0.162814">
        <ele>2670.9</ele>
        <time>2013-09-22T12:15:16Z</time>
      </trkpt>
      <trkpt lat="42.721340" lon="0.162720">
        <ele>2669.8</ele>
        <time>2013-09-22T12:15:25Z</time>
      </trkpt>
      <trkpt lat="42.721394" lon="0.162625">
        <ele>2669.0</ele>
        <time>2013-09-22T12:15:34Z</time>
      </trkpt>
      <trkpt lat="42.721446" lon="0.162519">
        <ele>2668.5</ele>
        <time>2013-09-22T12:15:43Z</time>
      </trkpt>
      <trkpt lat="42.721508" lon="0.162412">
        <ele>2668.4</ele>
        <time>2013-09-22T12:15:53Z</time>
      </trkpt>
      <trkpt lat="42.721548" lon="0.162287">
        <ele>2668.0</ele>
        <time>2013-09-22T12:16:02Z</time>
      </trkpt>
      <trkpt lat="42.721599" lon="0.162178">
        <ele>2667.4</ele>
        <time>2013-09-22T12:16:10Z</time>
      </trkpt>
      <trkpt lat="42.721658" lon="0.162073">
        <ele>2666.7</ele>
        <time>2013-09-22T12:16:18Z</time>
      </trkpt>
      <trkpt lat="42.721709" lon="0.161952">
        <ele>2665.9</ele>
        <time>2013-09-22T12:16:26Z</time>
      </trkpt>
      <trkpt lat="42.721742" lon="0.161838">
        <ele>2665.1</ele>
        <time>2013-09-22T12:16:34Z</time>
      </trkpt>
      <trkpt lat="42.721781" lon="0.161726">
        <ele>2664.3</ele>
        <time>2013-09-22T12:16:42Z</time>
      </trkpt>
      <trkpt lat="42.721826" lon="0.161611">
        <ele>2663.5</ele>
        <time>2013-09-22T12:16:50Z</time>
      </trkpt>
      <trkpt lat="42.721866" lon="0.161488">
        <ele>2662.6</ele>
        <time>2013-09-22T12:16:59Z</time>
      </trkpt>
      <trkpt lat="42.721887" lon="0.161358">
        <ele>2661.7</ele>
        <time>2013-09-22T12:17:08Z</time>
      </trkpt>
      <trkpt lat="42.721880" lon="0.161207">
        <ele>2660.4</ele>
        <time>2013-09-22T12:17:17Z</time>
      </trkpt>
      <trkpt lat="42.721885" lon="0.161085">
        <ele>2658.9</ele>
        <time>2013-09-22T12:17:25Z</time>
      </trkpt>
      <trkpt lat="42.721899" lon="0.160967">
        <ele>2657.3</ele>
        <time>2013-09-22T12:17:33Z</time>
      </trkpt>
      <trkpt lat="42.721931" lon="0.160847">
        <ele>2655.4</ele>
        <time>2013-09-22T12:17:42Z</time>
      </trkpt>
      <trkpt lat="42.721969" lon="0.160731">
        <ele>2653.9</ele>
        <time>2013-09-22T12:17:51Z</time>
      </trkpt>
      <trkpt lat="42.721986" lon="0.160625">
        <ele>2652.0</ele>
        <time>2013-09-22T12:18:00Z</time>
      </trkpt>
      <trkpt lat="42.721994" lon="0.160510">
        <ele>2649.5</ele>
        <time>2013-09-22T12:18:09Z</time>
      </trkpt>
      <trkpt lat="42.721997" lon="0.160373">
        <ele>2646.9</ele>
        <time>2013-09-22T12:18:19Z</time>
      </trkpt>
      <trkpt lat="42.721989" lon="0.160238">
        <ele>2645.1</ele>
        <time>2013-09-22T12:18:28Z</time>
      </trkpt>
      <trkpt lat="42.721959" lon="0.160101">
        <ele>2642.6</ele>
        <time>2013-09-22T12:18:37Z</time>
      </trkpt>
      <trkpt lat="42.721928" lon="0.159978">
        <ele>2639.9</ele>
        <time>2013-09-22T12:18:47Z</time>
      </trkpt>
      <trkpt lat="42.721899" lon="0.159851">
        <ele>2637.1</ele>
        <time>2013-09-22T12:18:57Z</time>
      </trkpt>
      <trkpt lat="42.721873" lon="0.159719">
        <ele>2635.1</ele>
        <time>2013-09-22T12:19:07Z</time>
      </trkpt>
      <trkpt lat="42.721853" lon="0.159594">
        <ele>2633.1</ele>
        <time>2013-09-22T12:19:16Z</time>
      </trkpt>
      <trkpt lat="42.721829" lon="0.159484">
        <ele>2629.7</ele>
        <time>2013-09-22T12:19:27Z</time>
      </trkpt>
      <trkpt lat="42.721845" lon="0.159366">
        <ele>2627.5</ele>
        <time>2013-09-22T12:19:36Z</time>
      </trkpt>
      <trkpt lat="42.721844" lon="0.159237">
        <ele>2627.4</ele>
        <time>2013-09-22T12:19:49Z</time>
      </trkpt>
      <trkpt lat="42.721840" lon="0.159116">
        <ele>2627.6</ele>
        <time>2013-09-22T12:19:57Z</time>
      </trkpt>
      <trkpt lat="42.721838" lon="0.158992">
        <ele>2627.7</ele>
        <time>2013-09-22T12:20:06Z</time>
      </trkpt>
      <trkpt lat="42.721863" lon="0.158872">
        <ele>2627.6</ele>
        <time>2013-09-22T12:20:14Z</time>
      </trkpt>
      <trkpt lat="42.721894" lon="0.158754">
        <ele>2627.7</ele>
        <time>2013-09-22T12:20:23Z</time>
      </trkpt>
      <trkpt lat="42.721903" lon="0.158638">
        <ele>2627.4</ele>
        <time>2013-09-22T12:20:30Z</time>
      </trkpt>
      <trkpt lat="42.721943" lon="0.158504">
        <ele>2626.9</ele>
        <time>2013-09-22T12:20:39Z</time>
      </trkpt>
      <trkpt lat="42.721993" lon="0.158371">
        <ele>2626.7</ele>
        <time>2013-09-22T12:20:47Z</time>
      </trkpt>
      <trkpt lat="42.722008" lon="0.158238">
        <ele>2625.9</ele>
        <time>2013-09-22T12:20:55Z</time>
      </trkpt>
      <trkpt lat="42.722020" lon="0.158120">
        <ele>2624.1</ele>
        <time>2013-09-22T12:21:03Z</time>
      </trkpt>
      <trkpt lat="42.722061" lon="0.157995">
        <ele>2622.4</ele>
        <time>2013-09-22T12:21:11Z</time>
      </trkpt>
      <trkpt lat="42.722079" lon="0.157856">
        <ele>2620.6</ele>
        <time>2013-09-22T12:21:19Z</time>
      </trkpt>
      <trkpt lat="42.722101" lon="0.157738">
        <ele>2618.9</ele>
        <time>2013-09-22T12:21:26Z</time>
      </trkpt>
      <trkpt lat="42.722112" lon="0.157615">
        <ele>2617.8</ele>
        <time>2013-09-22T12:21:33Z</time>
      </trkpt>
      <trkpt lat="42.722160" lon="0.157523">
        <ele>2616.9</ele>
        <time>2013-09-22T12:21:42Z</time>
      </trkpt>
      <trkpt lat="42.722185" lon="0.157395">
        <ele>2616.6</ele>
        <time>2013-09-22T12:21:50Z</time>
      </trkpt>
      <trkpt lat="42.722190" lon="0.157272">
        <ele>2616.3</ele>
        <time>2013-09-22T12:21:58Z</time>
      </trkpt>
      <trkpt lat="42.722217" lon="0.157145">
        <ele>2615.7</ele>
        <time>2013-09-22T12:22:05Z</time>
      </trkpt>
      <trkpt lat="42.722258" lon="0.157038">
        <ele>2615.1</ele>
        <time>2013-09-22T12:22:12Z</time>
      </trkpt>
      <trkpt lat="42.722287" lon="0.156916">
        <ele>2614.3</ele>
        <time>2013-09-22T12:22:21Z</time>
      </trkpt>
      <trkpt lat="42.722349" lon="0.156803">
        <ele>2613.2</ele>
        <time>2013-09-22T12:22:28Z</time>
      </trkpt>
      <trkpt lat="42.722395" lon="0.156707">
        <ele>2612.5</ele>
        <time>2013-09-22T12:22:34Z</time>
      </trkpt>
      <trkpt lat="42.722446" lon="0.156605">
        <ele>2612.0</ele>
        <time>2013-09-22T12:22:41Z</time>
      </trkpt>
      <trkpt lat="42.722467" lon="0.156487">
        <ele>2611.5</ele>
        <time>2013-09-22T12:22:49Z</time>
      </trkpt>
      <trkpt lat="42.722498" lon="0.156366">
        <ele>2610.8</ele>
        <time>2013-09-22T12:22:57Z</time>
      </trkpt>
      <trkpt lat="42.722525" lon="0.156232">
        <ele>2609.8</ele>
        <time>2013-09-22T12:23:06Z</time>
      </trkpt>
      <trkpt lat="42.722529" lon="0.156107">
        <ele>2608.7</ele>
        <time>2013-09-22T12:23:15Z</time>
      </trkpt>
      <trkpt lat="42.722552" lon="0.155973">
        <ele>2607.5</ele>
        <time>2013-09-22T12:23:24Z</time>
      </trkpt>
      <trkpt lat="42.722582" lon="0.155857">
        <ele>2605.5</ele>
        <time>2013-09-22T12:23:32Z</time>
      </trkpt>
      <trkpt lat="42.722626" lon="0.155747">
        <ele>2604.2</ele>
        <time>2013-09-22T12:23:39Z</time>
      </trkpt>
      <trkpt lat="42.722680" lon="0.155638">
        <ele>2603.1</ele>
        <time>2013-09-22T12:23:46Z</time>
      </trkpt>
      <trkpt lat="42.722731" lon="0.155529">
        <ele>2601.9</ele>
        <time>2013-09-22T12:23:54Z</time>
      </trkpt>
      <trkpt lat="42.722777" lon="0.155413">
        <ele>2600.6</ele>
        <time>2013-09-22T12:24:02Z</time>
      </trkpt>
      <trkpt lat="42.722823" lon="0.155303">
        <ele>2599.2</ele>
        <time>2013-09-22T12:24:10Z</time>
      </trkpt>
      <trkpt lat="42.722853" lon="0.155190">
        <ele>2597.7</ele>
        <time>2013-09-22T12:24:19Z</time>
      </trkpt>
      <trkpt lat="42.722863" lon="0.155061">
        <ele>2595.8</ele>
        <time>2013-09-22T12:24:29Z</time>
      </trkpt>
      <trkpt lat="42.722879" lon="0.154941">
        <ele>2593.4</ele>
        <time>2013-09-22T12:24:38Z</time>
      </trkpt>
      <trkpt lat="42.722908" lon="0.154826">
        <ele>2590.9</ele>
        <time>2013-09-22T12:24:47Z</time>
      </trkpt>
      <trkpt lat="42.722961" lon="0.154718">
        <ele>2589.5</ele>
        <time>2013-09-22T12:24:55Z</time>
      </trkpt>
      <trkpt lat="42.722997" lon="0.154618">
        <ele>2588.3</ele>
        <time>2013-09-22T12:25:04Z</time>
      </trkpt>
      <trkpt lat="42.723030" lon="0.154507">
        <ele>2586.6</ele>
        <time>2013-09-22T12:25:12Z</time>
      </trkpt>
      <trkpt lat="42.723091" lon="0.154400">
        <ele>2584.3</ele>
        <time>2013-09-22T12:25:21Z</time>
      </trkpt>
      <trkpt lat="42.723135" lon="0.154273">
        <ele>2581.6</ele>
        <time>2013-09-22T12:25:33Z</time>
      </trkpt>
      <trkpt lat="42.723187" lon="0.154152">
        <ele>2579.5</ele>
        <time>2013-09-22T12:25:42Z</time>
      </trkpt>
      <trkpt lat="42.723228" lon="0.154015">
        <ele>2576.6</ele>
        <time>2013-09-22T12:25:52Z</time>
      </trkpt>
      <trkpt lat="42.723266" lon="0.153892">
        <ele>2573.5</ele>
        <time>2013-09-22T12:26:04Z</time>
      </trkpt>
      <trkpt lat="42.723308" lon="0.153761">
        <ele>2571.2</ele>
        <time>2013-09-22T12:26:14Z</time>
      </trkpt>
      <trkpt lat="42.723373" lon="0.153659">
        <ele>2569.4</ele>
        <time>2013-09-22T12:26:23Z</time>
      </trkpt>
      <trkpt lat="42.723437" lon="0.153567">
        <ele>2567.6</ele>
        <time>2013-09-22T12:26:33Z</time>
      </trkpt>
      <trkpt lat="42.723515" lon="0.153481">
        <ele>2566.5</ele>
        <time>2013-09-22T12:26:42Z</time>
      </trkpt>
      <trkpt lat="42.723568" lon="0.153371">
        <ele>2565.3</ele>
        <time>2013-09-22T12:26:51Z</time>
      </trkpt>
      <trkpt lat="42.723618" lon="0.153258">
        <ele>2563.8</ele>
        <time>2013-09-22T12:26:59Z</time>
      </trkpt>
      <trkpt lat="42.723679" lon="0.153162">
        <ele>2561.6</ele>
        <time>2013-09-22T12:27:09Z</time>
      </trkpt>
      <trkpt lat="42.723756" lon="0.153072">
        <ele>2560.1</ele>
        <time>2013-09-22T12:27:19Z</time>
      </trkpt>
      <trkpt lat="42.723804" lon="0.152963">
        <ele>2558.8</ele>
        <time>2013-09-22T12:27:29Z</time>
      </trkpt>
      <trkpt lat="42.723845" lon="0.152848">
        <ele>2557.3</ele>
        <time>2013-09-22T12:27:39Z</time>
      </trkpt>
      <trkpt lat="42.723865" lon="0.152727">
        <ele>2555.3</ele>
        <time>2013-09-22T12:27:49Z</time>
      </trkpt>
      <trkpt lat="42.723887" lon="0.152600">
        <ele>2553.9</ele>
        <time>2013-09-22T12:27:58Z</time>
      </trkpt>
      <trkpt lat="42.723888" lon="0.152470">
        <ele>2552.4</ele>
        <time>2013-09-22T12:28:07Z</time>
      </trkpt>
      <trkpt lat="42.723924" lon="0.152364">
        <ele>2550.5</ele>
        <time>2013-09-22T12:28:16Z</time>
      </trkpt>
      <trkpt lat="42.723970" lon="0.152259">
        <ele>2549.3</ele>
        <time>2013-09-22T12:28:26Z</time>
      </trkpt>
      <trkpt lat="42.723983" lon="0.152127">
        <ele>2548.6</ele>
        <time>2013-09-22T12:28:35Z</time>
      </trkpt>
      <trkpt lat="42.723998" lon="0.151999">
        <ele>2547.4</ele>
        <time>2013-09-22T12:28:44Z</time>
      </trkpt>
      <trkpt lat="42.724008" lon="0.151876">
        <ele>2546.5</ele>
        <time>2013-09-22T12:28:53Z</time>
      </trkpt>
      <trkpt lat="42.724011" lon="0.151749">
        <ele>2545.7</ele>
        <time>2013-09-22T12:29:02Z</time>
      </trkpt>
      <trkpt lat="42.724006" lon="0.151623">
        <ele>2544.2</ele>
        <time>2013-09-22T12:29:11Z</time>
        <name>Port de Barroude</name>
      </trkpt>
      <trkpt lat="42.723960" lon="0.151517">
        <ele>2543.4</ele>
        <time>2013-09-22T12:29:20Z</time>
      </trkpt>
      <trkpt lat="42.723930" lon="0.151465">
        <ele>2536.8</ele>
        <time>2013-09-22T12:51:46Z</time>
      </trkpt>
      <trkpt lat="42.723836" lon="0.151534">
        <ele>2536.2</ele>
        <time>2013-09-22T12:51:58Z</time>
      </trkpt>
      <trkpt lat="42.723743" lon="0.151595">
        <ele>2535.6</ele>
        <time>2013-09-22T12:52:07Z</time>
      </trkpt>
      <trkpt lat="42.723645" lon="0.151642">
        <ele>2534.3</ele>
        <time>2013-09-22T12:52:14Z</time>
      </trkpt>
      <trkpt lat="42.723550" lon="0.151686">
        <ele>2533.0</ele>
        <time>2013-09-22T12:52:22Z</time>
      </trkpt>
      <trkpt lat="42.723465" lon="0.151716">
        <ele>2532.0</ele>
        <time>2013-09-22T12:52:29Z</time>
      </trkpt>
      <trkpt lat="42.723382" lon="0.151774">
        <ele>2530.9</ele>
        <time>2013-09-22T12:52:37Z</time>
      </trkpt>
      <trkpt lat="42.723298" lon="0.151852">
        <ele>2530.1</ele>
        <time>2013-09-22T12:52:45Z</time>
      </trkpt>
      <trkpt lat="42.723201" lon="0.151916">
        <ele>2529.2</ele>
        <time>2013-09-22T12:52:54Z</time>
      </trkpt>
      <trkpt lat="42.723110" lon="0.151968">
        <ele>2528.5</ele>
        <time>2013-09-22T12:53:01Z</time>
      </trkpt>
      <trkpt lat="42.723016" lon="0.152000">
        <ele>2527.4</ele>
        <time>2013-09-22T12:53:09Z</time>
      </trkpt>
      <trkpt lat="42.722922" lon="0.151993">
        <ele>2526.0</ele>
        <time>2013-09-22T12:53:17Z</time>
      </trkpt>
      <trkpt lat="42.722931" lon="0.151908">
        <ele>2524.0</ele>
        <time>2013-09-22T12:53:37Z</time>
      </trkpt>
      <trkpt lat="42.722855" lon="0.151806">
        <ele>2522.1</ele>
        <time>2013-09-22T12:53:47Z</time>
      </trkpt>
      <trkpt lat="42.722791" lon="0.151702">
        <ele>2520.1</ele>
        <time>2013-09-22T12:53:55Z</time>
      </trkpt>
      <trkpt lat="42.722752" lon="0.151597">
        <ele>2517.4</ele>
        <time>2013-09-22T12:54:03Z</time>
      </trkpt>
      <trkpt lat="42.722728" lon="0.151480">
        <ele>2514.2</ele>
        <time>2013-09-22T12:54:15Z</time>
      </trkpt>
      <trkpt lat="42.722747" lon="0.151369">
        <ele>2512.6</ele>
        <time>2013-09-22T12:54:24Z</time>
      </trkpt>
      <trkpt lat="42.722746" lon="0.151240">
        <ele>2510.1</ele>
        <time>2013-09-22T12:54:34Z</time>
      </trkpt>
      <trkpt lat="42.722752" lon="0.151122">
        <ele>2507.8</ele>
        <time>2013-09-22T12:54:43Z</time>
      </trkpt>
      <trkpt lat="42.722713" lon="0.151025">
        <ele>2505.1</ele>
        <time>2013-09-22T12:54:53Z</time>
      </trkpt>
      <trkpt lat="42.722647" lon="0.150945">
        <ele>2502.5</ele>
        <time>2013-09-22T12:55:30Z</time>
      </trkpt>
      <trkpt lat="42.722552" lon="0.150840">
        <ele>2500.4</ele>
        <time>2013-09-22T12:55:42Z</time>
      </trkpt>
      <trkpt lat="42.722496" lon="0.150729">
        <ele>2498.4</ele>
        <time>2013-09-22T12:55:50Z</time>
      </trkpt>
      <trkpt lat="42.722457" lon="0.150598">
        <ele>2496.6</ele>
        <time>2013-09-22T12:55:59Z</time>
      </trkpt>
      <trkpt lat="42.722423" lon="0.150487">
        <ele>2495.1</ele>
        <time>2013-09-22T12:56:07Z</time>
      </trkpt>
      <trkpt lat="42.722396" lon="0.150379">
        <ele>2493.1</ele>
        <time>2013-09-22T12:56:16Z</time>
      </trkpt>
      <trkpt lat="42.722370" lon="0.150258">
        <ele>2491.1</ele>
        <time>2013-09-22T12:56:27Z</time>
      </trkpt>
      <trkpt lat="42.722309" lon="0.150276">
        <ele>2488.4</ele>
        <time>2013-09-22T12:56:39Z</time>
      </trkpt>
      <trkpt lat="42.722275" lon="0.150406">
        <ele>2487.2</ele>
        <time>2013-09-22T12:56:48Z</time>
      </trkpt>
      <trkpt lat="42.722242" lon="0.150536">
        <ele>2486.5</ele>
        <time>2013-09-22T12:57:03Z</time>
      </trkpt>
      <trkpt lat="42.722230" lon="0.150670">
        <ele>2485.6</ele>
        <time>2013-09-22T12:57:13Z</time>
      </trkpt>
      <trkpt lat="42.722148" lon="0.150656">
        <ele>2483.6</ele>
        <time>2013-09-22T12:57:23Z</time>
      </trkpt>
      <trkpt lat="42.722073" lon="0.150566">
        <ele>2481.6</ele>
        <time>2013-09-22T12:57:31Z</time>
      </trkpt>
      <trkpt lat="42.722026" lon="0.150467">
        <ele>2479.2</ele>
        <time>2013-09-22T12:57:41Z</time>
      </trkpt>
      <trkpt lat="42.722022" lon="0.150332">
        <ele>2477.1</ele>
        <time>2013-09-22T12:57:53Z</time>
      </trkpt>
      <trkpt lat="42.721989" lon="0.150196">
        <ele>2475.0</ele>
        <time>2013-09-22T12:58:04Z</time>
      </trkpt>
      <trkpt lat="42.721981" lon="0.150091">
        <ele>2473.1</ele>
        <time>2013-09-22T12:58:14Z</time>
      </trkpt>
      <trkpt lat="42.721985" lon="0.149999">
        <ele>2471.9</ele>
        <time>2013-09-22T12:58:39Z</time>
      </trkpt>
      <trkpt lat="42.721955" lon="0.149866">
        <ele>2470.3</ele>
        <time>2013-09-22T12:58:48Z</time>
      </trkpt>
      <trkpt lat="42.721930" lon="0.149749">
        <ele>2468.1</ele>
        <time>2013-09-22T12:58:58Z</time>
      </trkpt>
      <trkpt lat="42.721852" lon="0.149811">
        <ele>2465.6</ele>
        <time>2013-09-22T12:59:09Z</time>
      </trkpt>
      <trkpt lat="42.721797" lon="0.149791">
        <ele>2462.6</ele>
        <time>2013-09-22T12:59:18Z</time>
      </trkpt>
      <trkpt lat="42.721763" lon="0.149668">
        <ele>2460.0</ele>
        <time>2013-09-22T12:59:29Z</time>
      </trkpt>
      <trkpt lat="42.721699" lon="0.149702">
        <ele>2456.6</ele>
        <time>2013-09-22T12:59:43Z</time>
      </trkpt>
      <trkpt lat="42.721641" lon="0.149786">
        <ele>2454.4</ele>
        <time>2013-09-22T12:59:52Z</time>
      </trkpt>
      <trkpt lat="42.721603" lon="0.149895">
        <ele>2452.6</ele>
        <time>2013-09-22T13:00:00Z</time>
      </trkpt>
      <trkpt lat="42.721585" lon="0.150014">
        <ele>2450.4</ele>
        <time>2013-09-22T13:00:09Z</time>
      </trkpt>
      <trkpt lat="42.721522" lon="0.150091">
        <ele>2448.3</ele>
        <time>2013-09-22T13:00:21Z</time>
      </trkpt>
      <trkpt lat="42.721487" lon="0.150013">
        <ele>2445.4</ele>
        <time>2013-09-22T13:00:33Z</time>
      </trkpt>
      <trkpt lat="42.721456" lon="0.149883">
        <ele>2442.6</ele>
        <time>2013-09-22T13:00:45Z</time>
      </trkpt>
      <trkpt lat="42.721405" lon="0.149760">
        <ele>2439.5</ele>
        <time>2013-09-22T13:00:56Z</time>
      </trkpt>
      <trkpt lat="42.721361" lon="0.149662">
        <ele>2436.3</ele>
        <time>2013-09-22T13:01:07Z</time>
      </trkpt>
      <trkpt lat="42.721322" lon="0.149780">
        <ele>2433.8</ele>
        <time>2013-09-22T13:01:17Z</time>
      </trkpt>
      <trkpt lat="42.721289" lon="0.149906">
        <ele>2431.3</ele>
        <time>2013-09-22T13:01:28Z</time>
      </trkpt>
      <trkpt lat="42.721256" lon="0.150041">
        <ele>2428.9</ele>
        <time>2013-09-22T13:01:38Z</time>
      </trkpt>
      <trkpt lat="42.721229" lon="0.150169">
        <ele>2425.8</ele>
        <time>2013-09-22T13:01:55Z</time>
      </trkpt>
      <trkpt lat="42.721179" lon="0.150249">
        <ele>2423.7</ele>
        <time>2013-09-22T13:02:08Z</time>
      </trkpt>
      <trkpt lat="42.721139" lon="0.150392">
        <ele>2421.6</ele>
        <time>2013-09-22T13:02:21Z</time>
      </trkpt>
      <trkpt lat="42.721122" lon="0.150531">
        <ele>2420.4</ele>
        <time>2013-09-22T13:02:31Z</time>
      </trkpt>
      <trkpt lat="42.721136" lon="0.150665">
        <ele>2419.2</ele>
        <time>2013-09-22T13:02:41Z</time>
      </trkpt>
      <trkpt lat="42.721091" lon="0.150768">
        <ele>2417.9</ele>
        <time>2013-09-22T13:03:15Z</time>
      </trkpt>
      <trkpt lat="42.721031" lon="0.150880">
        <ele>2416.6</ele>
        <time>2013-09-22T13:03:27Z</time>
      </trkpt>
      <trkpt lat="42.720967" lon="0.150991">
        <ele>2414.6</ele>
        <time>2013-09-22T13:03:40Z</time>
      </trkpt>
      <trkpt lat="42.720910" lon="0.151096">
        <ele>2411.3</ele>
        <time>2013-09-22T13:03:53Z</time>
      </trkpt>
      <trkpt lat="42.720900" lon="0.151198">
        <ele>2409.6</ele>
        <time>2013-09-22T13:04:02Z</time>
      </trkpt>
      <trkpt lat="42.720842" lon="0.151301">
        <ele>2407.7</ele>
        <time>2013-09-22T13:04:13Z</time>
      </trkpt>
      <trkpt lat="42.720790" lon="0.151450">
        <ele>2405.8</ele>
        <time>2013-09-22T13:04:23Z</time>
      </trkpt>
      <trkpt lat="42.720777" lon="0.151583">
        <ele>2403.8</ele>
        <time>2013-09-22T13:04:32Z</time>
      </trkpt>
      <trkpt lat="42.720713" lon="0.151705">
        <ele>2402.1</ele>
        <time>2013-09-22T13:04:41Z</time>
      </trkpt>
      <trkpt lat="42.720645" lon="0.151776">
        <ele>2399.9</ele>
        <time>2013-09-22T13:04:50Z</time>
      </trkpt>
      <trkpt lat="42.720591" lon="0.151885">
        <ele>2396.8</ele>
        <time>2013-09-22T13:05:03Z</time>
      </trkpt>
      <trkpt lat="42.720534" lon="0.151995">
        <ele>2393.4</ele>
        <time>2013-09-22T13:05:20Z</time>
      </trkpt>
      <trkpt lat="42.720456" lon="0.152098">
        <ele>2391.3</ele>
        <time>2013-09-22T13:05:35Z</time>
      </trkpt>
      <trkpt lat="42.720414" lon="0.152168">
        <ele>2387.3</ele>
        <time>2013-09-22T13:05:50Z</time>
      </trkpt>
      <trkpt lat="42.720393" lon="0.152030">
        <ele>2384.6</ele>
        <time>2013-09-22T13:06:03Z</time>
      </trkpt>
      <trkpt lat="42.720412" lon="0.151891">
        <ele>2383.4</ele>
        <time>2013-09-22T13:06:15Z</time>
      </trkpt>
      <trkpt lat="42.720407" lon="0.151774">
        <ele>2381.5</ele>
        <time>2013-09-22T13:06:27Z</time>
      </trkpt>
      <trkpt lat="42.720333" lon="0.151831">
        <ele>2378.8</ele>
        <time>2013-09-22T13:06:38Z</time>
      </trkpt>
      <trkpt lat="42.720252" lon="0.151888">
        <ele>2376.5</ele>
        <time>2013-09-22T13:06:49Z</time>
      </trkpt>
      <trkpt lat="42.720207" lon="0.152009">
        <ele>2375.1</ele>
        <time>2013-09-22T13:06:58Z</time>
      </trkpt>
      <trkpt lat="42.720180" lon="0.152141">
        <ele>2373.6</ele>
        <time>2013-09-22T13:07:09Z</time>
      </trkpt>
      <trkpt lat="42.720162" lon="0.152294">
        <ele>2371.0</ele>
        <time>2013-09-22T13:07:21Z</time>
      </trkpt>
      <trkpt lat="42.720107" lon="0.152400">
        <ele>2369.2</ele>
        <time>2013-09-22T13:07:31Z</time>
      </trkpt>
      <trkpt lat="42.720070" lon="0.152516">
        <ele>2367.2</ele>
        <time>2013-09-22T13:07:40Z</time>
      </trkpt>
      <trkpt lat="42.720038" lon="0.152625">
        <ele>2365.2</ele>
        <time>2013-09-22T13:07:49Z</time>
      </trkpt>
      <trkpt lat="42.720000" lon="0.152652">
        <ele>2362.7</ele>
        <time>2013-09-22T13:08:01Z</time>
      </trkpt>
      <trkpt lat="42.719980" lon="0.152524">
        <ele>2361.1</ele>
        <time>2013-09-22T13:08:11Z</time>
      </trkpt>
      <trkpt lat="42.719933" lon="0.152403">
        <ele>2359.2</ele>
        <time>2013-09-22T13:08:20Z</time>
      </trkpt>
      <trkpt lat="42.719917" lon="0.152276">
        <ele>2357.2</ele>
        <time>2013-09-22T13:08:29Z</time>
      </trkpt>
      <trkpt lat="42.719872" lon="0.152154">
        <ele>2355.2</ele>
        <time>2013-09-22T13:08:39Z</time>
      </trkpt>
      <trkpt lat="42.719805" lon="0.152074">
        <ele>2352.6</ele>
        <time>2013-09-22T13:08:51Z</time>
      </trkpt>
      <trkpt lat="42.719761" lon="0.152186">
        <ele>2348.8</ele>
        <time>2013-09-22T13:09:06Z</time>
      </trkpt>
      <trkpt lat="42.719734" lon="0.152340">
        <ele>2345.4</ele>
        <time>2013-09-22T13:09:20Z</time>
      </trkpt>
      <trkpt lat="42.719685" lon="0.152467">
        <ele>2342.8</ele>
        <time>2013-09-22T13:09:33Z</time>
      </trkpt>
      <trkpt lat="42.719640" lon="0.152614">
        <ele>2340.5</ele>
        <time>2013-09-22T13:09:45Z</time>
      </trkpt>
      <trkpt lat="42.719593" lon="0.152739">
        <ele>2338.0</ele>
        <time>2013-09-22T13:09:56Z</time>
      </trkpt>
      <trkpt lat="42.719526" lon="0.152844">
        <ele>2335.9</ele>
        <time>2013-09-22T13:10:07Z</time>
      </trkpt>
      <trkpt lat="42.719492" lon="0.152950">
        <ele>2333.0</ele>
        <time>2013-09-22T13:10:19Z</time>
      </trkpt>
      <trkpt lat="42.719429" lon="0.153061">
        <ele>2330.5</ele>
        <time>2013-09-22T13:10:30Z</time>
      </trkpt>
      <trkpt lat="42.719411" lon="0.153190">
        <ele>2327.9</ele>
        <time>2013-09-22T13:10:40Z</time>
      </trkpt>
      <trkpt lat="42.719398" lon="0.153331">
        <ele>2325.6</ele>
        <time>2013-09-22T13:10:52Z</time>
      </trkpt>
      <trkpt lat="42.719407" lon="0.153472">
        <ele>2324.0</ele>
        <time>2013-09-22T13:11:04Z</time>
      </trkpt>
      <trkpt lat="42.719330" lon="0.153547">
        <ele>2322.5</ele>
        <time>2013-09-22T13:11:17Z</time>
      </trkpt>
      <trkpt lat="42.719256" lon="0.153636">
        <ele>2321.6</ele>
        <time>2013-09-22T13:11:29Z</time>
      </trkpt>
      <trkpt lat="42.719179" lon="0.153707">
        <ele>2320.7</ele>
        <time>2013-09-22T13:11:40Z</time>
      </trkpt>
      <trkpt lat="42.719180" lon="0.153638">
        <ele>2319.9</ele>
        <time>2013-09-22T13:12:56Z</time>
      </trkpt>
      <trkpt lat="42.719108" lon="0.153735">
        <ele>2318.6</ele>
        <time>2013-09-22T13:14:13Z</time>
      </trkpt>
      <trkpt lat="42.719022" lon="0.153867">
        <ele>2315.9</ele>
        <time>2013-09-22T13:14:26Z</time>
      </trkpt>
      <trkpt lat="42.718948" lon="0.153960">
        <ele>2313.3</ele>
        <time>2013-09-22T13:14:36Z</time>
      </trkpt>
      <trkpt lat="42.718875" lon="0.154064">
        <ele>2311.8</ele>
        <time>2013-09-22T13:14:47Z</time>
      </trkpt>
      <trkpt lat="42.718806" lon="0.154147">
        <ele>2310.1</ele>
        <time>2013-09-22T13:14:59Z</time>
      </trkpt>
      <trkpt lat="42.718728" lon="0.154266">
        <ele>2308.0</ele>
        <time>2013-09-22T13:15:10Z</time>
      </trkpt>
      <trkpt lat="42.718662" lon="0.154348">
        <ele>2305.9</ele>
        <time>2013-09-22T13:15:20Z</time>
      </trkpt>
      <trkpt lat="42.718609" lon="0.154477">
        <ele>2303.7</ele>
        <time>2013-09-22T13:15:32Z</time>
      </trkpt>
      <trkpt lat="42.718561" lon="0.154577">
        <ele>2302.0</ele>
        <time>2013-09-22T13:15:43Z</time>
      </trkpt>
      <trkpt lat="42.718487" lon="0.154657">
        <ele>2300.1</ele>
        <time>2013-09-22T13:15:54Z</time>
      </trkpt>
      <trkpt lat="42.718430" lon="0.154694">
        <ele>2298.0</ele>
        <time>2013-09-22T13:16:37Z</time>
      </trkpt>
      <trkpt lat="42.718369" lon="0.154743">
        <ele>2296.6</ele>
        <time>2013-09-22T13:17:20Z</time>
      </trkpt>
      <trkpt lat="42.718277" lon="0.154818">
        <ele>2294.1</ele>
        <time>2013-09-22T13:17:43Z</time>
      </trkpt>
      <trkpt lat="42.718186" lon="0.154892">
        <ele>2292.9</ele>
        <time>2013-09-22T13:17:53Z</time>
      </trkpt>
      <trkpt lat="42.718126" lon="0.155003">
        <ele>2291.0</ele>
        <time>2013-09-22T13:18:03Z</time>
      </trkpt>
      <trkpt lat="42.718052" lon="0.155113">
        <ele>2289.4</ele>
        <time>2013-09-22T13:18:15Z</time>
      </trkpt>
      <trkpt lat="42.717981" lon="0.155208">
        <ele>2287.7</ele>
        <time>2013-09-22T13:18:25Z</time>
      </trkpt>
      <trkpt lat="42.717921" lon="0.155295">
        <ele>2286.4</ele>
        <time>2013-09-22T13:18:34Z</time>
      </trkpt>
      <trkpt lat="42.717848" lon="0.155361">
        <ele>2284.7</ele>
        <time>2013-09-22T13:18:43Z</time>
      </trkpt>
      <trkpt lat="42.717770" lon="0.155449">
        <ele>2283.1</ele>
        <time>2013-09-22T13:18:53Z</time>
      </trkpt>
      <trkpt lat="42.717678" lon="0.155525">
        <ele>2281.3</ele>
        <time>2013-09-22T13:19:04Z</time>
      </trkpt>
      <trkpt lat="42.717623" lon="0.155641">
        <ele>2278.8</ele>
        <time>2013-09-22T13:19:16Z</time>
      </trkpt>
      <trkpt lat="42.717530" lon="0.155707">
        <ele>2276.1</ele>
        <time>2013-09-22T13:19:27Z</time>
      </trkpt>
      <trkpt lat="42.717464" lon="0.155741">
        <ele>2272.8</ele>
        <time>2013-09-22T13:20:07Z</time>
      </trkpt>
      <trkpt lat="42.717355" lon="0.155826">
        <ele>2271.2</ele>
        <time>2013-09-22T13:20:24Z</time>
      </trkpt>
      <trkpt lat="42.717273" lon="0.155923">
        <ele>2269.2</ele>
        <time>2013-09-22T13:20:34Z</time>
      </trkpt>
      <trkpt lat="42.717195" lon="0.156001">
        <ele>2267.0</ele>
        <time>2013-09-22T13:20:44Z</time>
      </trkpt>
      <trkpt lat="42.717111" lon="0.156060">
        <ele>2264.9</ele>
        <time>2013-09-22T13:20:54Z</time>
      </trkpt>
      <trkpt lat="42.717032" lon="0.156134">
        <ele>2262.9</ele>
        <time>2013-09-22T13:21:04Z</time>
      </trkpt>
      <trkpt lat="42.716985" lon="0.156245">
        <ele>2261.1</ele>
        <time>2013-09-22T13:21:13Z</time>
      </trkpt>
      <trkpt lat="42.716944" lon="0.156355">
        <ele>2259.0</ele>
        <time>2013-09-22T13:21:24Z</time>
      </trkpt>
      <trkpt lat="42.716876" lon="0.156470">
        <ele>2256.4</ele>
        <time>2013-09-22T13:21:36Z</time>
      </trkpt>
      <trkpt lat="42.716840" lon="0.156573">
        <ele>2253.8</ele>
        <time>2013-09-22T13:21:59Z</time>
      </trkpt>
      <trkpt lat="42.716785" lon="0.156685">
        <ele>2252.4</ele>
        <time>2013-09-22T13:22:09Z</time>
      </trkpt>
      <trkpt lat="42.716718" lon="0.156795">
        <ele>2250.2</ele>
        <time>2013-09-22T13:22:18Z</time>
      </trkpt>
      <trkpt lat="42.716668" lon="0.156931">
        <ele>2248.2</ele>
        <time>2013-09-22T13:22:28Z</time>
      </trkpt>
      <trkpt lat="42.716611" lon="0.157048">
        <ele>2246.2</ele>
        <time>2013-09-22T13:22:38Z</time>
      </trkpt>
      <trkpt lat="42.716546" lon="0.157148">
        <ele>2243.9</ele>
        <time>2013-09-22T13:22:48Z</time>
      </trkpt>
      <trkpt lat="42.716487" lon="0.157256">
        <ele>2241.6</ele>
        <time>2013-09-22T13:22:59Z</time>
      </trkpt>
      <trkpt lat="42.716417" lon="0.157334">
        <ele>2238.5</ele>
        <time>2013-09-22T13:23:12Z</time>
      </trkpt>
      <trkpt lat="42.716390" lon="0.157438">
        <ele>2236.2</ele>
        <time>2013-09-22T13:23:31Z</time>
      </trkpt>
      <trkpt lat="42.716328" lon="0.157518">
        <ele>2235.8</ele>
        <time>2013-09-22T13:23:42Z</time>
      </trkpt>
      <trkpt lat="42.716248" lon="0.157596">
        <ele>2234.1</ele>
        <time>2013-09-22T13:23:53Z</time>
      </trkpt>
      <trkpt lat="42.716169" lon="0.157670">
        <ele>2232.4</ele>
        <time>2013-09-22T13:24:04Z</time>
      </trkpt>
      <trkpt lat="42.716093" lon="0.157740">
        <ele>2230.1</ele>
        <time>2013-09-22T13:24:16Z</time>
      </trkpt>
      <trkpt lat="42.716021" lon="0.157822">
        <ele>2228.1</ele>
        <time>2013-09-22T13:24:28Z</time>
      </trkpt>
      <trkpt lat="42.715961" lon="0.157917">
        <ele>2226.2</ele>
        <time>2013-09-22T13:24:39Z</time>
      </trkpt>
      <trkpt lat="42.715879" lon="0.157995">
        <ele>2224.5</ele>
        <time>2013-09-22T13:24:51Z</time>
      </trkpt>
      <trkpt lat="42.715796" lon="0.158085">
        <ele>2221.9</ele>
        <time>2013-09-22T13:25:04Z</time>
      </trkpt>
      <trkpt lat="42.715706" lon="0.158155">
        <ele>2219.4</ele>
        <time>2013-09-22T13:25:15Z</time>
      </trkpt>
      <trkpt lat="42.715618" lon="0.158225">
        <ele>2218.2</ele>
        <time>2013-09-22T13:25:24Z</time>
      </trkpt>
      <trkpt lat="42.715564" lon="0.158346">
        <ele>2216.4</ele>
        <time>2013-09-22T13:25:35Z</time>
      </trkpt>
      <trkpt lat="42.715508" lon="0.158435">
        <ele>2214.9</ele>
        <time>2013-09-22T13:25:46Z</time>
      </trkpt>
      <trkpt lat="42.715480" lon="0.158519">
        <ele>2213.3</ele>
        <time>2013-09-22T13:26:33Z</time>
      </trkpt>
      <trkpt lat="42.715423" lon="0.158641">
        <ele>2212.4</ele>
        <time>2013-09-22T13:26:47Z</time>
      </trkpt>
      <trkpt lat="42.715394" lon="0.158723">
        <ele>2211.1</ele>
        <time>2013-09-22T13:27:19Z</time>
      </trkpt>
      <trkpt lat="42.715386" lon="0.158740">
        <ele>2209.9</ele>
        <time>2013-09-22T13:29:39Z</time>
      </trkpt>
      <trkpt lat="42.715312" lon="0.158851">
        <ele>2208.9</ele>
        <time>2013-09-22T13:29:49Z</time>
      </trkpt>
      <trkpt lat="42.715253" lon="0.158975">
        <ele>2207.5</ele>
        <time>2013-09-22T13:30:01Z</time>
      </trkpt>
      <trkpt lat="42.715197" lon="0.159078">
        <ele>2206.8</ele>
        <time>2013-09-22T13:30:11Z</time>
      </trkpt>
      <trkpt lat="42.715124" lon="0.159184">
        <ele>2207.4</ele>
        <time>2013-09-22T13:30:22Z</time>
      </trkpt>
      <trkpt lat="42.715060" lon="0.159274">
        <ele>2206.6</ele>
        <time>2013-09-22T13:30:31Z</time>
      </trkpt>
      <trkpt lat="42.715005" lon="0.159370">
        <ele>2204.9</ele>
        <time>2013-09-22T13:30:42Z</time>
      </trkpt>
      <trkpt lat="42.714937" lon="0.159485">
        <ele>2203.0</ele>
        <time>2013-09-22T13:30:57Z</time>
      </trkpt>
      <trkpt lat="42.714877" lon="0.159607">
        <ele>2201.2</ele>
        <time>2013-09-22T13:31:07Z</time>
      </trkpt>
      <trkpt lat="42.714842" lon="0.159758">
        <ele>2199.0</ele>
        <time>2013-09-22T13:31:17Z</time>
      </trkpt>
      <trkpt lat="42.714792" lon="0.159864">
        <ele>2196.5</ele>
        <time>2013-09-22T13:31:28Z</time>
      </trkpt>
      <trkpt lat="42.714701" lon="0.159937">
        <ele>2194.4</ele>
        <time>2013-09-22T13:31:42Z</time>
      </trkpt>
      <trkpt lat="42.714613" lon="0.159996">
        <ele>2192.6</ele>
        <time>2013-09-22T13:31:54Z</time>
      </trkpt>
      <trkpt lat="42.714507" lon="0.160048">
        <ele>2190.6</ele>
        <time>2013-09-22T13:32:04Z</time>
      </trkpt>
      <trkpt lat="42.714422" lon="0.160109">
        <ele>2188.9</ele>
        <time>2013-09-22T13:32:14Z</time>
      </trkpt>
      <trkpt lat="42.714322" lon="0.160148">
        <ele>2186.3</ele>
        <time>2013-09-22T13:32:26Z</time>
      </trkpt>
      <trkpt lat="42.714223" lon="0.160154">
        <ele>2184.1</ele>
        <time>2013-09-22T13:32:36Z</time>
      </trkpt>
      <trkpt lat="42.714110" lon="0.160171">
        <ele>2182.0</ele>
        <time>2013-09-22T13:32:47Z</time>
      </trkpt>
      <trkpt lat="42.714005" lon="0.160144">
        <ele>2180.2</ele>
        <time>2013-09-22T13:32:57Z</time>
      </trkpt>
      <trkpt lat="42.713913" lon="0.160111">
        <ele>2178.0</ele>
        <time>2013-09-22T13:33:09Z</time>
      </trkpt>
      <trkpt lat="42.713944" lon="0.159990">
        <ele>2174.1</ele>
        <time>2013-09-22T13:33:19Z</time>
      </trkpt>
      <trkpt lat="42.713958" lon="0.159860">
        <ele>2170.5</ele>
        <time>2013-09-22T13:33:30Z</time>
      </trkpt>
      <trkpt lat="42.713999" lon="0.159764">
        <ele>2166.4</ele>
        <time>2013-09-22T13:33:43Z</time>
      </trkpt>
      <trkpt lat="42.714078" lon="0.159666">
        <ele>2163.7</ele>
        <time>2013-09-22T13:33:57Z</time>
      </trkpt>
      <trkpt lat="42.714144" lon="0.159562">
        <ele>2162.6</ele>
        <time>2013-09-22T13:34:09Z</time>
      </trkpt>
      <trkpt lat="42.714227" lon="0.159460">
        <ele>2162.2</ele>
        <time>2013-09-22T13:34:19Z</time>
      </trkpt>
      <trkpt lat="42.714318" lon="0.159356">
        <ele>2160.9</ele>
        <time>2013-09-22T13:34:29Z</time>
      </trkpt>
      <trkpt lat="42.714403" lon="0.159288">
        <ele>2159.7</ele>
        <time>2013-09-22T13:34:38Z</time>
      </trkpt>
      <trkpt lat="42.714429" lon="0.159163">
        <ele>2158.6</ele>
        <time>2013-09-22T13:34:49Z</time>
      </trkpt>
      <trkpt lat="42.714484" lon="0.159054">
        <ele>2158.1</ele>
        <time>2013-09-22T13:34:58Z</time>
      </trkpt>
      <trkpt lat="42.714499" lon="0.158946">
        <ele>2157.2</ele>
        <time>2013-09-22T13:35:08Z</time>
      </trkpt>
      <trkpt lat="42.714556" lon="0.158828">
        <ele>2156.5</ele>
        <time>2013-09-22T13:35:18Z</time>
      </trkpt>
      <trkpt lat="42.714519" lon="0.158722">
        <ele>2154.3</ele>
        <time>2013-09-22T13:35:30Z</time>
      </trkpt>
      <trkpt lat="42.714447" lon="0.158602">
        <ele>2150.2</ele>
        <time>2013-09-22T13:35:42Z</time>
      </trkpt>
      <trkpt lat="42.714404" lon="0.158505">
        <ele>2146.7</ele>
        <time>2013-09-22T13:35:54Z</time>
      </trkpt>
      <trkpt lat="42.714338" lon="0.158466">
        <ele>2143.8</ele>
        <time>2013-09-22T13:36:05Z</time>
      </trkpt>
      <trkpt lat="42.714264" lon="0.158431">
        <ele>2140.0</ele>
        <time>2013-09-22T13:36:17Z</time>
      </trkpt>
      <trkpt lat="42.714184" lon="0.158373">
        <ele>2136.8</ele>
        <time>2013-09-22T13:36:29Z</time>
      </trkpt>
      <trkpt lat="42.714156" lon="0.158251">
        <ele>2133.8</ele>
        <time>2013-09-22T13:36:41Z</time>
      </trkpt>
      <trkpt lat="42.714131" lon="0.158116">
        <ele>2132.3</ele>
        <time>2013-09-22T13:36:52Z</time>
      </trkpt>
      <trkpt lat="42.714132" lon="0.157983">
        <ele>2130.7</ele>
        <time>2013-09-22T13:37:03Z</time>
      </trkpt>
      <trkpt lat="42.714092" lon="0.157862">
        <ele>2129.2</ele>
        <time>2013-09-22T13:37:15Z</time>
      </trkpt>
      <trkpt lat="42.714046" lon="0.157735">
        <ele>2128.0</ele>
        <time>2013-09-22T13:37:27Z</time>
      </trkpt>
      <trkpt lat="42.714023" lon="0.157619">
        <ele>2126.7</ele>
        <time>2013-09-22T13:37:38Z</time>
      </trkpt>
      <trkpt lat="42.714023" lon="0.157477">
        <ele>2124.3</ele>
        <time>2013-09-22T13:37:49Z</time>
      </trkpt>
      <trkpt lat="42.713964" lon="0.157369">
        <ele>2122.9</ele>
        <time>2013-09-22T13:37:59Z</time>
      </trkpt>
      <trkpt lat="42.713883" lon="0.157272">
        <ele>2121.6</ele>
        <time>2013-09-22T13:38:09Z</time>
      </trkpt>
      <trkpt lat="42.713802" lon="0.157256">
        <ele>2120.1</ele>
        <time>2013-09-22T13:38:32Z</time>
      </trkpt>
      <trkpt lat="42.713718" lon="0.157202">
        <ele>2119.2</ele>
        <time>2013-09-22T13:38:42Z</time>
      </trkpt>
      <trkpt lat="42.713628" lon="0.157151">
        <ele>2117.9</ele>
        <time>2013-09-22T13:38:52Z</time>
      </trkpt>
      <trkpt lat="42.713560" lon="0.157067">
        <ele>2115.4</ele>
        <time>2013-09-22T13:39:06Z</time>
      </trkpt>
      <trkpt lat="42.713472" lon="0.157052">
        <ele>2114.4</ele>
        <time>2013-09-22T13:39:20Z</time>
      </trkpt>
      <trkpt lat="42.713378" lon="0.157035">
        <ele>2113.3</ele>
        <time>2013-09-22T13:39:30Z</time>
      </trkpt>
      <trkpt lat="42.713277" lon="0.157032">
        <ele>2111.9</ele>
        <time>2013-09-22T13:39:40Z</time>
      </trkpt>
      <trkpt lat="42.713183" lon="0.157048">
        <ele>2110.4</ele>
        <time>2013-09-22T13:39:50Z</time>
      </trkpt>
      <trkpt lat="42.713086" lon="0.157054">
        <ele>2108.8</ele>
        <time>2013-09-22T13:39:59Z</time>
      </trkpt>
      <trkpt lat="42.712998" lon="0.157069">
        <ele>2107.2</ele>
        <time>2013-09-22T13:40:08Z</time>
      </trkpt>
      <trkpt lat="42.712907" lon="0.157043">
        <ele>2106.2</ele>
        <time>2013-09-22T13:40:16Z</time>
      </trkpt>
      <trkpt lat="42.712814" lon="0.157001">
        <ele>2104.7</ele>
        <time>2013-09-22T13:40:26Z</time>
      </trkpt>
      <trkpt lat="42.712732" lon="0.157063">
        <ele>2102.8</ele>
        <time>2013-09-22T13:40:38Z</time>
      </trkpt>
      <trkpt lat="42.712693" lon="0.157161">
        <ele>2101.3</ele>
        <time>2013-09-22T13:40:57Z</time>
      </trkpt>
      <trkpt lat="42.712711" lon="0.157294">
        <ele>2099.8</ele>
        <time>2013-09-22T13:41:06Z</time>
      </trkpt>
      <trkpt lat="42.712747" lon="0.157402">
        <ele>2098.7</ele>
        <time>2013-09-22T13:41:15Z</time>
      </trkpt>
      <trkpt lat="42.712816" lon="0.157500">
        <ele>2096.8</ele>
        <time>2013-09-22T13:41:24Z</time>
      </trkpt>
      <trkpt lat="42.712786" lon="0.157591">
        <ele>2094.8</ele>
        <time>2013-09-22T13:41:33Z</time>
      </trkpt>
      <trkpt lat="42.712749" lon="0.157702">
        <ele>2092.2</ele>
        <time>2013-09-22T13:41:43Z</time>
      </trkpt>
      <trkpt lat="42.712735" lon="0.157812">
        <ele>2089.3</ele>
        <time>2013-09-22T13:41:54Z</time>
      </trkpt>
      <trkpt lat="42.712641" lon="0.157874">
        <ele>2085.6</ele>
        <time>2013-09-22T13:42:08Z</time>
      </trkpt>
      <trkpt lat="42.712598" lon="0.157973">
        <ele>2081.6</ele>
        <time>2013-09-22T13:42:22Z</time>
      </trkpt>
      <trkpt lat="42.712553" lon="0.158107">
        <ele>2079.6</ele>
        <time>2013-09-22T13:42:34Z</time>
      </trkpt>
      <trkpt lat="42.712455" lon="0.158116">
        <ele>2078.4</ele>
        <time>2013-09-22T13:42:46Z</time>
      </trkpt>
      <trkpt lat="42.712353" lon="0.158109">
        <ele>2077.6</ele>
        <time>2013-09-22T13:42:56Z</time>
      </trkpt>
      <trkpt lat="42.712250" lon="0.158103">
        <ele>2075.7</ele>
        <time>2013-09-22T13:43:06Z</time>
      </trkpt>
      <trkpt lat="42.712150" lon="0.158095">
        <ele>2074.0</ele>
        <time>2013-09-22T13:43:17Z</time>
      </trkpt>
      <trkpt lat="42.712054" lon="0.158083">
        <ele>2070.5</ele>
        <time>2013-09-22T13:43:31Z</time>
      </trkpt>
      <trkpt lat="42.711961" lon="0.158129">
        <ele>2066.9</ele>
        <time>2013-09-22T13:43:45Z</time>
      </trkpt>
      <trkpt lat="42.711892" lon="0.158206">
        <ele>2065.0</ele>
        <time>2013-09-22T13:43:55Z</time>
      </trkpt>
      <trkpt lat="42.711799" lon="0.158230">
        <ele>2062.4</ele>
        <time>2013-09-22T13:44:05Z</time>
      </trkpt>
      <trkpt lat="42.711718" lon="0.158276">
        <ele>2059.8</ele>
        <time>2013-09-22T13:44:14Z</time>
      </trkpt>
      <trkpt lat="42.711657" lon="0.158351">
        <ele>2057.7</ele>
        <time>2013-09-22T13:44:24Z</time>
      </trkpt>
      <trkpt lat="42.711554" lon="0.158363">
        <ele>2054.4</ele>
        <time>2013-09-22T13:44:40Z</time>
      </trkpt>
      <trkpt lat="42.711446" lon="0.158384">
        <ele>2052.2</ele>
        <time>2013-09-22T13:44:51Z</time>
      </trkpt>
      <trkpt lat="42.711356" lon="0.158446">
        <ele>2049.2</ele>
        <time>2013-09-22T13:45:02Z</time>
      </trkpt>
      <trkpt lat="42.711264" lon="0.158483">
        <ele>2047.2</ele>
        <time>2013-09-22T13:45:11Z</time>
      </trkpt>
      <trkpt lat="42.711170" lon="0.158535">
        <ele>2045.1</ele>
        <time>2013-09-22T13:45:21Z</time>
      </trkpt>
      <trkpt lat="42.711068" lon="0.158565">
        <ele>2043.2</ele>
        <time>2013-09-22T13:45:31Z</time>
      </trkpt>
      <trkpt lat="42.710974" lon="0.158521">
        <ele>2041.4</ele>
        <time>2013-09-22T13:45:40Z</time>
      </trkpt>
      <trkpt lat="42.710887" lon="0.158431">
        <ele>2039.7</ele>
        <time>2013-09-22T13:45:49Z</time>
      </trkpt>
      <trkpt lat="42.710822" lon="0.158347">
        <ele>2038.5</ele>
        <time>2013-09-22T13:45:57Z</time>
      </trkpt>
      <trkpt lat="42.710729" lon="0.158292">
        <ele>2037.4</ele>
        <time>2013-09-22T13:46:07Z</time>
      </trkpt>
      <trkpt lat="42.710648" lon="0.158247">
        <ele>2034.7</ele>
        <time>2013-09-22T13:46:31Z</time>
      </trkpt>
      <trkpt lat="42.710539" lon="0.158265">
        <ele>2032.9</ele>
        <time>2013-09-22T13:46:44Z</time>
      </trkpt>
      <trkpt lat="42.710438" lon="0.158271">
        <ele>2030.5</ele>
        <time>2013-09-22T13:46:54Z</time>
      </trkpt>
      <trkpt lat="42.710333" lon="0.158244">
        <ele>2029.0</ele>
        <time>2013-09-22T13:47:04Z</time>
      </trkpt>
      <trkpt lat="42.710235" lon="0.158221">
        <ele>2027.8</ele>
        <time>2013-09-22T13:47:14Z</time>
      </trkpt>
      <trkpt lat="42.710141" lon="0.158240">
        <ele>2025.9</ele>
        <time>2013-09-22T13:47:25Z</time>
      </trkpt>
      <trkpt lat="42.710055" lon="0.158289">
        <ele>2023.6</ele>
        <time>2013-09-22T13:47:37Z</time>
      </trkpt>
      <trkpt lat="42.709962" lon="0.158332">
        <ele>2020.2</ele>
        <time>2013-09-22T13:47:49Z</time>
      </trkpt>
      <trkpt lat="42.709906" lon="0.158276">
        <ele>2016.2</ele>
        <time>2013-09-22T13:48:02Z</time>
      </trkpt>
      <trkpt lat="42.709833" lon="0.158208">
        <ele>2011.7</ele>
        <time>2013-09-22T13:48:15Z</time>
      </trkpt>
      <trkpt lat="42.709805" lon="0.158082">
        <ele>2007.6</ele>
        <time>2013-09-22T13:48:28Z</time>
      </trkpt>
      <trkpt lat="42.709742" lon="0.157977">
        <ele>2003.2</ele>
        <time>2013-09-22T13:48:40Z</time>
      </trkpt>
      <trkpt lat="42.709700" lon="0.157863">
        <ele>1999.2</ele>
        <time>2013-09-22T13:48:52Z</time>
      </trkpt>
      <trkpt lat="42.709619" lon="0.157786">
        <ele>1994.3</ele>
        <time>2013-09-22T13:49:04Z</time>
      </trkpt>
      <trkpt lat="42.709542" lon="0.157713">
        <ele>1990.0</ele>
        <time>2013-09-22T13:49:15Z</time>
      </trkpt>
      <trkpt lat="42.709495" lon="0.157618">
        <ele>1986.6</ele>
        <time>2013-09-22T13:49:25Z</time>
      </trkpt>
      <trkpt lat="42.709445" lon="0.157527">
        <ele>1982.5</ele>
        <time>2013-09-22T13:49:36Z</time>
      </trkpt>
      <trkpt lat="42.709389" lon="0.157443">
        <ele>1978.1</ele>
        <time>2013-09-22T13:49:48Z</time>
      </trkpt>
      <trkpt lat="42.709334" lon="0.157354">
        <ele>1974.0</ele>
        <time>2013-09-22T13:50:00Z</time>
      </trkpt>
      <trkpt lat="42.709290" lon="0.157237">
        <ele>1969.4</ele>
        <time>2013-09-22T13:50:13Z</time>
      </trkpt>
      <trkpt lat="42.709213" lon="0.157173">
        <ele>1965.7</ele>
        <time>2013-09-22T13:50:25Z</time>
      </trkpt>
      <trkpt lat="42.709168" lon="0.157072">
        <ele>1960.9</ele>
        <time>2013-09-22T13:50:40Z</time>
      </trkpt>
      <trkpt lat="42.709069" lon="0.156996">
        <ele>1956.6</ele>
        <time>2013-09-22T13:50:52Z</time>
      </trkpt>
      <trkpt lat="42.709022" lon="0.156894">
        <ele>1952.7</ele>
        <time>2013-09-22T13:51:02Z</time>
      </trkpt>
      <trkpt lat="42.708944" lon="0.156825">
        <ele>1947.7</ele>
        <time>2013-09-22T13:51:15Z</time>
      </trkpt>
      <trkpt lat="42.708909" lon="0.156708">
        <ele>1944.2</ele>
        <time>2013-09-22T13:51:26Z</time>
      </trkpt>
      <trkpt lat="42.708889" lon="0.156582">
        <ele>1941.2</ele>
        <time>2013-09-22T13:51:34Z</time>
      </trkpt>
      <trkpt lat="42.708816" lon="0.156484">
        <ele>1937.0</ele>
        <time>2013-09-22T13:51:44Z</time>
      </trkpt>
      <trkpt lat="42.708741" lon="0.156404">
        <ele>1933.4</ele>
        <time>2013-09-22T13:51:55Z</time>
      </trkpt>
      <trkpt lat="42.708658" lon="0.156334">
        <ele>1929.8</ele>
        <time>2013-09-22T13:52:05Z</time>
      </trkpt>
      <trkpt lat="42.708575" lon="0.156255">
        <ele>1926.5</ele>
        <time>2013-09-22T13:52:14Z</time>
      </trkpt>
      <trkpt lat="42.708485" lon="0.156219">
        <ele>1923.2</ele>
        <time>2013-09-22T13:52:22Z</time>
      </trkpt>
      <trkpt lat="42.708400" lon="0.156167">
        <ele>1919.5</ele>
        <time>2013-09-22T13:52:31Z</time>
      </trkpt>
      <trkpt lat="42.708355" lon="0.156072">
        <ele>1915.4</ele>
        <time>2013-09-22T13:52:43Z</time>
      </trkpt>
      <trkpt lat="42.708275" lon="0.156017">
        <ele>1913.5</ele>
        <time>2013-09-22T13:52:52Z</time>
      </trkpt>
      <trkpt lat="42.708188" lon="0.155995">
        <ele>1911.1</ele>
        <time>2013-09-22T13:53:00Z</time>
      </trkpt>
      <trkpt lat="42.708150" lon="0.155927">
        <ele>1907.3</ele>
        <time>2013-09-22T13:53:13Z</time>
      </trkpt>
      <trkpt lat="42.708141" lon="0.155914">
        <ele>1906.1</ele>
        <time>2013-09-22T13:54:06Z</time>
      </trkpt>
      <trkpt lat="42.708186" lon="0.155871">
        <ele>1905.0</ele>
        <time>2013-09-22T13:55:33Z</time>
      </trkpt>
      <trkpt lat="42.708054" lon="0.155929">
        <ele>1903.6</ele>
        <time>2013-09-22T13:55:52Z</time>
      </trkpt>
      <trkpt lat="42.707965" lon="0.155993">
        <ele>1901.6</ele>
        <time>2013-09-22T13:56:02Z</time>
      </trkpt>
      <trkpt lat="42.707879" lon="0.156057">
        <ele>1899.7</ele>
        <time>2013-09-22T13:56:11Z</time>
      </trkpt>
      <trkpt lat="42.707780" lon="0.156094">
        <ele>1897.7</ele>
        <time>2013-09-22T13:56:21Z</time>
      </trkpt>
      <trkpt lat="42.707689" lon="0.156014">
        <ele>1895.2</ele>
        <time>2013-09-22T13:56:31Z</time>
      </trkpt>
      <trkpt lat="42.707636" lon="0.155911">
        <ele>1892.9</ele>
        <time>2013-09-22T13:56:42Z</time>
      </trkpt>
      <trkpt lat="42.707552" lon="0.155881">
        <ele>1890.3</ele>
        <time>2013-09-22T13:56:54Z</time>
      </trkpt>
      <trkpt lat="42.707465" lon="0.155862">
        <ele>1887.8</ele>
        <time>2013-09-22T13:57:04Z</time>
      </trkpt>
      <trkpt lat="42.707370" lon="0.155866">
        <ele>1884.4</ele>
        <time>2013-09-22T13:57:16Z</time>
      </trkpt>
      <trkpt lat="42.707298" lon="0.155865">
        <ele>1882.1</ele>
        <time>2013-09-22T13:57:26Z</time>
      </trkpt>
      <trkpt lat="42.707206" lon="0.155894">
        <ele>1878.8</ele>
        <time>2013-09-22T13:57:37Z</time>
      </trkpt>
      <trkpt lat="42.707124" lon="0.155932">
        <ele>1875.6</ele>
        <time>2013-09-22T13:57:47Z</time>
      </trkpt>
      <trkpt lat="42.707055" lon="0.155926">
        <ele>1871.9</ele>
        <time>2013-09-22T13:57:59Z</time>
      </trkpt>
      <trkpt lat="42.707029" lon="0.156070">
        <ele>1870.0</ele>
        <time>2013-09-22T13:58:11Z</time>
      </trkpt>
      <trkpt lat="42.707011" lon="0.156222">
        <ele>1867.5</ele>
        <time>2013-09-22T13:58:23Z</time>
      </trkpt>
      <trkpt lat="42.706981" lon="0.156327">
        <ele>1865.2</ele>
        <time>2013-09-22T13:58:33Z</time>
      </trkpt>
      <trkpt lat="42.706928" lon="0.156440">
        <ele>1864.1</ele>
        <time>2013-09-22T13:58:42Z</time>
      </trkpt>
      <trkpt lat="42.706894" lon="0.156560">
        <ele>1862.1</ele>
        <time>2013-09-22T13:58:53Z</time>
      </trkpt>
      <trkpt lat="42.706866" lon="0.156681">
        <ele>1859.6</ele>
        <time>2013-09-22T13:59:02Z</time>
      </trkpt>
      <trkpt lat="42.706811" lon="0.156781">
        <ele>1857.8</ele>
        <time>2013-09-22T13:59:10Z</time>
      </trkpt>
      <trkpt lat="42.706737" lon="0.156871">
        <ele>1856.1</ele>
        <time>2013-09-22T13:59:20Z</time>
      </trkpt>
      <trkpt lat="42.706683" lon="0.156993">
        <ele>1854.2</ele>
        <time>2013-09-22T13:59:32Z</time>
      </trkpt>
      <trkpt lat="42.706625" lon="0.157110">
        <ele>1851.5</ele>
        <time>2013-09-22T13:59:45Z</time>
      </trkpt>
      <trkpt lat="42.706582" lon="0.157207">
        <ele>1849.6</ele>
        <time>2013-09-22T13:59:56Z</time>
      </trkpt>
      <trkpt lat="42.706515" lon="0.157330">
        <ele>1846.9</ele>
        <time>2013-09-22T14:00:07Z</time>
      </trkpt>
      <trkpt lat="42.706455" lon="0.157442">
        <ele>1844.4</ele>
        <time>2013-09-22T14:00:18Z</time>
      </trkpt>
      <trkpt lat="42.706409" lon="0.157588">
        <ele>1842.6</ele>
        <time>2013-09-22T14:00:27Z</time>
      </trkpt>
      <trkpt lat="42.706357" lon="0.157689">
        <ele>1840.5</ele>
        <time>2013-09-22T14:00:35Z</time>
      </trkpt>
      <trkpt lat="42.706296" lon="0.157775">
        <ele>1838.4</ele>
        <time>2013-09-22T14:00:43Z</time>
      </trkpt>
      <trkpt lat="42.706240" lon="0.157884">
        <ele>1836.9</ele>
        <time>2013-09-22T14:00:52Z</time>
      </trkpt>
      <trkpt lat="42.706177" lon="0.157970">
        <ele>1835.5</ele>
        <time>2013-09-22T14:01:02Z</time>
      </trkpt>
      <trkpt lat="42.706176" lon="0.157821">
        <ele>1831.8</ele>
        <time>2013-09-22T14:01:17Z</time>
      </trkpt>
      <trkpt lat="42.706185" lon="0.157659">
        <ele>1830.0</ele>
        <time>2013-09-22T14:01:28Z</time>
      </trkpt>
      <trkpt lat="42.706210" lon="0.157519">
        <ele>1828.1</ele>
        <time>2013-09-22T14:01:38Z</time>
      </trkpt>
      <trkpt lat="42.706218" lon="0.157389">
        <ele>1826.8</ele>
        <time>2013-09-22T14:01:47Z</time>
      </trkpt>
      <trkpt lat="42.706181" lon="0.157241">
        <ele>1824.9</ele>
        <time>2013-09-22T14:01:57Z</time>
      </trkpt>
      <trkpt lat="42.706156" lon="0.157171">
        <ele>1822.6</ele>
        <time>2013-09-22T14:02:09Z</time>
      </trkpt>
      <trkpt lat="42.706055" lon="0.157126">
        <ele>1818.2</ele>
        <time>2013-09-22T14:02:21Z</time>
      </trkpt>
      <trkpt lat="42.705965" lon="0.157068">
        <ele>1814.9</ele>
        <time>2013-09-22T14:02:28Z</time>
      </trkpt>
      <trkpt lat="42.705880" lon="0.157106">
        <ele>1810.4</ele>
        <time>2013-09-22T14:02:37Z</time>
      </trkpt>
      <trkpt lat="42.705796" lon="0.157075">
        <ele>1806.3</ele>
        <time>2013-09-22T14:02:46Z</time>
      </trkpt>
      <trkpt lat="42.705707" lon="0.157083">
        <ele>1802.7</ele>
        <time>2013-09-22T14:02:57Z</time>
      </trkpt>
      <trkpt lat="42.705599" lon="0.157109">
        <ele>1799.7</ele>
        <time>2013-09-22T14:03:07Z</time>
      </trkpt>
      <trkpt lat="42.705502" lon="0.157090">
        <ele>1796.9</ele>
        <time>2013-09-22T14:03:16Z</time>
      </trkpt>
      <trkpt lat="42.705431" lon="0.157067">
        <ele>1794.2</ele>
        <time>2013-09-22T14:03:26Z</time>
      </trkpt>
      <trkpt lat="42.705341" lon="0.157070">
        <ele>1791.3</ele>
        <time>2013-09-22T14:03:37Z</time>
      </trkpt>
      <trkpt lat="42.705267" lon="0.157005">
        <ele>1788.6</ele>
        <time>2013-09-22T14:03:46Z</time>
      </trkpt>
      <trkpt lat="42.705177" lon="0.156975">
        <ele>1785.9</ele>
        <time>2013-09-22T14:03:55Z</time>
      </trkpt>
      <trkpt lat="42.705080" lon="0.156939">
        <ele>1783.0</ele>
        <time>2013-09-22T14:04:04Z</time>
      </trkpt>
      <trkpt lat="42.705019" lon="0.156886">
        <ele>1780.8</ele>
        <time>2013-09-22T14:04:12Z</time>
      </trkpt>
      <trkpt lat="42.704959" lon="0.156864">
        <ele>1778.0</ele>
        <time>2013-09-22T14:04:23Z</time>
      </trkpt>
      <trkpt lat="42.704865" lon="0.156840">
        <ele>1774.8</ele>
        <time>2013-09-22T14:04:32Z</time>
      </trkpt>
      <trkpt lat="42.704769" lon="0.156800">
        <ele>1772.4</ele>
        <time>2013-09-22T14:04:41Z</time>
      </trkpt>
      <trkpt lat="42.704675" lon="0.156842">
        <ele>1769.1</ele>
        <time>2013-09-22T14:04:51Z</time>
      </trkpt>
      <trkpt lat="42.704658" lon="0.156860">
        <ele>1765.8</ele>
        <time>2013-09-22T14:05:22Z</time>
      </trkpt>
      <trkpt lat="42.704554" lon="0.156889">
        <ele>1763.9</ele>
        <time>2013-09-22T14:05:34Z</time>
      </trkpt>
      <trkpt lat="42.704472" lon="0.156965">
        <ele>1761.2</ele>
        <time>2013-09-22T14:05:43Z</time>
      </trkpt>
      <trkpt lat="42.704414" lon="0.157060">
        <ele>1758.6</ele>
        <time>2013-09-22T14:05:59Z</time>
        <name>Refugio de Barrosa</name>
      </trkpt>
      <trkpt lat="42.704439" lon="0.157144">
        <ele>1757.3</ele>
        <time>2013-09-22T14:06:24Z</time>
      </trkpt>
      <trkpt lat="42.704460" lon="0.157117">
        <ele>1757.2</ele>
        <time>2013-09-22T14:06:53Z</time>
      </trkpt>
      <trkpt lat="42.704413" lon="0.157086">
        <ele>1756.7</ele>
        <time>2013-09-22T14:07:23Z</time>
      </trkpt>
      <trkpt lat="42.704324" lon="0.157108">
        <ele>1756.5</ele>
        <time>2013-09-22T14:07:45Z</time>
      </trkpt>
      <trkpt lat="42.704307" lon="0.157092">
        <ele>1754.6</ele>
        <time>2013-09-22T14:08:03Z</time>
      </trkpt>
      <trkpt lat="42.704340" lon="0.157051">
        <ele>1748.9</ele>
        <time>2013-09-22T14:21:32Z</time>
      </trkpt>
      <trkpt lat="42.704350" lon="0.157067">
        <ele>1748.5</ele>
        <time>2013-09-22T14:22:17Z</time>
      </trkpt>
      <trkpt lat="42.704319" lon="0.157077">
        <ele>1748.3</ele>
        <time>2013-09-22T14:22:50Z</time>
      </trkpt>
      <trkpt lat="42.704206" lon="0.157036">
        <ele>1746.6</ele>
        <time>2013-09-22T14:23:05Z</time>
      </trkpt>
      <trkpt lat="42.704102" lon="0.157045">
        <ele>1744.7</ele>
        <time>2013-09-22T14:23:17Z</time>
      </trkpt>
      <trkpt lat="42.704054" lon="0.157102">
        <ele>1741.7</ele>
        <time>2013-09-22T14:23:35Z</time>
      </trkpt>
      <trkpt lat="42.703980" lon="0.157170">
        <ele>1739.7</ele>
        <time>2013-09-22T14:23:49Z</time>
      </trkpt>
      <trkpt lat="42.703956" lon="0.157271">
        <ele>1737.6</ele>
        <time>2013-09-22T14:24:00Z</time>
      </trkpt>
      <trkpt lat="42.703943" lon="0.157407">
        <ele>1735.7</ele>
        <time>2013-09-22T14:24:11Z</time>
      </trkpt>
      <trkpt lat="42.703937" lon="0.157531">
        <ele>1734.5</ele>
        <time>2013-09-22T14:24:19Z</time>
      </trkpt>
      <trkpt lat="42.703945" lon="0.157663">
        <ele>1732.8</ele>
        <time>2013-09-22T14:24:29Z</time>
      </trkpt>
      <trkpt lat="42.703944" lon="0.157796">
        <ele>1731.4</ele>
        <time>2013-09-22T14:24:38Z</time>
      </trkpt>
      <trkpt lat="42.703925" lon="0.157913">
        <ele>1729.6</ele>
        <time>2013-09-22T14:24:47Z</time>
      </trkpt>
      <trkpt lat="42.703895" lon="0.158029">
        <ele>1728.6</ele>
        <time>2013-09-22T14:24:56Z</time>
      </trkpt>
      <trkpt lat="42.703888" lon="0.158161">
        <ele>1727.7</ele>
        <time>2013-09-22T14:25:05Z</time>
      </trkpt>
      <trkpt lat="42.703863" lon="0.158284">
        <ele>1725.9</ele>
        <time>2013-09-22T14:25:15Z</time>
      </trkpt>
      <trkpt lat="42.703859" lon="0.158434">
        <ele>1724.4</ele>
        <time>2013-09-22T14:25:26Z</time>
      </trkpt>
      <trkpt lat="42.703860" lon="0.158563">
        <ele>1722.5</ele>
        <time>2013-09-22T14:25:41Z</time>
      </trkpt>
      <trkpt lat="42.703896" lon="0.158664">
        <ele>1720.4</ele>
        <time>2013-09-22T14:25:52Z</time>
      </trkpt>
      <trkpt lat="42.703872" lon="0.158782">
        <ele>1718.5</ele>
        <time>2013-09-22T14:26:05Z</time>
      </trkpt>
      <trkpt lat="42.703796" lon="0.158882">
        <ele>1716.7</ele>
        <time>2013-09-22T14:26:16Z</time>
      </trkpt>
      <trkpt lat="42.703721" lon="0.158963">
        <ele>1715.5</ele>
        <time>2013-09-22T14:26:30Z</time>
      </trkpt>
      <trkpt lat="42.703635" lon="0.159074">
        <ele>1715.1</ele>
        <time>2013-09-22T14:26:43Z</time>
      </trkpt>
      <trkpt lat="42.703569" lon="0.159175">
        <ele>1716.3</ele>
        <time>2013-09-22T14:26:54Z</time>
      </trkpt>
      <trkpt lat="42.703501" lon="0.159240">
        <ele>1715.9</ele>
        <time>2013-09-22T14:27:12Z</time>
      </trkpt>
      <trkpt lat="42.703423" lon="0.159343">
        <ele>1714.9</ele>
        <time>2013-09-22T14:27:23Z</time>
      </trkpt>
      <trkpt lat="42.703383" lon="0.159472">
        <ele>1714.1</ele>
        <time>2013-09-22T14:27:33Z</time>
      </trkpt>
      <trkpt lat="42.703376" lon="0.159595">
        <ele>1713.5</ele>
        <time>2013-09-22T14:27:42Z</time>
      </trkpt>
      <trkpt lat="42.703345" lon="0.159720">
        <ele>1712.3</ele>
        <time>2013-09-22T14:27:52Z</time>
      </trkpt>
      <trkpt lat="42.703303" lon="0.159846">
        <ele>1711.4</ele>
        <time>2013-09-22T14:28:00Z</time>
      </trkpt>
      <trkpt lat="42.703252" lon="0.159966">
        <ele>1709.8</ele>
        <time>2013-09-22T14:28:11Z</time>
      </trkpt>
      <trkpt lat="42.703234" lon="0.160090">
        <ele>1709.5</ele>
        <time>2013-09-22T14:28:24Z</time>
      </trkpt>
      <trkpt lat="42.703241" lon="0.160252">
        <ele>1708.9</ele>
        <time>2013-09-22T14:28:34Z</time>
      </trkpt>
      <trkpt lat="42.703261" lon="0.160383">
        <ele>1708.2</ele>
        <time>2013-09-22T14:28:43Z</time>
      </trkpt>
      <trkpt lat="42.703241" lon="0.160506">
        <ele>1706.9</ele>
        <time>2013-09-22T14:28:53Z</time>
      </trkpt>
      <trkpt lat="42.703253" lon="0.160649">
        <ele>1706.1</ele>
        <time>2013-09-22T14:29:01Z</time>
      </trkpt>
      <trkpt lat="42.703240" lon="0.160778">
        <ele>1705.4</ele>
        <time>2013-09-22T14:29:10Z</time>
      </trkpt>
      <trkpt lat="42.703192" lon="0.160888">
        <ele>1704.6</ele>
        <time>2013-09-22T14:29:18Z</time>
      </trkpt>
      <trkpt lat="42.703134" lon="0.160993">
        <ele>1704.2</ele>
        <time>2013-09-22T14:29:25Z</time>
      </trkpt>
      <trkpt lat="42.703084" lon="0.161121">
        <ele>1703.5</ele>
        <time>2013-09-22T14:29:33Z</time>
      </trkpt>
      <trkpt lat="42.702993" lon="0.161188">
        <ele>1702.6</ele>
        <time>2013-09-22T14:29:41Z</time>
      </trkpt>
      <trkpt lat="42.702916" lon="0.161259">
        <ele>1701.7</ele>
        <time>2013-09-22T14:29:50Z</time>
      </trkpt>
      <trkpt lat="42.702830" lon="0.161325">
        <ele>1701.6</ele>
        <time>2013-09-22T14:30:00Z</time>
      </trkpt>
      <trkpt lat="42.702791" lon="0.161481">
        <ele>1701.6</ele>
        <time>2013-09-22T14:30:10Z</time>
      </trkpt>
      <trkpt lat="42.702738" lon="0.161586">
        <ele>1701.1</ele>
        <time>2013-09-22T14:30:19Z</time>
      </trkpt>
      <trkpt lat="42.702688" lon="0.161685">
        <ele>1700.4</ele>
        <time>2013-09-22T14:30:28Z</time>
      </trkpt>
      <trkpt lat="42.702656" lon="0.161780">
        <ele>1699.6</ele>
        <time>2013-09-22T14:30:38Z</time>
      </trkpt>
      <trkpt lat="42.702607" lon="0.161883">
        <ele>1699.2</ele>
        <time>2013-09-22T14:30:47Z</time>
      </trkpt>
      <trkpt lat="42.702565" lon="0.162007">
        <ele>1699.0</ele>
        <time>2013-09-22T14:30:57Z</time>
      </trkpt>
      <trkpt lat="42.702490" lon="0.162085">
        <ele>1698.3</ele>
        <time>2013-09-22T14:31:06Z</time>
      </trkpt>
      <trkpt lat="42.702438" lon="0.162204">
        <ele>1698.1</ele>
        <time>2013-09-22T14:31:15Z</time>
      </trkpt>
      <trkpt lat="42.702399" lon="0.162338">
        <ele>1696.7</ele>
        <time>2013-09-22T14:31:27Z</time>
      </trkpt>
      <trkpt lat="42.702416" lon="0.162468">
        <ele>1695.3</ele>
        <time>2013-09-22T14:31:37Z</time>
      </trkpt>
      <trkpt lat="42.702411" lon="0.162628">
        <ele>1694.9</ele>
        <time>2013-09-22T14:31:47Z</time>
      </trkpt>
      <trkpt lat="42.702406" lon="0.162758">
        <ele>1694.1</ele>
        <time>2013-09-22T14:31:56Z</time>
      </trkpt>
      <trkpt lat="42.702406" lon="0.162919">
        <ele>1693.2</ele>
        <time>2013-09-22T14:32:06Z</time>
      </trkpt>
      <trkpt lat="42.702397" lon="0.163031">
        <ele>1692.8</ele>
        <time>2013-09-22T14:32:14Z</time>
      </trkpt>
      <trkpt lat="42.702430" lon="0.163180">
        <ele>1692.6</ele>
        <time>2013-09-22T14:32:24Z</time>
      </trkpt>
      <trkpt lat="42.702458" lon="0.163309">
        <ele>1692.3</ele>
        <time>2013-09-22T14:32:33Z</time>
      </trkpt>
      <trkpt lat="42.702504" lon="0.163424">
        <ele>1692.8</ele>
        <time>2013-09-22T14:32:45Z</time>
      </trkpt>
      <trkpt lat="42.702511" lon="0.163568">
        <ele>1693.5</ele>
        <time>2013-09-22T14:32:58Z</time>
      </trkpt>
      <trkpt lat="42.702512" lon="0.163702">
        <ele>1693.3</ele>
        <time>2013-09-22T14:33:09Z</time>
      </trkpt>
      <trkpt lat="42.702510" lon="0.163880">
        <ele>1693.1</ele>
        <time>2013-09-22T14:33:19Z</time>
      </trkpt>
      <trkpt lat="42.702551" lon="0.164009">
        <ele>1692.2</ele>
        <time>2013-09-22T14:33:28Z</time>
      </trkpt>
      <trkpt lat="42.702632" lon="0.164079">
        <ele>1690.7</ele>
        <time>2013-09-22T14:33:38Z</time>
      </trkpt>
      <trkpt lat="42.702615" lon="0.164207">
        <ele>1690.1</ele>
        <time>2013-09-22T14:33:49Z</time>
      </trkpt>
      <trkpt lat="42.702570" lon="0.164344">
        <ele>1690.5</ele>
        <time>2013-09-22T14:34:02Z</time>
      </trkpt>
      <trkpt lat="42.702575" lon="0.164482">
        <ele>1689.9</ele>
        <time>2013-09-22T14:34:12Z</time>
      </trkpt>
      <trkpt lat="42.702595" lon="0.164646">
        <ele>1689.2</ele>
        <time>2013-09-22T14:34:21Z</time>
      </trkpt>
      <trkpt lat="42.702573" lon="0.164757">
        <ele>1688.4</ele>
        <time>2013-09-22T14:34:30Z</time>
      </trkpt>
      <trkpt lat="42.702538" lon="0.164868">
        <ele>1687.6</ele>
        <time>2013-09-22T14:34:39Z</time>
      </trkpt>
      <trkpt lat="42.702539" lon="0.165028">
        <ele>1687.0</ele>
        <time>2013-09-22T14:34:48Z</time>
      </trkpt>
      <trkpt lat="42.702527" lon="0.165156">
        <ele>1686.7</ele>
        <time>2013-09-22T14:34:57Z</time>
      </trkpt>
      <trkpt lat="42.702537" lon="0.165290">
        <ele>1685.7</ele>
        <time>2013-09-22T14:35:06Z</time>
      </trkpt>
      <trkpt lat="42.702559" lon="0.165425">
        <ele>1684.9</ele>
        <time>2013-09-22T14:35:14Z</time>
      </trkpt>
      <trkpt lat="42.702527" lon="0.165541">
        <ele>1684.0</ele>
        <time>2013-09-22T14:35:23Z</time>
      </trkpt>
      <trkpt lat="42.702514" lon="0.165684">
        <ele>1683.2</ele>
        <time>2013-09-22T14:35:33Z</time>
      </trkpt>
      <trkpt lat="42.702497" lon="0.165817">
        <ele>1682.5</ele>
        <time>2013-09-22T14:35:42Z</time>
      </trkpt>
      <trkpt lat="42.702435" lon="0.165950">
        <ele>1682.1</ele>
        <time>2013-09-22T14:35:51Z</time>
      </trkpt>
      <trkpt lat="42.702371" lon="0.166046">
        <ele>1681.8</ele>
        <time>2013-09-22T14:36:00Z</time>
      </trkpt>
      <trkpt lat="42.702337" lon="0.166154">
        <ele>1681.2</ele>
        <time>2013-09-22T14:36:09Z</time>
      </trkpt>
      <trkpt lat="42.702267" lon="0.166260">
        <ele>1680.5</ele>
        <time>2013-09-22T14:36:18Z</time>
      </trkpt>
      <trkpt lat="42.702241" lon="0.166395">
        <ele>1679.6</ele>
        <time>2013-09-22T14:36:27Z</time>
      </trkpt>
      <trkpt lat="42.702212" lon="0.166504">
        <ele>1677.9</ele>
        <time>2013-09-22T14:36:37Z</time>
      </trkpt>
      <trkpt lat="42.702285" lon="0.166650">
        <ele>1676.2</ele>
        <time>2013-09-22T14:36:48Z</time>
      </trkpt>
      <trkpt lat="42.702206" lon="0.166759">
        <ele>1675.5</ele>
        <time>2013-09-22T14:36:59Z</time>
      </trkpt>
      <trkpt lat="42.702128" lon="0.166860">
        <ele>1674.6</ele>
        <time>2013-09-22T14:37:09Z</time>
      </trkpt>
      <trkpt lat="42.702073" lon="0.166961">
        <ele>1674.4</ele>
        <time>2013-09-22T14:37:17Z</time>
      </trkpt>
      <trkpt lat="42.702005" lon="0.167097">
        <ele>1673.3</ele>
        <time>2013-09-22T14:37:31Z</time>
      </trkpt>
      <trkpt lat="42.701943" lon="0.167228">
        <ele>1672.4</ele>
        <time>2013-09-22T14:37:41Z</time>
      </trkpt>
      <trkpt lat="42.701855" lon="0.167316">
        <ele>1671.3</ele>
        <time>2013-09-22T14:37:50Z</time>
      </trkpt>
      <trkpt lat="42.701795" lon="0.167450">
        <ele>1670.4</ele>
        <time>2013-09-22T14:38:00Z</time>
      </trkpt>
      <trkpt lat="42.701748" lon="0.167566">
        <ele>1669.7</ele>
        <time>2013-09-22T14:38:08Z</time>
      </trkpt>
      <trkpt lat="42.701697" lon="0.167682">
        <ele>1669.5</ele>
        <time>2013-09-22T14:38:16Z</time>
      </trkpt>
      <trkpt lat="42.701639" lon="0.167795">
        <ele>1669.1</ele>
        <time>2013-09-22T14:38:26Z</time>
      </trkpt>
      <trkpt lat="42.701610" lon="0.167928">
        <ele>1668.9</ele>
        <time>2013-09-22T14:38:37Z</time>
      </trkpt>
      <trkpt lat="42.701655" lon="0.168033">
        <ele>1668.8</ele>
        <time>2013-09-22T14:38:45Z</time>
      </trkpt>
      <trkpt lat="42.701613" lon="0.168143">
        <ele>1668.9</ele>
        <time>2013-09-22T14:38:54Z</time>
      </trkpt>
      <trkpt lat="42.701566" lon="0.168259">
        <ele>1668.7</ele>
        <time>2013-09-22T14:39:05Z</time>
      </trkpt>
      <trkpt lat="42.701557" lon="0.168384">
        <ele>1667.8</ele>
        <time>2013-09-22T14:39:15Z</time>
      </trkpt>
      <trkpt lat="42.701531" lon="0.168521">
        <ele>1666.6</ele>
        <time>2013-09-22T14:39:26Z</time>
      </trkpt>
      <trkpt lat="42.701545" lon="0.168650">
        <ele>1665.8</ele>
        <time>2013-09-22T14:39:35Z</time>
      </trkpt>
      <trkpt lat="42.701556" lon="0.168811">
        <ele>1665.1</ele>
        <time>2013-09-22T14:39:44Z</time>
      </trkpt>
      <trkpt lat="42.701565" lon="0.168940">
        <ele>1664.5</ele>
        <time>2013-09-22T14:39:52Z</time>
      </trkpt>
      <trkpt lat="42.701603" lon="0.169089">
        <ele>1664.2</ele>
        <time>2013-09-22T14:40:02Z</time>
      </trkpt>
      <trkpt lat="42.701588" lon="0.169229">
        <ele>1663.7</ele>
        <time>2013-09-22T14:40:12Z</time>
      </trkpt>
      <trkpt lat="42.701557" lon="0.169344">
        <ele>1662.8</ele>
        <time>2013-09-22T14:40:21Z</time>
      </trkpt>
      <trkpt lat="42.701549" lon="0.169489">
        <ele>1661.7</ele>
        <time>2013-09-22T14:40:32Z</time>
      </trkpt>
      <trkpt lat="42.701515" lon="0.169645">
        <ele>1660.1</ele>
        <time>2013-09-22T14:40:43Z</time>
      </trkpt>
      <trkpt lat="42.701493" lon="0.169788">
        <ele>1658.8</ele>
        <time>2013-09-22T14:40:52Z</time>
      </trkpt>
      <trkpt lat="42.701516" lon="0.169926">
        <ele>1657.7</ele>
        <time>2013-09-22T14:41:01Z</time>
      </trkpt>
      <trkpt lat="42.701516" lon="0.170047">
        <ele>1657.2</ele>
        <time>2013-09-22T14:41:13Z</time>
      </trkpt>
      <trkpt lat="42.701493" lon="0.170206">
        <ele>1656.3</ele>
        <time>2013-09-22T14:41:26Z</time>
      </trkpt>
      <trkpt lat="42.701525" lon="0.170321">
        <ele>1655.2</ele>
        <time>2013-09-22T14:41:38Z</time>
      </trkpt>
      <trkpt lat="42.701549" lon="0.170461">
        <ele>1654.2</ele>
        <time>2013-09-22T14:41:51Z</time>
      </trkpt>
      <trkpt lat="42.701512" lon="0.170604">
        <ele>1653.0</ele>
        <time>2013-09-22T14:42:03Z</time>
      </trkpt>
      <trkpt lat="42.701508" lon="0.170761">
        <ele>1652.0</ele>
        <time>2013-09-22T14:42:13Z</time>
      </trkpt>
      <trkpt lat="42.701518" lon="0.170902">
        <ele>1651.7</ele>
        <time>2013-09-22T14:42:21Z</time>
      </trkpt>
      <trkpt lat="42.701516" lon="0.171034">
        <ele>1652.0</ele>
        <time>2013-09-22T14:42:30Z</time>
      </trkpt>
      <trkpt lat="42.701521" lon="0.171188">
        <ele>1652.2</ele>
        <time>2013-09-22T14:42:40Z</time>
      </trkpt>
      <trkpt lat="42.701486" lon="0.171341">
        <ele>1651.6</ele>
        <time>2013-09-22T14:42:48Z</time>
      </trkpt>
      <trkpt lat="42.701460" lon="0.171449">
        <ele>1650.9</ele>
        <time>2013-09-22T14:42:55Z</time>
      </trkpt>
      <trkpt lat="42.701430" lon="0.171571">
        <ele>1650.2</ele>
        <time>2013-09-22T14:43:03Z</time>
      </trkpt>
      <trkpt lat="42.701408" lon="0.171696">
        <ele>1649.1</ele>
        <time>2013-09-22T14:43:11Z</time>
      </trkpt>
      <trkpt lat="42.701391" lon="0.171820">
        <ele>1648.3</ele>
        <time>2013-09-22T14:43:19Z</time>
      </trkpt>
      <trkpt lat="42.701390" lon="0.171949">
        <ele>1647.4</ele>
        <time>2013-09-22T14:43:27Z</time>
      </trkpt>
      <trkpt lat="42.701353" lon="0.172062">
        <ele>1646.9</ele>
        <time>2013-09-22T14:43:35Z</time>
      </trkpt>
      <trkpt lat="42.701307" lon="0.172161">
        <ele>1646.0</ele>
        <time>2013-09-22T14:43:43Z</time>
      </trkpt>
      <trkpt lat="42.701282" lon="0.172295">
        <ele>1644.6</ele>
        <time>2013-09-22T14:43:53Z</time>
      </trkpt>
      <trkpt lat="42.701263" lon="0.172422">
        <ele>1643.1</ele>
        <time>2013-09-22T14:44:05Z</time>
      </trkpt>
      <trkpt lat="42.701275" lon="0.172595">
        <ele>1642.2</ele>
        <time>2013-09-22T14:44:17Z</time>
      </trkpt>
      <trkpt lat="42.701284" lon="0.172734">
        <ele>1641.4</ele>
        <time>2013-09-22T14:44:27Z</time>
      </trkpt>
      <trkpt lat="42.701276" lon="0.172884">
        <ele>1640.8</ele>
        <time>2013-09-22T14:44:38Z</time>
      </trkpt>
      <trkpt lat="42.701269" lon="0.173025">
        <ele>1640.5</ele>
        <time>2013-09-22T14:44:48Z</time>
      </trkpt>
      <trkpt lat="42.701288" lon="0.173175">
        <ele>1640.0</ele>
        <time>2013-09-22T14:44:58Z</time>
      </trkpt>
      <trkpt lat="42.701278" lon="0.173339">
        <ele>1639.3</ele>
        <time>2013-09-22T14:45:09Z</time>
      </trkpt>
      <trkpt lat="42.701298" lon="0.173490">
        <ele>1638.6</ele>
        <time>2013-09-22T14:45:19Z</time>
      </trkpt>
      <trkpt lat="42.701326" lon="0.173614">
        <ele>1638.2</ele>
        <time>2013-09-22T14:45:29Z</time>
      </trkpt>
      <trkpt lat="42.701341" lon="0.173751">
        <ele>1637.1</ele>
        <time>2013-09-22T14:45:40Z</time>
      </trkpt>
      <trkpt lat="42.701368" lon="0.173894">
        <ele>1636.1</ele>
        <time>2013-09-22T14:45:50Z</time>
      </trkpt>
      <trkpt lat="42.701403" lon="0.174052">
        <ele>1635.6</ele>
        <time>2013-09-22T14:45:59Z</time>
      </trkpt>
      <trkpt lat="42.701423" lon="0.174184">
        <ele>1634.3</ele>
        <time>2013-09-22T14:46:08Z</time>
      </trkpt>
      <trkpt lat="42.701431" lon="0.174333">
        <ele>1633.0</ele>
        <time>2013-09-22T14:46:17Z</time>
      </trkpt>
      <trkpt lat="42.701400" lon="0.174484">
        <ele>1632.0</ele>
        <time>2013-09-22T14:46:27Z</time>
      </trkpt>
      <trkpt lat="42.701345" lon="0.174630">
        <ele>1630.7</ele>
        <time>2013-09-22T14:46:37Z</time>
      </trkpt>
      <trkpt lat="42.701329" lon="0.174784">
        <ele>1630.1</ele>
        <time>2013-09-22T14:46:46Z</time>
      </trkpt>
      <trkpt lat="42.701270" lon="0.174901">
        <ele>1629.3</ele>
        <time>2013-09-22T14:46:55Z</time>
      </trkpt>
      <trkpt lat="42.701203" lon="0.174992">
        <ele>1627.8</ele>
        <time>2013-09-22T14:47:05Z</time>
      </trkpt>
      <trkpt lat="42.701176" lon="0.175134">
        <ele>1626.5</ele>
        <time>2013-09-22T14:47:16Z</time>
      </trkpt>
      <trkpt lat="42.701159" lon="0.175274">
        <ele>1625.7</ele>
        <time>2013-09-22T14:47:25Z</time>
      </trkpt>
      <trkpt lat="42.701166" lon="0.175418">
        <ele>1624.7</ele>
        <time>2013-09-22T14:47:35Z</time>
      </trkpt>
      <trkpt lat="42.701136" lon="0.175561">
        <ele>1623.4</ele>
        <time>2013-09-22T14:47:44Z</time>
      </trkpt>
      <trkpt lat="42.701102" lon="0.175677">
        <ele>1621.9</ele>
        <time>2013-09-22T14:47:54Z</time>
      </trkpt>
      <trkpt lat="42.700983" lon="0.175796">
        <ele>1620.5</ele>
        <time>2013-09-22T14:48:05Z</time>
      </trkpt>
      <trkpt lat="42.700890" lon="0.175886">
        <ele>1619.1</ele>
        <time>2013-09-22T14:48:15Z</time>
      </trkpt>
      <trkpt lat="42.700843" lon="0.176017">
        <ele>1618.4</ele>
        <time>2013-09-22T14:48:25Z</time>
      </trkpt>
      <trkpt lat="42.700957" lon="0.176111">
        <ele>1617.8</ele>
        <time>2013-09-22T14:48:37Z</time>
      </trkpt>
      <trkpt lat="42.701024" lon="0.176245">
        <ele>1617.1</ele>
        <time>2013-09-22T14:48:46Z</time>
      </trkpt>
      <trkpt lat="42.701006" lon="0.176365">
        <ele>1615.7</ele>
        <time>2013-09-22T14:48:56Z</time>
      </trkpt>
      <trkpt lat="42.700977" lon="0.176505">
        <ele>1614.8</ele>
        <time>2013-09-22T14:49:05Z</time>
      </trkpt>
      <trkpt lat="42.700932" lon="0.176626">
        <ele>1613.9</ele>
        <time>2013-09-22T14:49:15Z</time>
      </trkpt>
      <trkpt lat="42.700839" lon="0.176688">
        <ele>1612.6</ele>
        <time>2013-09-22T14:49:24Z</time>
      </trkpt>
      <trkpt lat="42.700831" lon="0.176845">
        <ele>1612.1</ele>
        <time>2013-09-22T14:49:34Z</time>
      </trkpt>
      <trkpt lat="42.700920" lon="0.176977">
        <ele>1611.9</ele>
        <time>2013-09-22T14:49:44Z</time>
      </trkpt>
      <trkpt lat="42.700959" lon="0.177091">
        <ele>1610.8</ele>
        <time>2013-09-22T14:49:54Z</time>
      </trkpt>
      <trkpt lat="42.700936" lon="0.177242">
        <ele>1609.8</ele>
        <time>2013-09-22T14:50:03Z</time>
      </trkpt>
      <trkpt lat="42.700919" lon="0.177376">
        <ele>1608.7</ele>
        <time>2013-09-22T14:50:12Z</time>
      </trkpt>
      <trkpt lat="42.700910" lon="0.177470">
        <ele>1607.3</ele>
        <time>2013-09-22T14:50:23Z</time>
      </trkpt>
      <trkpt lat="42.700931" lon="0.177624">
        <ele>1605.5</ele>
        <time>2013-09-22T14:50:35Z</time>
      </trkpt>
      <trkpt lat="42.700943" lon="0.177736">
        <ele>1604.1</ele>
        <time>2013-09-22T14:50:43Z</time>
      </trkpt>
      <trkpt lat="42.700989" lon="0.177864">
        <ele>1602.8</ele>
        <time>2013-09-22T14:50:52Z</time>
      </trkpt>
      <trkpt lat="42.701016" lon="0.178005">
        <ele>1601.5</ele>
        <time>2013-09-22T14:51:01Z</time>
      </trkpt>
      <trkpt lat="42.701013" lon="0.178166">
        <ele>1600.1</ele>
        <time>2013-09-22T14:51:11Z</time>
      </trkpt>
      <trkpt lat="42.700986" lon="0.178306">
        <ele>1598.6</ele>
        <time>2013-09-22T14:51:21Z</time>
      </trkpt>
      <trkpt lat="42.700913" lon="0.178426">
        <ele>1597.2</ele>
        <time>2013-09-22T14:51:30Z</time>
      </trkpt>
      <trkpt lat="42.700853" lon="0.178558">
        <ele>1596.3</ele>
        <time>2013-09-22T14:51:39Z</time>
      </trkpt>
      <trkpt lat="42.700780" lon="0.178664">
        <ele>1595.4</ele>
        <time>2013-09-22T14:51:49Z</time>
      </trkpt>
      <trkpt lat="42.700796" lon="0.178777">
        <ele>1594.9</ele>
        <time>2013-09-22T14:51:57Z</time>
      </trkpt>
      <trkpt lat="42.700766" lon="0.178907">
        <ele>1593.9</ele>
        <time>2013-09-22T14:52:05Z</time>
      </trkpt>
      <trkpt lat="42.700754" lon="0.179022">
        <ele>1593.1</ele>
        <time>2013-09-22T14:52:13Z</time>
      </trkpt>
      <trkpt lat="42.700685" lon="0.179126">
        <ele>1592.0</ele>
        <time>2013-09-22T14:52:23Z</time>
      </trkpt>
      <trkpt lat="42.700586" lon="0.179221">
        <ele>1590.6</ele>
        <time>2013-09-22T14:52:32Z</time>
      </trkpt>
      <trkpt lat="42.700498" lon="0.179288">
        <ele>1589.3</ele>
        <time>2013-09-22T14:52:41Z</time>
      </trkpt>
      <trkpt lat="42.700472" lon="0.179404">
        <ele>1588.3</ele>
        <time>2013-09-22T14:52:49Z</time>
      </trkpt>
      <trkpt lat="42.700497" lon="0.179552">
        <ele>1587.2</ele>
        <time>2013-09-22T14:52:58Z</time>
      </trkpt>
      <trkpt lat="42.700424" lon="0.179650">
        <ele>1586.1</ele>
        <time>2013-09-22T14:53:07Z</time>
      </trkpt>
      <trkpt lat="42.700350" lon="0.179748">
        <ele>1584.8</ele>
        <time>2013-09-22T14:53:17Z</time>
      </trkpt>
      <trkpt lat="42.700286" lon="0.179856">
        <ele>1583.7</ele>
        <time>2013-09-22T14:53:26Z</time>
      </trkpt>
      <trkpt lat="42.700201" lon="0.179970">
        <ele>1582.4</ele>
        <time>2013-09-22T14:53:36Z</time>
      </trkpt>
      <trkpt lat="42.700156" lon="0.180065">
        <ele>1581.1</ele>
        <time>2013-09-22T14:53:44Z</time>
      </trkpt>
      <trkpt lat="42.700194" lon="0.180205">
        <ele>1580.9</ele>
        <time>2013-09-22T14:53:53Z</time>
      </trkpt>
      <trkpt lat="42.700250" lon="0.180325">
        <ele>1580.7</ele>
        <time>2013-09-22T14:54:01Z</time>
      </trkpt>
      <trkpt lat="42.700314" lon="0.180436">
        <ele>1580.2</ele>
        <time>2013-09-22T14:54:09Z</time>
      </trkpt>
      <trkpt lat="42.700349" lon="0.180568">
        <ele>1579.8</ele>
        <time>2013-09-22T14:54:17Z</time>
      </trkpt>
      <trkpt lat="42.700391" lon="0.180673">
        <ele>1579.2</ele>
        <time>2013-09-22T14:54:25Z</time>
      </trkpt>
      <trkpt lat="42.700451" lon="0.180799">
        <ele>1578.6</ele>
        <time>2013-09-22T14:54:35Z</time>
      </trkpt>
      <trkpt lat="42.700487" lon="0.180943">
        <ele>1577.9</ele>
        <time>2013-09-22T14:54:44Z</time>
      </trkpt>
      <trkpt lat="42.700536" lon="0.181072">
        <ele>1576.8</ele>
        <time>2013-09-22T14:54:54Z</time>
      </trkpt>
      <trkpt lat="42.700560" lon="0.181201">
        <ele>1575.7</ele>
        <time>2013-09-22T14:55:05Z</time>
      </trkpt>
      <trkpt lat="42.700588" lon="0.181325">
        <ele>1574.0</ele>
        <time>2013-09-22T14:55:16Z</time>
      </trkpt>
      <trkpt lat="42.700589" lon="0.181471">
        <ele>1573.0</ele>
        <time>2013-09-22T14:55:28Z</time>
      </trkpt>
      <trkpt lat="42.700602" lon="0.181606">
        <ele>1571.7</ele>
        <time>2013-09-22T14:55:38Z</time>
      </trkpt>
      <trkpt lat="42.700561" lon="0.181723">
        <ele>1570.3</ele>
        <time>2013-09-22T14:55:47Z</time>
      </trkpt>
      <trkpt lat="42.700624" lon="0.181852">
        <ele>1569.6</ele>
        <time>2013-09-22T14:55:58Z</time>
      </trkpt>
      <trkpt lat="42.700667" lon="0.182007">
        <ele>1568.6</ele>
        <time>2013-09-22T14:56:09Z</time>
      </trkpt>
      <trkpt lat="42.700669" lon="0.182146">
        <ele>1567.1</ele>
        <time>2013-09-22T14:56:19Z</time>
      </trkpt>
      <trkpt lat="42.700668" lon="0.182284">
        <ele>1566.0</ele>
        <time>2013-09-22T14:56:28Z</time>
      </trkpt>
      <trkpt lat="42.700702" lon="0.182433">
        <ele>1564.7</ele>
        <time>2013-09-22T14:56:38Z</time>
      </trkpt>
      <trkpt lat="42.700706" lon="0.182571">
        <ele>1563.6</ele>
        <time>2013-09-22T14:56:46Z</time>
      </trkpt>
      <trkpt lat="42.700705" lon="0.182717">
        <ele>1562.5</ele>
        <time>2013-09-22T14:56:54Z</time>
      </trkpt>
      <trkpt lat="42.700697" lon="0.182837">
        <ele>1561.2</ele>
        <time>2013-09-22T14:57:02Z</time>
      </trkpt>
      <trkpt lat="42.700665" lon="0.182945">
        <ele>1560.2</ele>
        <time>2013-09-22T14:57:09Z</time>
      </trkpt>
      <trkpt lat="42.700635" lon="0.183056">
        <ele>1558.8</ele>
        <time>2013-09-22T14:57:16Z</time>
      </trkpt>
      <trkpt lat="42.700632" lon="0.183171">
        <ele>1557.8</ele>
        <time>2013-09-22T14:57:23Z</time>
      </trkpt>
      <trkpt lat="42.700640" lon="0.183297">
        <ele>1556.6</ele>
        <time>2013-09-22T14:57:30Z</time>
      </trkpt>
      <trkpt lat="42.700612" lon="0.183423">
        <ele>1555.6</ele>
        <time>2013-09-22T14:57:39Z</time>
      </trkpt>
      <trkpt lat="42.700640" lon="0.183554">
        <ele>1554.9</ele>
        <time>2013-09-22T14:57:47Z</time>
      </trkpt>
      <trkpt lat="42.700670" lon="0.183698">
        <ele>1554.2</ele>
        <time>2013-09-22T14:57:56Z</time>
      </trkpt>
      <trkpt lat="42.700732" lon="0.183818">
        <ele>1553.3</ele>
        <time>2013-09-22T14:58:06Z</time>
      </trkpt>
      <trkpt lat="42.700836" lon="0.183969">
        <ele>1552.6</ele>
        <time>2013-09-22T14:58:15Z</time>
      </trkpt>
      <trkpt lat="42.700868" lon="0.184117">
        <ele>1551.6</ele>
        <time>2013-09-22T14:58:24Z</time>
      </trkpt>
      <trkpt lat="42.700893" lon="0.184241">
        <ele>1550.8</ele>
        <time>2013-09-22T14:58:31Z</time>
      </trkpt>
      <trkpt lat="42.700913" lon="0.184366">
        <ele>1550.0</ele>
        <time>2013-09-22T14:58:39Z</time>
      </trkpt>
      <trkpt lat="42.700964" lon="0.184489">
        <ele>1549.2</ele>
        <time>2013-09-22T14:58:47Z</time>
      </trkpt>
      <trkpt lat="42.700991" lon="0.184627">
        <ele>1548.5</ele>
        <time>2013-09-22T14:58:55Z</time>
      </trkpt>
      <trkpt lat="42.701013" lon="0.184749">
        <ele>1547.9</ele>
        <time>2013-09-22T14:59:03Z</time>
      </trkpt>
      <trkpt lat="42.701014" lon="0.184880">
        <ele>1546.9</ele>
        <time>2013-09-22T14:59:11Z</time>
      </trkpt>
      <trkpt lat="42.701020" lon="0.185004">
        <ele>1546.6</ele>
        <time>2013-09-22T14:59:18Z</time>
      </trkpt>
      <trkpt lat="42.701037" lon="0.185143">
        <ele>1546.3</ele>
        <time>2013-09-22T14:59:26Z</time>
      </trkpt>
      <trkpt lat="42.701067" lon="0.185273">
        <ele>1545.6</ele>
        <time>2013-09-22T14:59:34Z</time>
      </trkpt>
      <trkpt lat="42.701065" lon="0.185406">
        <ele>1545.2</ele>
        <time>2013-09-22T14:59:43Z</time>
      </trkpt>
      <trkpt lat="42.701068" lon="0.185549">
        <ele>1544.5</ele>
        <time>2013-09-22T14:59:52Z</time>
      </trkpt>
      <trkpt lat="42.701107" lon="0.185677">
        <ele>1544.1</ele>
        <time>2013-09-22T15:00:01Z</time>
      </trkpt>
      <trkpt lat="42.701156" lon="0.185794">
        <ele>1543.6</ele>
        <time>2013-09-22T15:00:09Z</time>
      </trkpt>
      <trkpt lat="42.701187" lon="0.185903">
        <ele>1542.2</ele>
        <time>2013-09-22T15:00:17Z</time>
      </trkpt>
      <trkpt lat="42.701220" lon="0.186048">
        <ele>1540.7</ele>
        <time>2013-09-22T15:00:26Z</time>
      </trkpt>
      <trkpt lat="42.701252" lon="0.186156">
        <ele>1539.7</ele>
        <time>2013-09-22T15:00:33Z</time>
      </trkpt>
      <trkpt lat="42.701283" lon="0.186278">
        <ele>1539.3</ele>
        <time>2013-09-22T15:00:41Z</time>
      </trkpt>
      <trkpt lat="42.701318" lon="0.186370">
        <ele>1539.1</ele>
        <time>2013-09-22T15:00:49Z</time>
      </trkpt>
      <trkpt lat="42.701374" lon="0.186486">
        <ele>1538.4</ele>
        <time>2013-09-22T15:00:59Z</time>
      </trkpt>
      <trkpt lat="42.701421" lon="0.186625">
        <ele>1537.8</ele>
        <time>2013-09-22T15:01:09Z</time>
      </trkpt>
      <trkpt lat="42.701481" lon="0.186728">
        <ele>1537.3</ele>
        <time>2013-09-22T15:01:17Z</time>
      </trkpt>
      <trkpt lat="42.701556" lon="0.186826">
        <ele>1537.5</ele>
        <time>2013-09-22T15:01:25Z</time>
      </trkpt>
      <trkpt lat="42.701581" lon="0.186956">
        <ele>1537.6</ele>
        <time>2013-09-22T15:01:35Z</time>
      </trkpt>
      <trkpt lat="42.701617" lon="0.187083">
        <ele>1537.5</ele>
        <time>2013-09-22T15:01:45Z</time>
      </trkpt>
      <trkpt lat="42.701674" lon="0.187246">
        <ele>1536.7</ele>
        <time>2013-09-22T15:01:54Z</time>
      </trkpt>
      <trkpt lat="42.701708" lon="0.187378">
        <ele>1535.5</ele>
        <time>2013-09-22T15:02:02Z</time>
      </trkpt>
      <trkpt lat="42.701741" lon="0.187504">
        <ele>1534.7</ele>
        <time>2013-09-22T15:02:13Z</time>
      </trkpt>
      <trkpt lat="42.701752" lon="0.187642">
        <ele>1533.5</ele>
        <time>2013-09-22T15:02:23Z</time>
      </trkpt>
      <trkpt lat="42.701763" lon="0.187744">
        <ele>1532.2</ele>
        <time>2013-09-22T15:02:31Z</time>
      </trkpt>
      <trkpt lat="42.701749" lon="0.187876">
        <ele>1530.8</ele>
        <time>2013-09-22T15:02:40Z</time>
      </trkpt>
      <trkpt lat="42.701717" lon="0.188043">
        <ele>1528.7</ele>
        <time>2013-09-22T15:02:52Z</time>
      </trkpt>
      <trkpt lat="42.701724" lon="0.188210">
        <ele>1527.6</ele>
        <time>2013-09-22T15:03:00Z</time>
      </trkpt>
      <trkpt lat="42.701730" lon="0.188363">
        <ele>1526.6</ele>
        <time>2013-09-22T15:03:10Z</time>
      </trkpt>
      <trkpt lat="42.701752" lon="0.188492">
        <ele>1525.7</ele>
        <time>2013-09-22T15:03:19Z</time>
      </trkpt>
      <trkpt lat="42.701785" lon="0.188631">
        <ele>1524.6</ele>
        <time>2013-09-22T15:03:28Z</time>
      </trkpt>
      <trkpt lat="42.701844" lon="0.188764">
        <ele>1523.4</ele>
        <time>2013-09-22T15:03:36Z</time>
      </trkpt>
      <trkpt lat="42.701881" lon="0.188886">
        <ele>1522.1</ele>
        <time>2013-09-22T15:03:44Z</time>
      </trkpt>
      <trkpt lat="42.701917" lon="0.189005">
        <ele>1521.0</ele>
        <time>2013-09-22T15:03:52Z</time>
      </trkpt>
      <trkpt lat="42.701976" lon="0.189123">
        <ele>1519.8</ele>
        <time>2013-09-22T15:04:00Z</time>
      </trkpt>
      <trkpt lat="42.702034" lon="0.189246">
        <ele>1518.7</ele>
        <time>2013-09-22T15:04:09Z</time>
      </trkpt>
      <trkpt lat="42.702084" lon="0.189352">
        <ele>1518.0</ele>
        <time>2013-09-22T15:04:17Z</time>
      </trkpt>
      <trkpt lat="42.702124" lon="0.189480">
        <ele>1517.3</ele>
        <time>2013-09-22T15:04:25Z</time>
      </trkpt>
      <trkpt lat="42.702188" lon="0.189599">
        <ele>1516.8</ele>
        <time>2013-09-22T15:04:32Z</time>
      </trkpt>
      <trkpt lat="42.702227" lon="0.189726">
        <ele>1515.8</ele>
        <time>2013-09-22T15:04:40Z</time>
      </trkpt>
      <trkpt lat="42.702241" lon="0.189865">
        <ele>1514.6</ele>
        <time>2013-09-22T15:04:48Z</time>
      </trkpt>
      <trkpt lat="42.702266" lon="0.189992">
        <ele>1513.8</ele>
        <time>2013-09-22T15:04:55Z</time>
      </trkpt>
      <trkpt lat="42.702291" lon="0.190110">
        <ele>1513.1</ele>
        <time>2013-09-22T15:05:02Z</time>
      </trkpt>
      <trkpt lat="42.702331" lon="0.190221">
        <ele>1512.7</ele>
        <time>2013-09-22T15:05:09Z</time>
      </trkpt>
      <trkpt lat="42.702365" lon="0.190347">
        <ele>1512.3</ele>
        <time>2013-09-22T15:05:17Z</time>
      </trkpt>
      <trkpt lat="42.702395" lon="0.190471">
        <ele>1511.6</ele>
        <time>2013-09-22T15:05:25Z</time>
      </trkpt>
      <trkpt lat="42.702396" lon="0.190600">
        <ele>1511.2</ele>
        <time>2013-09-22T15:05:33Z</time>
      </trkpt>
      <trkpt lat="42.702424" lon="0.190726">
        <ele>1510.8</ele>
        <time>2013-09-22T15:05:40Z</time>
      </trkpt>
      <trkpt lat="42.702442" lon="0.190861">
        <ele>1510.1</ele>
        <time>2013-09-22T15:05:47Z</time>
      </trkpt>
      <trkpt lat="42.702487" lon="0.190978">
        <ele>1509.4</ele>
        <time>2013-09-22T15:05:54Z</time>
      </trkpt>
      <trkpt lat="42.702543" lon="0.191109">
        <ele>1509.3</ele>
        <time>2013-09-22T15:06:02Z</time>
      </trkpt>
      <trkpt lat="42.702603" lon="0.191224">
        <ele>1509.6</ele>
        <time>2013-09-22T15:06:10Z</time>
      </trkpt>
      <trkpt lat="42.702632" lon="0.191352">
        <ele>1510.0</ele>
        <time>2013-09-22T15:06:19Z</time>
      </trkpt>
      <trkpt lat="42.702683" lon="0.191454">
        <ele>1509.8</ele>
        <time>2013-09-22T15:06:25Z</time>
      </trkpt>
      <trkpt lat="42.702724" lon="0.191573">
        <ele>1509.6</ele>
        <time>2013-09-22T15:06:32Z</time>
      </trkpt>
      <trkpt lat="42.702791" lon="0.191688">
        <ele>1509.0</ele>
        <time>2013-09-22T15:06:40Z</time>
      </trkpt>
      <trkpt lat="42.702836" lon="0.191805">
        <ele>1508.8</ele>
        <time>2013-09-22T15:06:47Z</time>
      </trkpt>
      <trkpt lat="42.702865" lon="0.191950">
        <ele>1508.7</ele>
        <time>2013-09-22T15:06:54Z</time>
      </trkpt>
      <trkpt lat="42.702905" lon="0.192070">
        <ele>1508.7</ele>
        <time>2013-09-22T15:07:00Z</time>
      </trkpt>
      <trkpt lat="42.702949" lon="0.192160">
        <ele>1508.4</ele>
        <time>2013-09-22T15:07:07Z</time>
      </trkpt>
      <trkpt lat="42.702972" lon="0.192279">
        <ele>1508.1</ele>
        <time>2013-09-22T15:07:15Z</time>
      </trkpt>
      <trkpt lat="42.702990" lon="0.192415">
        <ele>1507.8</ele>
        <time>2013-09-22T15:07:23Z</time>
      </trkpt>
      <trkpt lat="42.702971" lon="0.192542">
        <ele>1507.5</ele>
        <time>2013-09-22T15:07:31Z</time>
      </trkpt>
      <trkpt lat="42.702957" lon="0.192674">
        <ele>1506.7</ele>
        <time>2013-09-22T15:07:39Z</time>
      </trkpt>
      <trkpt lat="42.702988" lon="0.192826">
        <ele>1506.2</ele>
        <time>2013-09-22T15:07:47Z</time>
      </trkpt>
      <trkpt lat="42.703055" lon="0.192864">
        <ele>1506.5</ele>
        <time>2013-09-22T15:08:03Z</time>
      </trkpt>
      <trkpt lat="42.703103" lon="0.192900">
        <ele>1507.0</ele>
        <time>2013-09-22T15:08:19Z</time>
      </trkpt>
      <trkpt lat="42.703067" lon="0.193028">
        <ele>1507.3</ele>
        <time>2013-09-22T15:08:27Z</time>
      </trkpt>
      <trkpt lat="42.703069" lon="0.193147">
        <ele>1507.2</ele>
        <time>2013-09-22T15:08:35Z</time>
      </trkpt>
      <trkpt lat="42.703087" lon="0.193280">
        <ele>1507.1</ele>
        <time>2013-09-22T15:08:42Z</time>
      </trkpt>
      <trkpt lat="42.703128" lon="0.193407">
        <ele>1506.9</ele>
        <time>2013-09-22T15:08:49Z</time>
      </trkpt>
      <trkpt lat="42.703180" lon="0.193544">
        <ele>1507.0</ele>
        <time>2013-09-22T15:08:57Z</time>
      </trkpt>
      <trkpt lat="42.703196" lon="0.193691">
        <ele>1507.1</ele>
        <time>2013-09-22T15:09:05Z</time>
      </trkpt>
      <trkpt lat="42.703215" lon="0.193829">
        <ele>1507.4</ele>
        <time>2013-09-22T15:09:12Z</time>
      </trkpt>
      <trkpt lat="42.703246" lon="0.193963">
        <ele>1507.8</ele>
        <time>2013-09-22T15:09:19Z</time>
      </trkpt>
      <trkpt lat="42.703264" lon="0.194084">
        <ele>1507.9</ele>
        <time>2013-09-22T15:09:25Z</time>
      </trkpt>
      <trkpt lat="42.703287" lon="0.194207">
        <ele>1508.1</ele>
        <time>2013-09-22T15:09:32Z</time>
      </trkpt>
      <trkpt lat="42.703302" lon="0.194335">
        <ele>1507.8</ele>
        <time>2013-09-22T15:09:41Z</time>
      </trkpt>
      <trkpt lat="42.703313" lon="0.194461">
        <ele>1507.3</ele>
        <time>2013-09-22T15:09:48Z</time>
      </trkpt>
      <trkpt lat="42.703318" lon="0.194612">
        <ele>1506.6</ele>
        <time>2013-09-22T15:09:54Z</time>
      </trkpt>
      <trkpt lat="42.703339" lon="0.194760">
        <ele>1505.5</ele>
        <time>2013-09-22T15:10:00Z</time>
      </trkpt>
      <trkpt lat="42.703368" lon="0.194902">
        <ele>1503.9</ele>
        <time>2013-09-22T15:10:07Z</time>
      </trkpt>
      <trkpt lat="42.703373" lon="0.195040">
        <ele>1502.6</ele>
        <time>2013-09-22T15:10:15Z</time>
      </trkpt>
      <trkpt lat="42.703350" lon="0.195158">
        <ele>1501.9</ele>
        <time>2013-09-22T15:10:22Z</time>
      </trkpt>
      <trkpt lat="42.703324" lon="0.195284">
        <ele>1500.8</ele>
        <time>2013-09-22T15:10:30Z</time>
      </trkpt>
      <trkpt lat="42.703314" lon="0.195410">
        <ele>1499.6</ele>
        <time>2013-09-22T15:10:39Z</time>
      </trkpt>
      <trkpt lat="42.703323" lon="0.195553">
        <ele>1498.9</ele>
        <time>2013-09-22T15:10:47Z</time>
      </trkpt>
      <trkpt lat="42.703311" lon="0.195672">
        <ele>1498.5</ele>
        <time>2013-09-22T15:10:55Z</time>
      </trkpt>
      <trkpt lat="42.703300" lon="0.195796">
        <ele>1498.3</ele>
        <time>2013-09-22T15:11:03Z</time>
      </trkpt>
      <trkpt lat="42.703257" lon="0.195914">
        <ele>1497.7</ele>
        <time>2013-09-22T15:11:13Z</time>
      </trkpt>
      <trkpt lat="42.703253" lon="0.196084">
        <ele>1497.5</ele>
        <time>2013-09-22T15:11:23Z</time>
      </trkpt>
      <trkpt lat="42.703231" lon="0.196226">
        <ele>1497.1</ele>
        <time>2013-09-22T15:11:32Z</time>
      </trkpt>
      <trkpt lat="42.703206" lon="0.196379">
        <ele>1496.2</ele>
        <time>2013-09-22T15:11:42Z</time>
      </trkpt>
      <trkpt lat="42.703153" lon="0.196496">
        <ele>1494.7</ele>
        <time>2013-09-22T15:11:52Z</time>
      </trkpt>
      <trkpt lat="42.703084" lon="0.196613">
        <ele>1492.8</ele>
        <time>2013-09-22T15:12:02Z</time>
      </trkpt>
      <trkpt lat="42.703044" lon="0.196741">
        <ele>1490.5</ele>
        <time>2013-09-22T15:12:13Z</time>
      </trkpt>
      <trkpt lat="42.703048" lon="0.196900">
        <ele>1488.8</ele>
        <time>2013-09-22T15:12:23Z</time>
      </trkpt>
      <trkpt lat="42.703018" lon="0.197024">
        <ele>1486.9</ele>
        <time>2013-09-22T15:12:33Z</time>
      </trkpt>
      <trkpt lat="42.702989" lon="0.197168">
        <ele>1483.6</ele>
        <time>2013-09-22T15:12:45Z</time>
      </trkpt>
      <trkpt lat="42.702937" lon="0.197281">
        <ele>1481.7</ele>
        <time>2013-09-22T15:12:54Z</time>
      </trkpt>
      <trkpt lat="42.702959" lon="0.197424">
        <ele>1479.8</ele>
        <time>2013-09-22T15:13:02Z</time>
      </trkpt>
      <trkpt lat="42.702912" lon="0.197537">
        <ele>1477.8</ele>
        <time>2013-09-22T15:13:11Z</time>
      </trkpt>
      <trkpt lat="42.702844" lon="0.197634">
        <ele>1476.0</ele>
        <time>2013-09-22T15:13:19Z</time>
      </trkpt>
      <trkpt lat="42.702804" lon="0.197749">
        <ele>1473.2</ele>
        <time>2013-09-22T15:13:29Z</time>
      </trkpt>
      <trkpt lat="42.702771" lon="0.197861">
        <ele>1470.7</ele>
        <time>2013-09-22T15:13:40Z</time>
      </trkpt>
      <trkpt lat="42.702727" lon="0.198008">
        <ele>1468.8</ele>
        <time>2013-09-22T15:13:49Z</time>
      </trkpt>
      <trkpt lat="42.702646" lon="0.198122">
        <ele>1465.7</ele>
        <time>2013-09-22T15:14:02Z</time>
      </trkpt>
      <trkpt lat="42.702584" lon="0.198227">
        <ele>1464.2</ele>
        <time>2013-09-22T15:14:10Z</time>
      </trkpt>
      <trkpt lat="42.702539" lon="0.198343">
        <ele>1462.4</ele>
        <time>2013-09-22T15:14:21Z</time>
      </trkpt>
      <trkpt lat="42.702545" lon="0.198479">
        <ele>1460.8</ele>
        <time>2013-09-22T15:14:37Z</time>
      </trkpt>
      <trkpt lat="42.702462" lon="0.198563">
        <ele>1458.9</ele>
        <time>2013-09-22T15:14:52Z</time>
      </trkpt>
      <trkpt lat="42.702409" lon="0.198723">
        <ele>1458.3</ele>
        <time>2013-09-22T15:15:02Z</time>
      </trkpt>
      <trkpt lat="42.702314" lon="0.198848">
        <ele>1457.8</ele>
        <time>2013-09-22T15:15:11Z</time>
      </trkpt>
      <trkpt lat="42.702250" lon="0.198962">
        <ele>1457.4</ele>
        <time>2013-09-22T15:15:19Z</time>
      </trkpt>
      <trkpt lat="42.702167" lon="0.199036">
        <ele>1457.2</ele>
        <time>2013-09-22T15:15:27Z</time>
      </trkpt>
      <trkpt lat="42.702067" lon="0.199089">
        <ele>1456.5</ele>
        <time>2013-09-22T15:15:37Z</time>
      </trkpt>
      <trkpt lat="42.701929" lon="0.199153">
        <ele>1456.1</ele>
        <time>2013-09-22T15:15:45Z</time>
      </trkpt>
      <trkpt lat="42.701825" lon="0.199203">
        <ele>1455.6</ele>
        <time>2013-09-22T15:15:53Z</time>
      </trkpt>
      <trkpt lat="42.701733" lon="0.199266">
        <ele>1455.2</ele>
        <time>2013-09-22T15:16:02Z</time>
      </trkpt>
      <trkpt lat="42.701638" lon="0.199348">
        <ele>1454.7</ele>
        <time>2013-09-22T15:16:11Z</time>
      </trkpt>
      <trkpt lat="42.701555" lon="0.199425">
        <ele>1454.7</ele>
        <time>2013-09-22T15:16:19Z</time>
      </trkpt>
      <trkpt lat="42.701473" lon="0.199510">
        <ele>1454.8</ele>
        <time>2013-09-22T15:16:27Z</time>
      </trkpt>
      <trkpt lat="42.701382" lon="0.199566">
        <ele>1454.3</ele>
        <time>2013-09-22T15:16:36Z</time>
      </trkpt>
      <trkpt lat="42.701287" lon="0.199615">
        <ele>1453.6</ele>
        <time>2013-09-22T15:16:45Z</time>
      </trkpt>
      <trkpt lat="42.701193" lon="0.199713">
        <ele>1452.7</ele>
        <time>2013-09-22T15:16:56Z</time>
      </trkpt>
      <trkpt lat="42.701111" lon="0.199822">
        <ele>1452.0</ele>
        <time>2013-09-22T15:17:07Z</time>
      </trkpt>
      <trkpt lat="42.701042" lon="0.199938">
        <ele>1451.0</ele>
        <time>2013-09-22T15:17:17Z</time>
      </trkpt>
      <trkpt lat="42.700977" lon="0.200046">
        <ele>1450.0</ele>
        <time>2013-09-22T15:17:26Z</time>
      </trkpt>
      <trkpt lat="42.700875" lon="0.200130">
        <ele>1448.5</ele>
        <time>2013-09-22T15:17:36Z</time>
      </trkpt>
      <trkpt lat="42.700781" lon="0.200179">
        <ele>1447.0</ele>
        <time>2013-09-22T15:17:48Z</time>
      </trkpt>
      <trkpt lat="42.700694" lon="0.200240">
        <ele>1445.7</ele>
        <time>2013-09-22T15:17:57Z</time>
      </trkpt>
      <trkpt lat="42.700598" lon="0.200280">
        <ele>1443.9</ele>
        <time>2013-09-22T15:18:06Z</time>
      </trkpt>
      <trkpt lat="42.700524" lon="0.200352">
        <ele>1442.0</ele>
        <time>2013-09-22T15:18:15Z</time>
      </trkpt>
      <trkpt lat="42.700436" lon="0.200434">
        <ele>1440.4</ele>
        <time>2013-09-22T15:18:25Z</time>
      </trkpt>
      <trkpt lat="42.700353" lon="0.200510">
        <ele>1439.0</ele>
        <time>2013-09-22T15:18:33Z</time>
      </trkpt>
      <trkpt lat="42.700258" lon="0.200558">
        <ele>1437.6</ele>
        <time>2013-09-22T15:18:42Z</time>
      </trkpt>
      <trkpt lat="42.700147" lon="0.200613">
        <ele>1435.9</ele>
        <time>2013-09-22T15:18:51Z</time>
      </trkpt>
      <trkpt lat="42.700069" lon="0.200703">
        <ele>1434.1</ele>
        <time>2013-09-22T15:19:01Z</time>
      </trkpt>
      <trkpt lat="42.699977" lon="0.200780">
        <ele>1432.8</ele>
        <time>2013-09-22T15:19:11Z</time>
      </trkpt>
      <trkpt lat="42.699885" lon="0.200848">
        <ele>1431.4</ele>
        <time>2013-09-22T15:19:20Z</time>
      </trkpt>
      <trkpt lat="42.699781" lon="0.200895">
        <ele>1429.9</ele>
        <time>2013-09-22T15:19:30Z</time>
      </trkpt>
      <trkpt lat="42.699688" lon="0.200969">
        <ele>1427.8</ele>
        <time>2013-09-22T15:19:40Z</time>
      </trkpt>
      <trkpt lat="42.699562" lon="0.201011">
        <ele>1426.1</ele>
        <time>2013-09-22T15:19:49Z</time>
      </trkpt>
      <trkpt lat="42.699462" lon="0.201053">
        <ele>1424.2</ele>
        <time>2013-09-22T15:19:58Z</time>
      </trkpt>
      <trkpt lat="42.699368" lon="0.201092">
        <ele>1422.4</ele>
        <time>2013-09-22T15:20:07Z</time>
      </trkpt>
      <trkpt lat="42.699282" lon="0.201135">
        <ele>1420.8</ele>
        <time>2013-09-22T15:20:16Z</time>
      </trkpt>
      <trkpt lat="42.699189" lon="0.201202">
        <ele>1419.2</ele>
        <time>2013-09-22T15:20:26Z</time>
      </trkpt>
      <trkpt lat="42.699104" lon="0.201244">
        <ele>1417.8</ele>
        <time>2013-09-22T15:20:35Z</time>
      </trkpt>
      <trkpt lat="42.698996" lon="0.201265">
        <ele>1416.2</ele>
        <time>2013-09-22T15:20:45Z</time>
      </trkpt>
      <trkpt lat="42.698850" lon="0.201265">
        <ele>1414.5</ele>
        <time>2013-09-22T15:20:56Z</time>
      </trkpt>
      <trkpt lat="42.698799" lon="0.201366">
        <ele>1412.9</ele>
        <time>2013-09-22T15:21:07Z</time>
      </trkpt>
      <trkpt lat="42.698935" lon="0.201376">
        <ele>1410.6</ele>
        <time>2013-09-22T15:21:21Z</time>
      </trkpt>
      <trkpt lat="42.699071" lon="0.201399">
        <ele>1408.8</ele>
        <time>2013-09-22T15:21:33Z</time>
      </trkpt>
      <trkpt lat="42.699247" lon="0.201502">
        <ele>1407.5</ele>
        <time>2013-09-22T15:21:44Z</time>
      </trkpt>
      <trkpt lat="42.699347" lon="0.201525">
        <ele>1406.9</ele>
        <time>2013-09-22T15:21:53Z</time>
      </trkpt>
      <trkpt lat="42.699455" lon="0.201550">
        <ele>1406.0</ele>
        <time>2013-09-22T15:22:02Z</time>
      </trkpt>
      <trkpt lat="42.699556" lon="0.201625">
        <ele>1405.0</ele>
        <time>2013-09-22T15:22:11Z</time>
      </trkpt>
      <trkpt lat="42.699644" lon="0.201648">
        <ele>1403.9</ele>
        <time>2013-09-22T15:22:20Z</time>
      </trkpt>
      <trkpt lat="42.699742" lon="0.201625">
        <ele>1403.1</ele>
        <time>2013-09-22T15:22:27Z</time>
      </trkpt>
      <trkpt lat="42.699847" lon="0.201621">
        <ele>1402.0</ele>
        <time>2013-09-22T15:22:35Z</time>
      </trkpt>
      <trkpt lat="42.699933" lon="0.201597">
        <ele>1400.8</ele>
        <time>2013-09-22T15:22:44Z</time>
      </trkpt>
      <trkpt lat="42.700016" lon="0.201546">
        <ele>1400.1</ele>
        <time>2013-09-22T15:22:52Z</time>
      </trkpt>
      <trkpt lat="42.700109" lon="0.201564">
        <ele>1399.0</ele>
        <time>2013-09-22T15:23:00Z</time>
      </trkpt>
      <trkpt lat="42.700212" lon="0.201582">
        <ele>1397.9</ele>
        <time>2013-09-22T15:23:08Z</time>
      </trkpt>
      <trkpt lat="42.700309" lon="0.201571">
        <ele>1396.9</ele>
        <time>2013-09-22T15:23:16Z</time>
      </trkpt>
      <trkpt lat="42.700408" lon="0.201580">
        <ele>1397.3</ele>
        <time>2013-09-22T15:23:26Z</time>
        <name>Route A-138</name>
      </trkpt>
    </trkseg>
  </trk>
</gpx>

